[[{"header":{"parameterUnit":"m.s-1","parameterCategory":1,"la1":30.6,"la2":28.766,"lo1":-90.7593,"lo2":-88.6598,"dy":0.0162,"dx":0.0183,"nx":116,"ny":114,"refTime":"2024-07-08T18:00:00:Z","depth":0,"parameterNumber":2,"parameterNumberName":"U-component_of_WINDS"},"data":[0.0,0.0,0.0,0.0,0.0,0.0,0.0,0.0,0.0,0.0,0.0,0.0,0.0,0.0,0.0,0.0,0.0,0.0,0.0,0.0,0.0,0.0,0.0,0.0,0.0,0.0,0.0,0.0,0.0,0.0,0.0,0.0,0.0,0.0,0.0,0.0,0.0,0.0,0.0,0.0,0.0,0.0,0.0,0.0,0.0,0.0,0.0,0.0,0.0,0.0,0.0,0.0,0.0,0.0,0.0,0.0,0.0,0.0,0.0,0.0,0.0,0.0,0.0,0.0,0.0,0.0,0.0,0.0,0.0,0.0,0.0,0.0,0.0,0.0,0.0,0.0,0.0,0.0,0.0,0.0,0.0,0.0,0.0,0.0,0.0,0.0,0.0,0.0,0.0,0.0,0.0,0.0,0.0,0.0,0.0,0.0,0.0,0.0,0.0,0.0,0.0,0.0,0.0,0.0,0.0,0.0,0.0,0.0,0.0,0.0,0.0,0.0,0.0,0.0,0.0,0.0,0.0,0.0,0.0,0.0,0.0,0.0,0.0,0.0,0.0,0.0,0.0,0.0,0.0,0.0,0.0,0.0,0.0,0.0,0.0,0.0,0.0,0.0,0.0,0.0,0.0,0.0,0.0,0.0,0.0,0.0,0.0,0.0,0.0,0.0,0.0,0.0,0.0,0.0,0.0,0.0,0.0,0.0,0.0,0.0,0.0,0.0,0.0,0.0,0.0,0.0,0.0,0.0,0.0,0.0,0.0,0.0,0.0,0.0,0.0,0.0,0.0,0.0,0.0,0.0,0.0,0.0,0.0,0.0,0.0,0.0,0.0,0.0,0.0,0.0,0.0,0.0,0.0,0.0,0.0,0.0,0.0,0.0,0.0,0.0,0.0,0.0,0.0,0.0,0.0,0.0,0.0,0.0,0.0,0.0,0.0,0.0,0.0,0.0,0.0,0.0,0.0,0.0,0.0,0.0,0.0,0.0,0.0,0.0,0.0,0.0,0.0,0.0,0.0,0.0,0.0,0.0,0.0,0.0,0.0,0.0,0.0,0.0,0.0,0.0,0.0,0.0,0.0,0.0,0.0,0.0,0.0,0.0,0.0,0.0,0.0,0.0,0.0,0.0,0.0,0.0,0.0,0.0,0.0,0.0,0.0,0.0,0.0,0.0,0.0,0.0,0.0,0.0,0.0,0.0,0.0,0.0,0.0,0.0,0.0,0.0,0.0,0.0,0.0,0.0,0.0,0.0,0.0,0.0,0.0,0.0,0.0,0.0,0.0,0.0,0.0,0.0,0.0,0.0,0.0,0.0,0.0,0.0,0.0,0.0,0.0,0.0,0.0,0.0,0.0,0.0,0.0,0.0,0.0,0.0,0.0,0.0,0.0,0.0,0.0,0.0,0.0,0.0,0.0,0.0,0.0,0.0,0.0,0.0,0.0,0.0,0.0,0.0,0.0,0.0,0.0,0.0,0.0,0.0,0.0,0.0,0.0,0.0,0.0,0.0,0.0,0.0,0.0,0.0,0.0,0.0,0.0,0.0,0.0,0.0,0.0,0.0,0.0,0.0,0.0,0.0,0.0,0.0,0.0,0.0,0.0,0.0,0.0,0.0,0.0,0.0,0.0,0.0,0.0,0.0,0.0,0.0,0.0,0.0,0.0,0.0,0.0,0.0,0.0,0.0,0.0,0.0,0.0,0.0,0.0,0.0,0.0,0.0,0.0,0.0,0.0,0.0,0.0,0.0,0.0,0.0,0.0,0.0,0.0,0.0,0.0,0.0,0.0,0.0,0.0,0.0,0.0,0.0,0.0,0.0,0.0,0.0,0.0,0.0,0.0,0.0,0.0,0.0,0.0,0.0,0.0,0.0,0.0,0.0,0.0,0.0,0.0,0.0,0.0,0.0,0.0,0.0,0.0,0.0,0.0,0.0,0.0,0.0,0.0,0.0,0.0,0.0,0.0,0.0,0.0,0.0,0.0,0.0,0.0,0.0,0.0,0.0,0.0,0.0,0.0,0.0,0.0,0.0,0.0,0.0,0.0,0.0,0.0,0.0,0.0,0.0,0.0,0.0,0.0,0.0,0.0,0.0,0.0,0.0,0.0,0.0,0.0,0.0,0.0,0.0,0.0,0.0,0.0,0.0,0.0,0.0,0.0,0.0,0.0,0.0,0.0,0.0,0.0,0.0,0.0,0.0,0.0,0.0,0.0,0.0,0.0,0.0,0.0,0.0,0.0,0.0,0.0,0.0,0.0,0.0,0.0,0.0,0.0,0.0,0.0,0.0,0.0,0.0,0.0,0.0,0.0,0.0,0.0,0.0,0.0,0.0,0.0,0.0,0.0,0.0,0.0,0.0,0.0,0.0,0.0,0.0,0.0,0.0,0.0,0.0,0.0,0.0,0.0,0.0,0.0,0.0,0.0,0.0,0.0,0.0,0.0,0.0,0.0,0.0,0.0,0.0,0.0,0.0,0.0,0.0,0.0,0.0,0.0,0.0,0.0,0.0,0.0,0.0,0.0,0.0,0.0,0.0,0.0,0.0,0.0,0.0,0.0,0.0,0.0,0.0,0.0,0.0,0.0,0.0,0.0,0.0,0.0,0.0,0.0,0.0,0.0,0.0,0.0,0.0,0.0,0.0,0.0,0.0,0.0,0.0,0.0,0.0,0.0,0.0,0.0,0.0,0.0,0.0,0.0,0.0,0.0,0.0,0.0,0.0,0.0,0.0,0.0,0.0,0.0,0.0,0.0,0.0,0.0,0.0,0.0,0.0,0.0,0.0,0.0,0.0,0.0,0.0,0.0,0.0,0.0,0.0,0.0,0.0,0.0,0.0,0.0,0.0,0.0,0.0,0.0,0.0,0.0,0.0,0.0,0.0,0.0,0.0,0.0,0.0,0.0,0.0,0.0,0.0,0.0,0.0,0.0,0.0,0.0,0.0,0.0,0.0,0.0,0.0,0.0,0.0,0.0,0.0,0.0,0.0,0.0,0.0,0.0,0.0,0.0,0.0,0.0,0.0,0.0,0.0,0.0,0.0,0.0,0.0,0.0,0.0,0.0,0.0,0.0,0.0,0.0,0.0,0.0,0.0,0.0,0.0,0.0,0.0,0.0,0.0,0.0,0.0,0.0,0.0,0.0,0.0,0.0,0.0,0.0,0.0,0.0,0.0,0.0,0.0,0.0,0.0,0.0,0.0,0.0,0.0,0.0,0.0,0.0,0.0,0.0,0.0,0.0,0.0,0.0,0.0,0.0,0.0,0.0,0.0,0.0,0.0,0.0,0.0,0.0,0.0,0.0,0.0,0.0,0.0,0.0,0.0,0.0,0.0,0.0,0.0,0.0,0.0,0.0,0.0,0.0,0.0,0.0,0.0,0.0,0.0,0.0,0.0,0.0,0.0,0.0,0.0,0.0,0.0,0.0,0.0,0.0,0.0,0.0,0.0,0.0,0.0,0.0,0.0,0.0,0.0,0.0,0.0,0.0,0.0,0.0,0.0,0.0,0.0,0.0,0.0,0.0,0.0,0.0,0.0,0.0,0.0,0.0,0.0,0.0,0.0,0.0,0.0,0.0,0.0,0.0,0.0,0.0,0.0,0.0,0.0,0.0,0.0,0.0,0.0,0.0,0.0,0.0,0.0,0.0,0.0,0.0,0.0,0.0,0.0,0.0,0.0,0.0,0.0,0.0,0.0,0.0,0.0,0.0,0.0,0.0,0.0,0.0,0.0,0.0,0.0,0.0,0.0,0.0,0.0,0.0,0.0,0.0,0.0,0.0,0.0,0.0,0.0,0.0,0.0,0.0,0.0,0.0,0.0,0.0,0.0,0.0,0.0,0.0,0.0,0.0,0.0,0.0,0.0,0.0,0.0,0.0,0.0,0.0,0.0,0.0,0.0,0.0,0.0,0.0,0.0,0.0,0.0,0.0,0.0,0.0,0.0,0.0,0.0,0.0,0.0,0.0,0.0,0.0,0.0,0.0,0.0,0.0,0.0,0.0,0.0,0.0,0.0,0.0,0.0,0.0,0.0,0.0,0.0,0.0,0.0,0.0,0.0,0.0,0.0,0.0,0.0,0.0,0.0,0.0,0.0,0.0,0.0,0.0,0.0,0.0,0.0,0.0,0.0,0.0,0.0,0.0,0.0,0.0,0.0,0.0,0.0,0.0,0.0,0.0,0.0,0.0,0.0,0.0,0.0,0.0,0.0,0.0,0.0,0.0,0.0,0.0,0.0,0.0,0.0,0.0,0.0,0.0,0.0,0.0,0.0,0.0,0.0,0.0,0.0,0.0,0.0,0.0,0.0,0.0,0.0,0.0,0.0,0.0,0.0,0.0,0.0,0.0,0.0,0.0,0.0,0.0,0.0,0.0,0.0,0.0,0.0,0.0,0.0,0.0,0.0,0.0,0.0,0.0,0.0,0.0,0.0,0.0,0.0,0.0,0.0,0.0,0.0,0.0,0.0,0.0,0.0,0.0,0.0,0.0,0.0,0.0,0.0,0.0,0.0,0.0,0.0,0.0,0.0,0.0,0.0,0.0,0.0,0.0,0.0,0.0,0.0,0.0,0.0,0.0,0.0,0.0,0.0,0.0,0.0,0.0,0.0,0.0,0.0,0.0,0.0,0.0,0.0,0.0,0.0,0.0,0.0,0.0,0.0,0.0,0.0,0.0,0.0,0.0,0.0,0.0,0.0,0.0,0.0,0.0,0.0,0.0,0.0,0.0,0.0,0.0,0.0,0.0,0.0,0.0,0.0,0.0,0.0,0.0,0.0,0.0,0.0,0.0,0.0,0.0,0.0,0.0,0.0,0.0,0.0,0.0,0.0,0.0,0.0,0.0,0.0,0.0,0.0,0.0,0.0,0.0,0.0,0.0,0.0,0.0,0.0,0.0,0.0,0.0,0.0,0.0,0.0,0.0,0.0,0.0,0.0,0.0,0.0,0.0,0.0,0.0,0.0,0.0,0.0,0.0,0.0,0.0,0.0,0.0,0.0,0.0,0.0,0.0,0.0,0.0,0.0,0.0,0.0,0.0,0.0,0.0,0.0,0.0,0.0,0.0,0.0,0.0,0.0,0.0,0.0,0.0,0.0,0.0,0.0,0.0,0.0,0.0,0.0,0.0,0.0,0.0,0.0,0.0,0.0,0.0,0.0,0.0,0.0,0.0,0.0,0.0,0.0,0.0,0.0,0.0,0.0,0.0,0.0,0.0,0.0,0.0,0.0,0.0,0.0,0.0,0.0,0.0,0.0,0.0,0.0,0.0,0.0,0.0,0.0,0.0,0.0,0.0,0.0,0.0,0.0,0.0,0.0,0.0,0.0,0.0,0.0,0.0,0.0,0.0,0.0,0.0,0.0,0.0,0.0,0.0,0.0,0.0,0.0,0.0,0.0,0.0,0.0,0.0,0.0,0.0,0.0,0.0,0.0,0.0,0.0,0.0,0.0,0.0,0.0,0.0,0.0,0.0,0.0,0.0,0.0,0.0,0.0,0.0,0.0,0.0,0.0,0.0,0.0,0.0,0.0,0.0,0.0,0.0,0.0,0.0,0.0,0.0,0.0,0.0,0.0,0.0,0.0,0.0,0.0,0.0,0.0,0.0,0.0,0.0,0.0,0.0,0.0,0.0,0.0,0.0,0.0,0.0,0.0,0.0,0.0,0.0,0.0,0.0,0.0,0.0,0.0,0.0,0.0,0.0,0.0,0.0,0.0,0.0,0.0,0.0,0.0,0.0,0.0,0.0,0.0,0.0,0.0,0.0,0.0,0.0,0.0,0.0,0.0,0.0,0.0,0.0,0.0,0.0,0.0,0.0,0.0,0.0,0.0,0.0,0.0,0.0,0.0,0.0,0.0,0.0,0.0,0.0,0.0,0.0,0.0,0.0,0.0,0.0,0.0,0.0,0.0,0.0,0.0,0.0,0.0,0.0,0.0,0.0,0.0,0.0,0.0,0.0,0.0,0.0,0.0,0.0,0.0,0.0,0.0,0.0,0.0,0.0,0.0,0.0,0.0,0.0,0.0,0.0,0.0,0.0,0.0,0.0,0.0,0.0,0.0,0.0,0.0,0.0,0.0,0.0,0.0,0.0,0.0,0.0,0.0,0.0,0.0,-1.8454,0.0,0.0,0.0,0.0,0.0,0.0,0.0,0.0,0.0,0.0,0.0,0.0,0.0,0.0,0.0,0.0,0.0,0.0,0.0,0.0,0.0,0.0,0.0,0.0,-0.9331,-0.9403,-0.9403,-0.9525,-0.9609,-0.9609,0.0,0.0,0.0,0.0,0.0,-0.9702,-0.9702,-1.0084,-1.0851,-1.1269,-1.2072,-1.3196,-1.281,-1.1999,-1.0855,0.0,0.0,0.0,0.0,0.0,0.0,0.0,0.0,0.0,0.0,0.0,0.0,0.0,0.0,0.0,0.0,0.0,0.0,0.0,0.0,0.0,0.0,0.0,0.0,0.0,0.0,0.0,0.0,0.0,0.0,0.0,0.0,0.0,0.0,0.0,0.0,0.0,0.0,0.0,0.0,0.0,0.0,0.0,0.0,0.0,0.0,0.0,0.0,0.0,0.0,0.0,0.0,0.0,0.0,0.0,0.0,0.0,0.0,0.0,0.0,0.0,0.0,0.0,0.0,0.0,0.0,0.0,0.0,0.0,0.0,0.0,-2.0686,0.0,0.0,0.0,0.0,0.0,0.0,0.0,0.0,0.0,0.0,0.0,0.0,0.0,0.0,0.0,0.0,0.0,0.0,0.0,0.0,0.0,-0.9057,-0.9057,-0.9179,-0.9322,-0.9441,-0.9452,-0.9524,-0.9641,0.0,0.0,0.0,0.0,-0.9702,-0.9702,-0.9845,-1.0631,-1.2095,-1.2664,-1.4095,-1.6323,-1.6323,-1.5258,0.0,-1.2926,0.0,0.0,0.0,0.0,0.0,0.0,0.0,0.0,0.0,0.0,0.0,0.0,0.0,0.0,0.0,0.0,0.0,0.0,0.0,0.0,0.0,0.0,0.0,0.0,0.0,0.0,0.0,0.0,0.0,0.0,0.0,0.0,0.0,0.0,0.0,0.0,0.0,0.0,0.0,0.0,0.0,0.0,0.0,0.0,0.0,0.0,0.0,0.0,0.0,0.0,0.0,0.0,0.0,0.0,0.0,0.0,0.0,0.0,0.0,0.0,0.0,0.0,0.0,-3.0059,-2.9924,-2.9399,-2.9653,-2.9771,-2.9602,-2.6488,-2.5033,-2.4711,0.0,0.0,0.0,0.0,0.0,0.0,0.0,0.0,0.0,0.0,0.0,0.0,0.0,0.0,0.0,0.0,0.0,0.0,0.0,0.0,-0.8925,-0.8925,-0.9054,-0.9387,-1.0031,-0.9623,-0.9596,-1.0246,-0.9811,0.0,0.0,-0.9633,-0.9702,-0.9702,-1.0384,-1.1191,-1.2095,-1.4897,-1.7135,-1.8838,-1.8838,0.0,-1.8269,-1.6157,-1.5539,0.0,0.0,0.0,0.0,0.0,0.0,0.0,0.0,0.0,0.0,0.0,0.0,0.0,0.0,0.0,0.0,0.0,0.0,0.0,0.0,0.0,0.0,0.0,0.0,0.0,0.0,0.0,0.0,0.0,0.0,0.0,0.0,0.0,0.0,0.0,0.0,0.0,0.0,0.0,0.0,0.0,0.0,-1.5003,-1.7094,0.0,0.0,0.0,0.0,0.0,0.0,0.0,0.0,0.0,0.0,0.0,0.0,0.0,0.0,-2.4815,-2.7418,-2.9044,-2.9721,-3.1461,-3.1816,-3.0937,-3.2239,-3.2831,-3.2797,-3.2307,0.0,-2.6285,-2.4711,0.0,0.0,0.0,0.0,0.0,0.0,0.0,0.0,0.0,0.0,0.0,0.0,0.0,0.0,0.0,0.0,0.0,0.0,0.0,0.0,0.0,-0.994,-1.054,-1.1305,-1.1585,-1.1479,0.0,0.0,0.0,-0.9536,-0.955,-0.984,-1.0366,-1.1154,-1.2842,-1.5472,-1.828,-2.0244,-2.1382,0.0,0.0,0.0,-2.0482,-1.897,-1.7484,0.0,0.0,0.0,0.0,0.0,0.0,0.0,0.0,0.0,0.0,0.0,0.0,0.0,0.0,0.0,0.0,0.0,0.0,0.0,0.0,0.0,0.0,0.0,0.0,0.0,0.0,0.0,0.0,0.0,0.0,0.0,0.0,0.0,0.0,0.0,0.0,0.0,0.0,0.0,0.0,-1.4623,-1.7,-1.8398,-1.8353,-1.8035,0.0,0.0,0.0,0.0,0.0,0.0,0.0,0.0,0.0,-2.733,-2.7348,-2.7726,-2.8569,-3.07,-3.1782,-3.1782,-3.2679,-3.3305,-3.3694,-3.4332,-3.4636,-3.4636,-3.4636,-3.3503,-3.1529,-2.9211,-2.6877,-2.4543,0.0,0.0,0.0,0.0,-2.3393,-2.571,0.0,0.0,0.0,0.0,0.0,0.0,0.0,0.0,0.0,0.0,0.0,0.0,-1.0193,-1.0961,-1.1806,-1.2787,0.0,0.0,0.0,0.0,0.0,-1.0,-0.9815,-1.0186,-1.1146,-1.2777,-1.5368,-1.8914,-2.1063,0.0,0.0,0.0,0.0,0.0,0.0,0.0,0.0,0.0,0.0,0.0,0.0,0.0,0.0,0.0,0.0,0.0,0.0,0.0,0.0,0.0,0.0,0.0,0.0,0.0,0.0,0.0,0.0,0.0,0.0,0.0,0.0,0.0,0.0,0.0,0.0,0.0,0.0,0.0,0.0,0.0,0.0,0.0,0.0,0.0,0.0,0.0,0.0,-1.6838,-1.8944,-1.9672,-2.0758,-2.1062,0.0,0.0,0.0,0.0,0.0,0.0,-2.7,-2.759,-2.8881,-3.1166,-3.1227,-3.1562,-3.2324,-3.3812,-3.4556,-3.4556,-3.4167,-3.4535,-3.5616,-3.6417,-3.6755,-3.6738,-3.6343,-3.6174,-3.5988,-3.3389,-3.1004,-2.8687,-2.5744,-2.4814,-2.5305,-2.6793,-3.0615,-3.4619,0.0,0.0,0.0,0.0,0.0,0.0,0.0,0.0,0.0,0.0,0.0,-1.0227,-1.0961,0.0,-1.2821,0.0,0.0,0.0,0.0,0.0,0.0,-1.1218,-1.0656,-1.0822,-1.183,-1.577,-1.8898,0.0,0.0,0.0,0.0,0.0,0.0,0.0,0.0,0.0,0.0,0.0,0.0,0.0,0.0,0.0,0.0,0.0,0.0,0.0,0.0,0.0,0.0,0.0,0.0,0.0,0.0,0.0,0.0,0.0,0.0,0.0,0.0,0.0,0.0,0.0,0.0,0.0,0.0,0.0,0.0,0.0,0.0,0.0,0.0,0.0,0.0,0.0,0.0,0.0,0.0,0.0,0.0,-2.204,-2.402,0.0,0.0,0.0,0.0,-2.6268,-2.6682,-2.7758,-2.979,-3.0584,-3.1684,-3.3207,-3.459,-3.5329,-3.538,-3.6907,-3.7686,-3.7669,-3.6174,-3.5532,-3.5701,-3.8565,-3.9876,-3.9808,-3.8396,-3.7787,-3.7669,-3.6039,-3.5295,-3.4856,-3.1901,-3.1613,-3.3034,-3.4484,-3.4382,-3.3694,0.0,0.0,0.0,-0.888,-0.8897,-0.8897,-0.8897,-0.8897,-0.8897,-0.8897,-0.9952,0.0,0.0,0.0,0.0,0.0,0.0,0.0,0.0,0.0,-1.3197,-1.2791,-1.2566,-1.3601,-1.6022,-1.8751,-2.0677,0.0,0.0,0.0,0.0,0.0,0.0,0.0,0.0,0.0,0.0,0.0,0.0,0.0,0.0,0.0,0.0,0.0,0.0,0.0,0.0,0.0,0.0,0.0,0.0,0.0,0.0,0.0,0.0,0.0,0.0,0.0,0.0,0.0,0.0,0.0,0.0,0.0,0.0,0.0,0.0,0.0,0.0,0.0,0.0,0.0,0.0,0.0,0.0,0.0,0.0,0.0,0.0,-2.4932,-2.6691,0.0,0.0,-2.7759,-2.8421,-2.8856,-2.9864,-3.1172,-3.2831,-3.3643,-3.4742,-3.6265,-3.6823,-3.7246,-3.7533,-3.8091,-3.8684,-3.9292,-3.8751,-3.8497,-3.8531,-3.9622,-4.0096,-4.0028,-3.8853,-3.8362,-3.8294,-3.7425,-3.6495,-3.5498,-3.4433,-3.4349,-3.4805,-3.4726,-3.4759,-3.4754,-0.8616,-0.8699,0.0,-0.8869,-0.8897,-0.8897,-0.8897,-0.8897,-0.8999,-0.9241,-1.0578,-1.1891,0.0,0.0,0.0,0.0,0.0,0.0,0.0,0.0,-1.4694,-1.4289,-1.4598,-1.6138,-1.9056,-2.0702,0.0,0.0,0.0,0.0,0.0,0.0,0.0,0.0,0.0,0.0,0.0,0.0,0.0,0.0,0.0,0.0,-1.6745,0.0,0.0,0.0,0.0,0.0,0.0,0.0,0.0,0.0,0.0,0.0,0.0,0.0,0.0,0.0,0.0,0.0,0.0,0.0,0.0,0.0,0.0,0.0,0.0,0.0,0.0,0.0,0.0,0.0,0.0,0.0,0.0,0.0,0.0,0.0,-2.5808,-2.7178,-2.9203,-3.0457,-3.039,-3.1104,-3.1799,-3.2324,-3.3275,-3.4358,-3.5571,-3.6113,-3.6952,-3.8227,-3.8459,-3.8815,-3.9378,-3.9212,-3.9428,-4.0096,-4.0096,-4.0096,-4.0096,-4.0096,-4.0096,-4.0062,-3.9394,-3.9106,-3.9073,-3.8768,-3.7889,-3.6698,-3.6259,-3.6113,-3.6079,-3.5791,-3.5808,-3.5842,-0.861,-0.8699,-0.8753,-0.8869,-0.8891,-0.8891,-0.8897,-0.8891,-0.9157,-0.9899,-1.1359,0.0,0.0,0.0,0.0,0.0,0.0,0.0,0.0,-1.6441,-1.5646,-1.5697,-1.6681,-1.8274,-2.0506,0.0,0.0,0.0,0.0,0.0,0.0,0.0,0.0,0.0,0.0,0.0,0.0,0.0,0.0,0.0,0.0,0.0,-1.9205,0.0,0.0,0.0,0.0,0.0,0.0,0.0,0.0,0.0,0.0,0.0,0.0,0.0,0.0,0.0,0.0,0.0,0.0,0.0,0.0,0.0,0.0,0.0,0.0,0.0,0.0,0.0,0.0,0.0,0.0,0.0,0.0,0.0,-2.2767,-2.6398,-2.897,-2.8771,-3.1555,-3.3417,-3.323,-3.4066,-3.5238,-3.6728,-3.6829,-3.7144,-3.7889,-3.7939,-3.8278,-3.9054,-3.9565,-4.0175,-4.0903,-4.0392,-4.0121,-4.0121,-4.0121,-4.0121,-4.0146,-4.0171,-4.0171,-4.0171,-4.0171,-4.0146,-4.0121,-4.0121,-3.969,-3.8903,-3.7635,-3.7144,-3.7229,-3.8227,-3.7838,-3.6728,-0.8425,-0.8592,-0.8753,-0.8869,-0.8823,-0.8789,-0.888,-0.8823,-0.905,-0.9887,-1.1806,0.0,0.0,0.0,0.0,0.0,0.0,0.0,-1.78,-1.6915,-1.6874,-1.7958,-1.951,0.0,-2.1782,0.0,0.0,0.0,0.0,0.0,0.0,0.0,0.0,0.0,0.0,0.0,0.0,0.0,0.0,0.0,0.0,0.0,-2.1005,0.0,0.0,0.0,0.0,0.0,0.0,0.0,0.0,0.0,0.0,0.0,0.0,0.0,0.0,0.0,0.0,0.0,0.0,0.0,0.0,0.0,0.0,0.0,0.0,0.0,0.0,0.0,0.0,0.0,0.0,0.0,0.0,-2.7973,-2.657,-2.8647,-3.0746,-3.1937,-3.4151,-3.5633,-3.5774,-3.6491,-3.7144,-3.7567,-3.7601,-3.7922,-3.865,-3.87,-3.9207,-4.0352,-4.0516,-4.0695,-4.0903,-4.0756,-4.0679,-4.0679,-4.0844,-4.0897,-4.092,-4.1508,-4.1764,-4.1764,-4.1464,-4.1082,-4.0679,-4.0679,-4.0329,-3.9723,-3.8802,-3.8142,-3.7719,-3.799,-3.7889,-3.7567,-0.8361,-0.8561,-0.8753,-0.8869,-0.884,-0.8812,-0.8886,-0.884,-0.918,-1.0305,-1.1915,0.0,0.0,0.0,0.0,0.0,0.0,0.0,-1.6898,-1.705,-1.8025,-1.9942,0.0,0.0,0.0,0.0,0.0,0.0,0.0,0.0,0.0,0.0,0.0,0.0,0.0,0.0,0.0,0.0,0.0,0.0,0.0,0.0,-2.2712,-2.1868,-2.097,-2.0052,-1.9355,-1.8805,-1.8302,-1.7624,0.0,0.0,0.0,0.0,0.0,0.0,0.0,0.0,0.0,0.0,0.0,0.0,0.0,0.0,0.0,0.0,0.0,0.0,0.0,0.0,0.0,0.0,0.0,0.0,-2.8917,-3.0714,-3.0624,-3.16,-3.3018,-3.4812,-3.5924,-3.705,-3.8272,-3.8585,-3.8734,-3.8809,-3.9034,-3.9347,-3.9775,-3.9809,-4.0289,-4.1251,-4.1291,-4.1291,-4.1291,-4.1291,-4.1291,-4.1291,-4.1155,-4.1201,-4.1468,-4.1664,-4.1916,0.0,-4.1895,-4.1599,-4.1291,-4.1291,-4.1105,0.0,0.0,0.0,0.0,0.0,-3.8362,-3.8328,-0.8393,-0.8573,-0.8753,-0.8869,-0.8852,-0.8835,-0.8891,-0.8869,-0.9398,-1.0893,0.0,0.0,0.0,0.0,0.0,0.0,0.0,0.0,0.0,0.0,0.0,-2.1451,-2.1434,0.0,0.0,0.0,0.0,0.0,0.0,0.0,0.0,0.0,0.0,0.0,0.0,0.0,0.0,0.0,0.0,0.0,0.0,0.0,-2.4116,-2.341,-2.3134,-2.2933,-2.1447,-2.0914,-2.0694,-1.9263,0.0,0.0,0.0,0.0,0.0,0.0,0.0,0.0,0.0,0.0,0.0,0.0,0.0,0.0,0.0,0.0,0.0,0.0,0.0,0.0,0.0,0.0,0.0,0.0,-3.0937,-3.2189,-3.4512,-3.4808,-3.5398,-3.7131,-3.7234,-3.8094,-4.0394,-4.0198,-3.9996,-4.0178,-4.0631,-4.0903,-4.0903,0.0,0.0,0.0,0.0,-4.1814,-4.1895,-4.1814,-4.1814,-4.1895,-4.1358,-4.1424,-4.1961,-4.1429,-4.1473,-4.1982,-4.1982,-4.1958,-4.1895,-4.1895,-4.1832,-4.1599,-4.0666,-4.0254,-4.0094,-3.9466,-3.918,-3.9022,-0.8598,-0.8675,-0.8753,-0.8869,-0.8549,-0.8396,-0.8841,-0.8672,-0.912,-1.0865,-1.1806,0.0,0.0,0.0,0.0,0.0,0.0,0.0,0.0,0.0,0.0,0.0,0.0,0.0,0.0,0.0,0.0,0.0,0.0,0.0,0.0,0.0,0.0,0.0,0.0,0.0,0.0,0.0,0.0,0.0,0.0,0.0,-2.4171,-2.4025,-2.3969,-2.3933,-2.3602,-2.3474,-2.3437,-2.3125,-2.2161,-2.1023,-2.0711,0.0,0.0,0.0,0.0,0.0,0.0,0.0,0.0,0.0,0.0,0.0,0.0,0.0,0.0,0.0,0.0,0.0,0.0,0.0,0.0,-3.2484,-3.3988,-3.5406,-3.6811,-3.6642,-3.6643,-3.7447,-3.8744,-3.9854,-4.0615,-4.0674,-4.0701,-4.0739,-4.0833,-4.0903,-4.0903,-4.1358,0.0,-4.25,-4.2041,-4.2021,-4.2519,-4.2041,-4.2041,-4.2519,0.0,0.0,-4.3178,-4.3051,-4.3051,-4.3178,-4.3178,-4.294,-4.2537,-4.2537,-4.1958,-4.111,-4.1358,-4.1155,-4.0716,-4.0578,-4.0268,-3.9876,-0.8663,-0.8748,-0.88,-0.88,-0.8581,-0.8485,-0.8765,-0.8658,-0.9024,-1.037,-1.0903,0.0,0.0,0.0,0.0,0.0,0.0,0.0,0.0,0.0,0.0,0.0,0.0,0.0,0.0,0.0,0.0,0.0,0.0,0.0,0.0,0.0,0.0,0.0,0.0,0.0,0.0,0.0,0.0,0.0,0.0,0.0,-2.4768,-2.4355,-2.419,-2.419,-2.419,-2.419,-2.419,-2.419,-2.3667,-2.2932,-2.252,-2.1547,-2.0236,0.0,0.0,0.0,0.0,0.0,0.0,0.0,0.0,0.0,0.0,0.0,0.0,0.0,0.0,-2.7934,-3.0356,0.0,-3.2724,-3.529,-3.6203,-3.7063,-3.8415,-3.8788,-3.9089,-3.9501,-3.983,-4.0338,-4.1159,-4.1584,-4.1556,-4.0949,-4.1468,-4.181,-4.181,-4.2101,-4.2501,-4.3069,-4.2541,-4.24,-4.2711,-4.2382,-4.2382,-4.2711,-4.2711,-4.2976,-4.3479,-4.3214,-4.325,-4.3497,-4.3214,-4.2939,-4.2692,-4.2362,-4.1895,-4.138,-4.1686,-4.1263,-4.0497,-4.0497,-4.0336,-4.0096,-0.8675,-0.8812,-0.8858,-0.8754,-0.8693,-0.8669,-0.8735,-0.8717,-0.9018,-0.9881,-1.0001,-1.0278,-1.1011,-1.1103,-1.1221,0.0,0.0,0.0,0.0,0.0,0.0,0.0,0.0,0.0,0.0,0.0,0.0,0.0,0.0,0.0,0.0,0.0,0.0,0.0,0.0,0.0,0.0,0.0,0.0,0.0,0.0,0.0,-2.5301,-2.4511,-2.419,-2.419,-2.419,-2.4098,-2.3988,-2.4153,-2.4098,-2.3878,-2.3391,-2.3134,-2.2602,-2.0611,-2.0262,0.0,0.0,0.0,0.0,0.0,0.0,0.0,0.0,0.0,-2.6612,-2.9372,-3.0179,-3.1182,-3.3662,-3.3854,-3.4578,-3.7504,-3.7845,-3.8263,-3.9765,-4.0491,-4.1053,-4.1667,-4.0775,-4.0629,-4.1994,-4.2382,-4.2162,-4.1313,-4.2142,-4.2655,-4.2519,-4.2732,-4.2995,-4.3321,-4.292,-4.275,-4.2864,-4.275,-4.275,-4.2864,-4.2864,-4.3069,-4.3497,-4.305,-4.3087,-4.348,-4.3032,-4.2864,-4.2789,-4.2083,-4.181,-4.1789,-4.1552,-4.0908,-4.0121,-4.0229,-4.0179,-4.0096,-0.8699,-0.8812,-0.8891,-0.8875,-0.863,-0.8532,-0.8829,-0.8771,-0.9018,-0.9881,-1.0001,-1.0278,-1.1011,-1.1103,-1.1645,0.0,0.0,0.0,0.0,0.0,0.0,0.0,0.0,0.0,0.0,0.0,0.0,0.0,0.0,0.0,0.0,0.0,0.0,0.0,0.0,0.0,0.0,0.0,0.0,0.0,0.0,0.0,-2.5301,-2.4511,-2.419,-2.419,-2.419,-2.3749,-2.3244,-2.3951,-2.3731,-2.3244,-2.3878,-2.3584,-2.2951,-2.2676,0.0,-2.0639,-2.1225,-2.2042,-2.3061,-2.4493,-2.5529,-2.7134,0.0,0.0,-3.1959,-3.3036,-3.4449,-3.5436,-3.5333,-3.6791,-3.8069,-3.8306,-3.886,-3.9726,-4.1103,-4.0503,-4.0591,-4.2362,-4.1767,-4.1756,-4.3176,-4.2464,-4.208,-4.248,-4.2616,-4.246,-4.1937,-4.2865,-4.3214,-4.2807,-4.2731,-4.292,-4.341,-4.2939,-4.2939,-4.341,-4.341,-4.3444,-4.3515,-4.3427,-4.3444,-4.3497,-4.3427,-4.341,-4.3321,-4.2246,-4.181,-4.1703,-4.0689,-4.0204,-4.0171,-4.0631,-4.0521,-4.0096,-0.8699,-0.8812,-0.8897,-0.8897,-0.873,-0.8622,-0.876,-0.8741,-0.8858,-0.9308,-0.936,-0.9478,-0.9789,-0.9823,-1.0409,-1.1932,-1.3168,0.0,0.0,0.0,0.0,0.0,0.0,0.0,0.0,0.0,0.0,0.0,0.0,0.0,0.0,0.0,0.0,0.0,0.0,0.0,0.0,0.0,0.0,0.0,0.0,0.0,-2.5301,-2.4511,-2.419,-2.419,-2.419,-2.3676,0.0,0.0,-2.3676,-2.3134,-2.3951,-2.3657,-2.3006,-2.3006,-2.2841,0.0,-2.4805,0.0,0.0,0.0,-2.9494,-3.1237,-3.2908,-3.3647,-3.4362,-3.5679,-3.6258,-3.6705,-3.7257,-3.7614,-3.8169,0.0,-3.9745,-4.0484,-4.199,-4.166,-4.1555,-4.2359,-4.185,-4.1699,-4.2433,-4.2696,-4.2753,-4.2693,-4.2995,-4.3069,-4.2791,-4.3232,-4.3392,-4.3178,-4.3178,-4.3268,-4.3497,-4.3268,-4.3268,-4.3515,-4.3515,-4.3515,-4.3515,-4.3515,-4.3123,-4.2542,-4.2884,-4.2638,-4.1964,-4.1473,-4.1291,-4.1201,-4.0392,-4.0096,-4.0121,-4.0343,-4.0286,-4.0096,-0.8748,-0.884,-0.8897,-0.8897,-0.8823,-0.8748,-0.8748,-0.8748,-0.8789,-0.888,-0.8897,-0.8897,-0.8897,-0.8897,-0.9501,-1.0968,-1.2322,-1.4416,0.0,0.0,0.0,0.0,0.0,0.0,0.0,0.0,0.0,0.0,0.0,0.0,0.0,0.0,0.0,0.0,0.0,0.0,0.0,0.0,0.0,0.0,0.0,0.0,-2.5007,-2.441,-2.4061,-2.3878,-2.3878,-2.3345,0.0,0.0,-2.2786,-2.2419,-2.2997,-2.2942,-2.2758,-2.3189,-2.4061,-2.5236,-2.6979,0.0,0.0,-3.0613,-3.2522,-3.4247,-3.4706,-3.5275,-3.6039,-3.7342,-3.7428,-3.7444,-3.816,-3.8093,0.0,-3.9784,-4.0346,-4.1088,-4.2495,-4.2323,-4.2153,-4.2391,-4.1959,-4.1755,-4.2011,-4.279,-4.3178,-4.2939,-4.3268,-4.3427,-4.3304,-4.3427,-4.3427,-4.3286,-4.3427,-4.3515,-4.3515,-4.3515,-4.3515,-4.3515,-4.3515,-4.3515,-4.3515,-4.3515,-4.3051,-4.2286,-4.2733,-4.2424,-4.1625,-4.1451,-4.1313,-4.1087,-4.0546,-4.0229,-4.0096,-4.0096,-4.0096,-4.0096,-0.8891,-0.8891,-0.8897,-0.8897,-0.8891,-0.8891,-0.8891,-0.8891,-0.8891,-0.8897,-0.8897,-0.8897,-0.8897,-0.8897,-0.9501,-1.0968,-1.1857,-1.3821,-1.7372,-1.8467,0.0,0.0,0.0,0.0,0.0,0.0,0.0,0.0,0.0,0.0,0.0,0.0,0.0,0.0,0.0,0.0,0.0,0.0,0.0,0.0,0.0,0.0,-2.4226,-2.4208,-2.3731,-2.3043,-2.3043,0.0,0.0,0.0,-2.0603,-2.0576,-2.0594,-2.118,0.0,-2.3712,-2.5291,0.0,0.0,0.0,-3.054,-3.2124,-3.3757,-3.5389,-3.7015,-3.7419,-3.75,-3.7831,-3.8298,-3.8348,-3.7433,-3.8666,-3.9754,-3.9566,-4.0568,-4.1682,-4.2567,-4.1971,-4.1737,-4.2586,-4.2431,-4.2373,0.0,-4.2693,-4.2939,-4.3427,-4.3479,-4.3268,-4.275,-4.3214,-4.325,-4.275,-4.3232,-4.3515,-4.3515,-4.3515,-4.3515,-4.3515,-4.3515,-4.3515,-4.3515,-4.3515,-4.3479,-4.3444,-4.3462,-4.3444,-4.3374,-4.2846,-4.2302,-4.1707,-4.111,-4.0552,-4.0096,-4.0096,-4.0096,-4.0096,-0.8897,-0.8897,-0.8897,-0.8897,-0.8897,-0.8897,-0.8897,-0.8897,-0.8897,-0.8897,-0.8897,0.0,0.0,0.0,0.0,0.0,-1.1623,-1.3315,-1.5409,-1.7686,0.0,0.0,0.0,0.0,0.0,0.0,0.0,0.0,0.0,0.0,0.0,0.0,0.0,0.0,0.0,0.0,0.0,0.0,0.0,0.0,0.0,0.0,-2.419,-2.419,-2.3694,-2.2933,0.0,0.0,0.0,0.0,0.0,0.0,-2.1813,0.0,0.0,-2.4365,0.0,0.0,0.0,0.0,-3.232,-3.4504,-3.5862,-3.6945,-3.8046,-3.8303,-3.8181,-3.7731,-3.7064,-3.6588,-3.659,-3.6805,-3.7453,-3.8923,-4.0311,-4.154,-4.2551,-4.2287,-4.2101,-4.2393,-4.2349,0.0,0.0,0.0,0.0,-4.3497,-4.3515,-4.3427,-4.3232,-4.341,-4.341,-4.3232,-4.341,-4.3515,-4.3515,-4.3515,-4.3515,-4.3515,-4.3515,-4.3515,-4.3515,-4.3515,-4.3322,-4.2995,-4.3357,-4.3286,-4.2958,-4.277,-4.2577,-4.2302,-4.1291,-4.078,-4.0601,-4.0229,-4.0096,-4.0096,-0.8897,-0.8897,-0.8897,-0.8897,-0.8897,0.0,0.0,0.0,0.0,0.0,0.0,0.0,0.0,0.0,0.0,0.0,0.0,-1.2714,-1.4211,0.0,0.0,0.0,0.0,0.0,0.0,0.0,0.0,0.0,0.0,0.0,0.0,0.0,0.0,0.0,0.0,0.0,0.0,0.0,0.0,0.0,0.0,0.0,-2.3749,-2.3456,-2.2832,0.0,0.0,0.0,0.0,0.0,0.0,0.0,0.0,0.0,0.0,0.0,0.0,-2.8466,0.0,-3.2632,-3.3977,-3.6174,-3.7327,-3.8065,-3.8579,-3.8487,-3.7998,-3.6985,-3.5772,-3.4948,-3.5122,-3.4775,-3.5304,-3.7864,-3.9381,-4.0732,-4.2174,-4.2341,-4.2415,-4.269,-4.2488,0.0,0.0,0.0,0.0,-4.3515,-4.3515,-4.3515,-4.3515,-4.3515,-4.3515,-4.3515,-4.3515,-4.3515,-4.3515,-4.3515,-4.3515,-4.3515,-4.3515,-4.3515,-4.3515,-4.3515,-4.3303,-4.3013,-4.3357,-4.3303,-4.2976,-4.2976,-4.2883,-4.2616,-4.1853,-4.1291,-4.0856,-4.0504,-4.0262,-4.0096,-0.8897,-0.8897,-0.8897,0.0,0.0,0.0,0.0,0.0,0.0,0.0,0.0,0.0,0.0,0.0,0.0,0.0,0.0,0.0,-1.3809,0.0,0.0,0.0,0.0,-1.9101,-1.9666,-2.0218,0.0,0.0,0.0,0.0,0.0,0.0,0.0,0.0,0.0,0.0,0.0,0.0,0.0,0.0,0.0,0.0,-2.2859,-2.2088,0.0,0.0,0.0,0.0,0.0,0.0,0.0,0.0,0.0,0.0,0.0,0.0,0.0,-3.0687,-3.2344,-3.3922,-3.5518,-3.7162,-3.8138,-3.8689,-3.8652,-3.801,-3.7025,-3.5643,-3.4437,-3.3465,0.0,0.0,-3.3556,-3.6485,-3.8017,-3.9537,-4.1614,-4.2157,-4.2635,0.0,0.0,0.0,0.0,0.0,0.0,-4.357,0.0,-4.3515,-4.3515,-4.3551,-4.3551,-4.3515,-4.3588,-4.3606,-4.3552,-4.3552,-4.3551,-4.3515,-4.3515,-4.3515,-4.3515,-4.3515,-4.3515,-4.3515,-4.3515,-4.3515,-4.3515,-4.3515,-4.3196,-4.275,-4.2711,-4.1979,-4.0949,-4.0903,-4.0552,-4.0096,0.0,0.0,0.0,0.0,0.0,0.0,0.0,0.0,0.0,0.0,0.0,0.0,0.0,0.0,0.0,0.0,0.0,0.0,0.0,0.0,0.0,0.0,0.0,0.0,0.0,-2.0033,0.0,0.0,0.0,0.0,0.0,0.0,0.0,0.0,0.0,0.0,0.0,0.0,0.0,0.0,0.0,0.0,-2.2088,0.0,0.0,0.0,0.0,0.0,0.0,0.0,0.0,0.0,0.0,0.0,-2.8319,0.0,0.0,-3.2472,-3.4743,-3.6083,-3.711,-3.8138,-3.856,-3.8542,-3.7951,-3.7165,-3.5981,-3.3799,-3.2151,-3.0888,-3.0173,0.0,0.0,-3.6063,-3.8734,0.0,-4.2832,-4.3138,0.0,0.0,0.0,-4.3276,-4.3478,-4.3515,0.0,0.0,-4.3828,-4.3515,-4.3515,-4.4066,-4.4121,-4.3533,-4.4654,-4.5002,-4.4397,-4.4397,-4.4085,-4.3515,-4.3515,-4.3515,-4.3515,-4.3515,-4.3515,-4.3515,-4.3515,-4.3515,-4.3515,-4.3515,-4.3427,-4.325,-4.2864,-4.2241,-4.1512,-4.1064,-4.0552,-4.0096,0.0,0.0,0.0,0.0,0.0,0.0,0.0,0.0,0.0,0.0,0.0,0.0,0.0,0.0,0.0,0.0,0.0,0.0,0.0,0.0,0.0,0.0,0.0,0.0,0.0,0.0,0.0,0.0,0.0,0.0,0.0,0.0,0.0,0.0,0.0,0.0,0.0,0.0,0.0,0.0,0.0,0.0,0.0,0.0,0.0,0.0,0.0,0.0,0.0,0.0,0.0,-2.5321,-2.6577,-2.8278,-3.0134,-3.192,0.0,-3.4596,-3.634,-3.7419,-3.8138,-3.8597,-3.8432,-3.7863,-3.667,-3.5514,-3.399,-3.1537,-2.9739,0.0,-2.8033,0.0,0.0,0.0,0.0,0.0,-4.2285,-4.3101,-4.3515,0.0,-4.3515,0.0,-4.3515,-4.3809,-4.4213,0.0,-4.4287,-4.4176,-4.4525,-4.4984,-4.5021,-4.4562,-4.5424,-4.5681,-4.5241,-4.4892,-4.447,-4.4011,-4.3663,-4.3515,-4.3515,-4.3515,-4.3515,-4.3515,0.0,-4.3515,-4.3515,-4.3515,-4.3515,-4.3462,-4.3178,-4.2694,-4.2121,-4.1512,-4.0943,-4.0417,0.0,0.0,0.0,0.0,0.0,0.0,0.0,0.0,0.0,0.0,0.0,0.0,0.0,0.0,0.0,0.0,0.0,0.0,0.0,0.0,0.0,0.0,0.0,0.0,0.0,0.0,0.0,0.0,0.0,0.0,0.0,0.0,0.0,0.0,0.0,0.0,0.0,0.0,0.0,0.0,0.0,0.0,0.0,0.0,0.0,0.0,0.0,0.0,0.0,0.0,-2.5339,-2.5738,-2.8461,-3.0176,-3.1582,-3.3547,-3.5165,-3.6486,-3.7419,-3.8175,-3.8707,-3.8707,-3.801,-3.6905,-3.5224,-3.3518,-3.1592,-2.9189,0.0,0.0,-2.63,0.0,-2.8888,-3.239,0.0,-3.8261,-4.1107,-4.2575,-4.3386,-4.3496,-4.3515,-4.3515,-4.3515,-4.4121,-4.4599,-4.4691,-4.4691,-4.5002,-4.57,-4.5847,-4.5902,-4.5902,-4.5792,-4.5736,-4.5736,-4.5057,-4.4636,-4.4544,-4.3828,-4.3515,-4.3515,-4.3515,-4.3515,-4.3515,0.0,0.0,-4.3515,-4.3515,-4.3515,-4.3515,-4.3515,-4.3124,-4.2519,-4.1979,-4.138,-4.0726,0.0,0.0,0.0,0.0,0.0,0.0,0.0,0.0,0.0,0.0,-0.976,-0.9532,0.0,0.0,0.0,0.0,0.0,0.0,0.0,0.0,0.0,0.0,0.0,0.0,0.0,0.0,0.0,0.0,0.0,0.0,0.0,0.0,0.0,0.0,0.0,0.0,0.0,0.0,0.0,0.0,0.0,0.0,0.0,0.0,0.0,0.0,0.0,0.0,0.0,0.0,-2.6661,-2.8576,-3.0406,-3.2043,-3.3616,-3.5353,-3.6064,-3.6615,-3.8083,-3.8597,-3.8707,-3.8707,-3.7606,-3.6064,-3.4394,-3.2247,0.0,0.0,0.0,-2.5393,-2.474,-2.6129,0.0,-3.2085,0.0,0.0,0.0,0.0,-4.2745,0.0,0.0,0.0,0.0,0.0,0.0,0.0,0.0,0.0,-4.4893,-4.5535,-4.5902,-4.5902,-4.5259,-4.4911,-4.4911,-4.4782,-4.4378,-4.3699,-4.357,-4.3515,-4.3515,-4.3515,-4.3515,-4.3515,0.0,0.0,-4.3515,-4.3515,-4.3515,-4.3515,-4.3515,-4.2865,-4.1937,-4.1853,-4.1145,-4.0229,0.0,0.0,0.0,0.0,0.0,0.0,0.0,0.0,-1.113,-1.2669,-1.2048,-1.1685,-1.2334,-1.2116,0.0,0.0,0.0,0.0,0.0,0.0,0.0,0.0,0.0,0.0,0.0,0.0,0.0,0.0,0.0,0.0,0.0,0.0,0.0,0.0,0.0,0.0,0.0,0.0,0.0,0.0,0.0,0.0,0.0,0.0,0.0,0.0,0.0,0.0,0.0,0.0,-2.6098,-2.818,-3.0632,-3.2368,-3.3864,-3.575,-3.6597,-3.7165,-3.8377,-3.8707,-3.8707,-3.8707,-3.7147,-3.5078,-3.3018,0.0,0.0,0.0,0.0,-2.4658,-2.4263,0.0,0.0,0.0,0.0,0.0,0.0,0.0,0.0,0.0,0.0,0.0,0.0,0.0,0.0,0.0,0.0,0.0,-4.5333,-4.5681,-4.5902,-4.5902,-4.5535,-4.5333,-4.5333,-4.4911,-4.4525,-4.4121,-4.3699,-4.3515,-4.3515,-4.3515,-4.3515,-4.3515,-4.3515,0.0,-4.3515,-4.3515,-4.3515,-4.3515,-4.3515,-4.2995,-4.2223,-4.1916,-4.1263,-4.0473,0.0,0.0,0.0,0.0,0.0,0.0,0.0,-1.1147,-1.2111,-1.4216,-1.411,-1.3917,-1.4078,-1.331,-1.3005,0.0,0.0,0.0,0.0,0.0,0.0,0.0,0.0,0.0,0.0,0.0,0.0,0.0,0.0,0.0,0.0,0.0,0.0,0.0,0.0,0.0,0.0,0.0,0.0,0.0,0.0,0.0,0.0,0.0,0.0,0.0,0.0,0.0,0.0,0.0,-2.4649,-2.6337,-2.9212,-3.123,-3.294,-3.4934,-3.6193,-3.7165,-3.8175,-3.8579,-3.867,-3.8487,-3.6582,-3.4105,-3.1696,-2.9274,0.0,0.0,0.0,-2.419,-2.419,0.0,0.0,0.0,0.0,0.0,0.0,0.0,0.0,0.0,0.0,0.0,0.0,0.0,0.0,0.0,0.0,0.0,-4.5626,-4.548,-4.5388,-4.5388,-4.5388,-4.5388,-4.5388,-4.4764,-4.4452,-4.4452,-4.3791,-4.3515,-4.3515,-4.3515,-4.3515,-4.3515,-4.3515,0.0,0.0,-4.3515,-4.3515,-4.3515,-4.3515,-4.3178,-4.2635,-4.2162,-4.1534,-4.085,0.0,0.0,0.0,0.0,0.0,0.0,0.0,-1.1292,-1.2754,-1.4301,-1.4606,-1.4943,-1.5617,-1.4485,-1.3659,0.0,0.0,0.0,0.0,0.0,0.0,0.0,0.0,0.0,0.0,0.0,0.0,0.0,0.0,0.0,0.0,0.0,0.0,0.0,0.0,0.0,0.0,0.0,0.0,0.0,0.0,0.0,0.0,0.0,0.0,0.0,0.0,0.0,0.0,0.0,0.0,-2.363,-2.5393,-2.8033,-3.0803,-3.2472,0.0,0.0,-3.7165,-3.8138,-3.8524,-3.7786,-3.5734,-3.3275,-3.087,0.0,0.0,0.0,-2.419,-2.419,-2.419,0.0,0.0,0.0,0.0,0.0,0.0,0.0,0.0,0.0,0.0,0.0,0.0,0.0,0.0,0.0,0.0,0.0,0.0,-4.4121,-4.3735,-4.3735,-4.3735,-4.3735,-4.3735,-4.3662,-4.3608,-4.3608,-4.3551,-4.3515,-4.3515,-4.3515,-4.3515,-4.3515,-4.3515,0.0,0.0,-4.3515,-4.3515,-4.3515,-4.3515,-4.3178,-4.2693,-4.2635,-4.1895,-4.088,0.0,0.0,0.0,0.0,0.0,0.0,-1.0487,-1.118,-1.228,-1.425,-1.4576,-1.4778,-1.5193,-1.4387,-1.3788,0.0,0.0,0.0,0.0,0.0,0.0,0.0,0.0,0.0,0.0,0.0,0.0,0.0,0.0,0.0,0.0,0.0,0.0,0.0,0.0,0.0,0.0,0.0,0.0,0.0,0.0,0.0,0.0,0.0,0.0,0.0,0.0,0.0,0.0,0.0,0.0,0.0,-2.2409,-2.4355,0.0,0.0,-3.2289,-3.4032,-3.6193,-3.7382,-3.7915,-3.7584,-3.5638,-3.3164,-3.076,0.0,0.0,-2.452,-2.419,-2.419,-2.419,-2.4094,-2.4449,0.0,-2.5958,0.0,0.0,0.0,0.0,0.0,0.0,0.0,0.0,0.0,0.0,0.0,0.0,0.0,0.0,-4.3663,-4.3515,-4.3515,-4.3515,-4.3515,-4.3515,-4.3515,-4.3515,-4.3515,-4.3515,-4.3515,-4.3515,-4.3515,-4.3515,-4.3515,-4.3515,0.0,0.0,-4.3515,-4.3515,-4.3515,-4.3515,-4.3178,-4.2711,-4.2711,-4.2162,-4.1402,0.0,0.0,0.0,0.0,0.0,-0.9315,-1.0572,-1.0961,-1.1756,-1.3608,-1.3844,-1.3982,-1.434,-1.3609,-1.3208,-1.3531,0.0,0.0,0.0,0.0,0.0,0.0,0.0,0.0,0.0,0.0,0.0,0.0,0.0,0.0,0.0,0.0,0.0,0.0,0.0,0.0,0.0,0.0,0.0,0.0,0.0,0.0,0.0,0.0,0.0,0.0,0.0,0.0,0.0,0.0,0.0,0.0,0.0,0.0,0.0,0.0,-3.0174,-3.2208,-3.4568,-3.5897,-3.6585,-3.6435,-3.4724,-3.2467,0.0,0.0,-2.586,-2.4483,-2.419,-2.419,-2.419,-2.419,-2.4286,0.0,-2.4571,-2.5684,-2.8905,0.0,0.0,0.0,0.0,0.0,0.0,0.0,0.0,0.0,0.0,0.0,0.0,-4.341,-4.3515,-4.3515,-4.3515,-4.3515,-4.3515,-4.3515,-4.3515,-4.3515,-4.3515,-4.3515,-4.3515,-4.3515,-4.3515,-4.3515,0.0,0.0,0.0,-4.3515,-4.3515,-4.3515,-4.3515,-4.3268,-4.2939,-4.2939,-4.2578,-4.2018,0.0,0.0,0.0,0.0,0.0,0.0,0.0,-1.0639,-1.1383,-1.2212,-1.2314,-1.2609,-1.3328,-1.2215,-1.1775,-1.2637,0.0,0.0,0.0,0.0,0.0,0.0,0.0,0.0,0.0,0.0,0.0,0.0,0.0,0.0,0.0,0.0,0.0,0.0,0.0,0.0,0.0,0.0,0.0,0.0,0.0,0.0,0.0,0.0,0.0,0.0,0.0,0.0,0.0,0.0,0.0,0.0,0.0,0.0,0.0,0.0,-2.7444,-3.0079,-3.2101,-3.3555,-3.4413,-3.3945,-3.2614,-3.0791,0.0,-2.6568,-2.5172,-2.4373,-2.419,-2.419,-2.419,-2.419,-2.419,-2.4208,-2.4879,-2.6186,0.0,0.0,0.0,0.0,0.0,0.0,0.0,0.0,0.0,0.0,0.0,0.0,0.0,-4.3214,-4.3515,-4.3515,-4.3515,-4.3515,-4.3515,-4.3515,-4.3515,-4.3515,-4.3515,-4.3515,-4.3515,-4.3515,-4.3515,0.0,0.0,0.0,0.0,-4.3515,-4.3515,-4.3515,-4.3515,-4.3497,-4.3479,-4.3479,-4.316,-4.2692,0.0,0.0,0.0,0.0,0.0,0.0,0.0,-0.945,-0.9867,-1.0633,-1.0734,-1.1004,-1.1746,-1.1075,-1.0695,-1.0969,0.0,0.0,0.0,0.0,0.0,0.0,0.0,0.0,0.0,0.0,0.0,0.0,0.0,0.0,0.0,0.0,0.0,0.0,0.0,0.0,0.0,0.0,0.0,0.0,0.0,0.0,0.0,0.0,0.0,0.0,0.0,0.0,0.0,0.0,0.0,0.0,0.0,0.0,0.0,-2.184,-2.4268,0.0,-2.8847,-3.0412,-3.1386,-3.0687,-3.0143,-2.9274,-2.7402,-2.6164,-2.5172,-2.4373,-2.419,-2.419,-2.419,-2.419,-2.4557,-2.5658,0.0,0.0,0.0,0.0,0.0,0.0,0.0,0.0,0.0,0.0,0.0,0.0,0.0,0.0,0.0,-4.341,-4.3515,-4.3515,-4.3515,-4.3515,-4.3515,-4.3515,-4.3515,-4.3515,-4.3515,-4.3515,-4.3515,-4.3515,0.0,0.0,0.0,0.0,0.0,-4.3515,-4.3515,-4.3515,-4.3515,-4.3515,-4.3515,-4.3515,-4.3392,-4.3196,0.0,0.0,0.0,0.0,0.0,0.0,0.0,-0.893,-0.9061,-0.9523,-0.9591,-0.9861,-1.0605,-1.0094,-0.9847,-1.0163,0.0,0.0,0.0,0.0,0.0,0.0,0.0,0.0,0.0,0.0,0.0,0.0,0.0,0.0,0.0,0.0,0.0,0.0,0.0,0.0,0.0,0.0,0.0,0.0,0.0,0.0,-1.8335,0.0,0.0,0.0,0.0,0.0,0.0,0.0,0.0,0.0,0.0,0.0,0.0,0.0,-2.1942,-2.4052,0.0,-2.7746,-2.8608,-2.856,-2.8326,-2.7666,-2.6062,-2.5071,-2.4355,-2.3859,-2.3749,-2.3841,-2.4135,-2.419,-2.452,-2.5529,0.0,0.0,0.0,0.0,0.0,0.0,0.0,0.0,0.0,0.0,0.0,0.0,0.0,0.0,0.0,0.0,-4.3515,-4.3515,-4.3515,-4.3515,-4.3515,-4.3515,-4.3515,-4.3515,-4.3515,-4.3515,-4.3515,-4.3515,0.0,0.0,0.0,0.0,0.0,-4.3515,-4.3515,-4.3515,-4.3515,-4.3515,-4.3515,-4.3515,-4.3515,-4.3444,0.0,0.0,0.0,0.0,0.0,0.0,0.0,0.0,-0.8908,-0.8897,-0.8897,-0.9162,-0.9855,-0.9309,-0.9242,-1.0054,0.0,0.0,0.0,0.0,0.0,0.0,0.0,0.0,0.0,0.0,0.0,-1.6645,-1.7489,-1.8257,-1.8946,0.0,0.0,0.0,0.0,0.0,0.0,0.0,0.0,0.0,0.0,-1.6853,0.0,0.0,0.0,0.0,0.0,0.0,0.0,0.0,0.0,0.0,0.0,0.0,0.0,0.0,0.0,0.0,0.0,-2.5375,-2.5963,-2.7024,-2.6778,-2.5878,-2.4373,-2.3456,0.0,-2.2914,-2.2951,-2.3244,-2.4043,-2.419,-2.4263,-2.4428,0.0,0.0,0.0,0.0,0.0,0.0,0.0,0.0,0.0,0.0,0.0,0.0,0.0,0.0,0.0,0.0,-4.3462,-4.3515,-4.3515,-4.3515,-4.3515,-4.3515,-4.3515,-4.3515,-4.3515,-4.3515,-4.3515,-4.3515,0.0,0.0,0.0,0.0,0.0,-4.3515,-4.3515,-4.3515,-4.3515,-4.3515,-4.3515,-4.3515,-4.3515,-4.3515,0.0,0.0,0.0,0.0,0.0,0.0,0.0,0.0,0.0,0.0,-0.8897,-0.8965,-0.9145,-0.8993,-0.9064,0.0,0.0,0.0,0.0,0.0,0.0,0.0,0.0,0.0,0.0,0.0,0.0,-1.6169,-1.8028,-1.904,-1.9229,-1.9741,0.0,0.0,0.0,0.0,0.0,0.0,0.0,0.0,-1.5912,-1.6346,0.0,0.0,0.0,0.0,-1.62,-1.6885,0.0,0.0,0.0,0.0,0.0,0.0,0.0,0.0,-1.9583,-1.9877,-2.1263,0.0,-2.2712,-2.2309,-2.2575,-2.2841,0.0,-2.2216,-2.2088,0.0,0.0,0.0,0.0,0.0,0.0,0.0,0.0,0.0,0.0,0.0,0.0,0.0,0.0,0.0,0.0,0.0,0.0,0.0,0.0,0.0,0.0,0.0,-4.3087,-4.3497,-4.3515,-4.3515,-4.3515,-4.3515,-4.3515,-4.3515,-4.3515,-4.3515,-4.3515,-4.3515,0.0,0.0,0.0,0.0,-4.3515,-4.3515,-4.3515,-4.3515,-4.3515,-4.3515,-4.3515,-4.3515,-4.3515,-4.3515,0.0,0.0,0.0,0.0,0.0,0.0,0.0,0.0,0.0,0.0,0.0,0.0,0.0,0.0,0.0,0.0,0.0,0.0,0.0,0.0,0.0,0.0,0.0,0.0,0.0,0.0,0.0,0.0,0.0,-1.9545,0.0,0.0,0.0,0.0,0.0,0.0,0.0,0.0,0.0,0.0,-1.5141,0.0,0.0,0.0,0.0,0.0,-1.5301,-1.5949,0.0,-1.6927,-1.7722,-1.8739,0.0,0.0,0.0,0.0,-1.9297,-1.9407,-1.984,-2.1125,-2.2336,-2.2217,-2.2556,-2.2804,-2.2428,0.0,0.0,0.0,0.0,0.0,0.0,0.0,0.0,0.0,0.0,0.0,0.0,0.0,0.0,0.0,0.0,0.0,0.0,0.0,0.0,0.0,0.0,0.0,0.0,0.0,-4.3196,-4.3479,-4.3515,-4.3515,-4.3515,-4.3515,-4.3515,-4.3515,-4.3515,-4.3515,-4.3515,-4.3515,-4.3515,0.0,0.0,0.0,-4.3515,-4.3515,-4.3515,-4.3515,-4.3515,-4.3515,-4.3515,-4.3515,-4.3515,-4.3515,0.0,0.0,0.0,0.0,0.0,0.0,0.0,0.0,0.0,0.0,0.0,0.0,0.0,0.0,0.0,0.0,0.0,0.0,0.0,0.0,0.0,0.0,0.0,0.0,0.0,0.0,0.0,0.0,0.0,0.0,0.0,0.0,0.0,0.0,0.0,0.0,0.0,0.0,0.0,0.0,0.0,0.0,0.0,0.0,0.0,0.0,0.0,0.0,0.0,-1.6346,-1.7227,-1.8188,-1.8618,0.0,0.0,0.0,0.0,0.0,-1.9426,-2.129,-2.3263,-2.3566,-2.3823,-2.3804,-2.2988,0.0,0.0,0.0,0.0,0.0,0.0,0.0,0.0,0.0,0.0,0.0,0.0,0.0,0.0,0.0,0.0,0.0,0.0,0.0,0.0,0.0,0.0,0.0,0.0,0.0,0.0,-4.3497,-4.3515,-4.3515,-4.3515,-4.3515,-4.3515,-4.3515,-4.3515,-4.3515,-4.3515,-4.3515,-4.3515,0.0,0.0,0.0,-4.3515,-4.3515,-4.3515,-4.3515,-4.3515,-4.3515,-4.3515,-4.3515,-4.3515,-4.3497,0.0,0.0,0.0,0.0,0.0,0.0,0.0,0.0,0.0,0.0,0.0,0.0,0.0,0.0,0.0,0.0,0.0,0.0,0.0,0.0,0.0,0.0,0.0,0.0,0.0,0.0,0.0,0.0,0.0,0.0,-2.0941,-2.1871,-2.0777,0.0,0.0,0.0,0.0,0.0,0.0,0.0,0.0,0.0,0.0,0.0,0.0,0.0,0.0,0.0,0.0,-1.5062,-1.631,-1.7876,-1.6628,0.0,0.0,0.0,0.0,0.0,-1.9942,-2.2134,-2.3547,-2.1557,-2.2125,-2.2969,-2.218,0.0,0.0,0.0,0.0,0.0,0.0,0.0,0.0,0.0,0.0,0.0,0.0,0.0,0.0,0.0,0.0,0.0,0.0,0.0,0.0,0.0,0.0,0.0,0.0,0.0,0.0,-4.3497,-4.3515,-4.3515,-4.3515,-4.3515,-4.3515,-4.3515,-4.3515,-4.3515,-4.3515,-4.3515,-4.3515,0.0,0.0,-4.3515,-4.3515,-4.3515,-4.3515,-4.3515,-4.3515,-4.3515,-4.3515,-4.3515,-4.3515,-4.3427,0.0,0.0,0.0,0.0,0.0,0.0,0.0,0.0,0.0,0.0,0.0,0.0,0.0,0.0,0.0,0.0,0.0,0.0,0.0,0.0,0.0,0.0,0.0,0.0,0.0,0.0,0.0,0.0,0.0,-2.1317,-2.2354,-2.1354,-1.9676,-1.7445,0.0,0.0,0.0,0.0,0.0,-1.4493,0.0,0.0,0.0,0.0,0.0,0.0,0.0,0.0,0.0,0.0,-1.6163,-1.7319,-1.6585,0.0,0.0,0.0,0.0,0.0,-1.8878,-2.1015,-2.2721,-2.2034,-2.341,-2.4961,-2.5026,0.0,0.0,0.0,0.0,0.0,0.0,0.0,0.0,0.0,0.0,0.0,0.0,0.0,0.0,0.0,0.0,0.0,0.0,0.0,0.0,0.0,0.0,0.0,0.0,0.0,0.0,0.0,-4.3515,-4.3515,-4.3515,-4.3515,-4.3515,-4.3515,-4.3515,-4.3515,-4.3515,-4.3515,-4.3515,-4.3515,0.0,-4.3515,-4.3515,-4.3515,-4.3515,-4.3515,-4.3515,-4.3515,-4.3515,-4.3515,-4.3515,-4.3427,0.0,0.0,0.0,0.0,0.0,0.0,0.0,0.0,0.0,0.0,0.0,0.0,0.0,0.0,0.0,0.0,0.0,0.0,0.0,0.0,0.0,0.0,0.0,0.0,0.0,0.0,-1.8011,-1.9978,-2.1077,-2.21,-2.2973,-2.0553,-1.861,0.0,0.0,0.0,0.0,0.0,0.0,-1.4493,0.0,0.0,0.0,0.0,0.0,0.0,0.0,0.0,0.0,0.0,0.0,0.0,0.0,0.0,0.0,-1.7073,-1.6908,-1.7165,-1.8346,-2.0189,-2.2088,-2.3272,0.0,-2.6576,-2.7567,0.0,0.0,0.0,0.0,0.0,0.0,0.0,0.0,0.0,0.0,0.0,0.0,0.0,0.0,0.0,0.0,0.0,0.0,0.0,0.0,0.0,0.0,0.0,0.0,0.0,0.0,0.0,-4.3515,-4.3515,-4.3515,-4.3515,-4.3515,-4.3515,-4.3515,-4.3515,-4.3515,-4.3515,-4.3515,-4.3515,-4.3515,-4.3404,-4.3222,-4.3222,-4.3112,-4.2928,-4.2928,-4.2928,-4.2928,-4.2928,-4.2928,-4.2877,0.0,0.0,0.0,0.0,0.0,0.0,0.0,0.0,0.0,0.0,0.0,0.0,0.0,0.0,0.0,0.0,0.0,0.0,0.0,0.0,0.0,0.0,0.0,0.0,0.0,-1.6071,-1.7802,-2.0183,-2.0227,-2.0513,-2.0968,-1.9356,-1.8259,-1.7581,0.0,0.0,0.0,0.0,0.0,-1.4493,-1.4493,0.0,0.0,0.0,0.0,0.0,0.0,0.0,0.0,0.0,0.0,0.0,0.0,0.0,-1.6963,-1.6927,-1.6908,-1.7403,-1.9696,-2.1051,-2.2345,-2.464,-2.5356,0.0,-2.7449,-2.7669,0.0,0.0,0.0,0.0,0.0,0.0,0.0,0.0,0.0,0.0,0.0,0.0,0.0,0.0,0.0,0.0,0.0,0.0,0.0,0.0,0.0,0.0,0.0,0.0,0.0,0.0,-4.3515,-4.3515,-4.3515,-4.3515,-4.3515,-4.3515,-4.3515,-4.3515,-4.3515,-4.3515,-4.3515,-4.3515,-4.3515,-4.3075,-4.2396,-4.2396,-4.1956,-4.126,-4.126,-4.126,-4.126,-4.126,-4.126,-4.126,0.0,0.0,0.0,0.0,0.0,0.0,0.0,0.0,0.0,0.0,0.0,0.0,0.0,0.0,0.0,0.0,0.0,0.0,0.0,0.0,0.0,0.0,0.0,-1.2604,-1.3944,-1.6189,-1.8284,-2.0201,-2.029,-2.0373,-2.0373,-1.8418,0.0,0.0,0.0,0.0,0.0,0.0,0.0,-1.4493,-1.4493,-1.4493,0.0,0.0,0.0,0.0,0.0,0.0,0.0,0.0,-1.5031,-1.5607,0.0,0.0,0.0,0.0,-1.5796,-1.5936,-1.8346,-1.9979,-2.1455,-2.3419,0.0,0.0,0.0,0.0,0.0,0.0,0.0,0.0,0.0,0.0,0.0,0.0,0.0,0.0,0.0,0.0,0.0,0.0,0.0,0.0,0.0,0.0,0.0,0.0,0.0,0.0,0.0,0.0,0.0,-4.2011,-4.2011,-4.2011,-4.2011,-4.2011,-4.2011,-4.2011,-4.2506,-4.2488,-4.2011,-4.2011,-4.2011,-4.2011,-4.2011,-4.1827,-4.1535,-4.1535,-4.137,-4.1095,-4.1095,-4.1095,-4.1095,-4.1095,-4.1095,-4.1095,0.0,0.0,0.0,0.0,0.0,0.0,0.0,0.0,0.0,0.0,0.0,0.0,0.0,0.0,0.0,0.0,0.0,0.0,0.0,0.0,0.0,0.0,0.0,-1.2228,-1.3285,-1.5572,-1.7547,-1.9157,-1.9541,-1.9541,-1.9129,0.0,0.0,0.0,0.0,0.0,0.0,0.0,0.0,0.0,-1.4493,-1.4493,0.0,0.0,0.0,0.0,0.0,0.0,0.0,0.0,-1.4664,0.0,0.0,0.0,0.0,0.0,0.0,-1.6053,-1.7968,-1.9675,-2.13,0.0,0.0,0.0,0.0,0.0,0.0,0.0,0.0,0.0,0.0,0.0,0.0,0.0,0.0,0.0,0.0,0.0,0.0,0.0,0.0,0.0,0.0,0.0,0.0,0.0,0.0,0.0,0.0,0.0,0.0,0.0,-4.1095,-4.1095,-4.1095,-4.1095,-4.0967,-4.0726,-4.1277,-4.1387,-4.1095,-4.1095,-4.1095,-4.1095,-4.1095,-4.0948,-4.0726,-4.0726,-4.0579,-4.0343,-4.0343,-4.0343,-4.0343,-4.0343,-4.0343,-4.0343,0.0,0.0,0.0,0.0,0.0,0.0,0.0,0.0,0.0,0.0,0.0,0.0,0.0,0.0,0.0,0.0,0.0,0.0,0.0,0.0,0.0,0.0,0.0,-1.165,-1.3243,-1.4077,-1.5276,-1.6908,-1.7704,-1.7686,-1.6908,-1.689,0.0,0.0,0.0,0.0,0.0,0.0,0.0,0.0,-1.4493,-1.4493,-1.4493,0.0,0.0,0.0,0.0,0.0,0.0,0.0,-1.3826,-1.464,0.0,0.0,0.0,0.0,-1.7465,-1.828,-1.9077,-2.0527,-2.218,0.0,0.0,0.0,0.0,0.0,0.0,0.0,0.0,0.0,0.0,0.0,0.0,0.0,0.0,0.0,0.0,0.0,0.0,0.0,0.0,0.0,0.0,0.0,0.0,0.0,0.0,0.0,0.0,0.0,0.0,0.0,-4.1077,-4.1077,-4.1077,-4.1077,-4.0689,-3.9882,-3.9882,-4.0304,-4.1077,-4.1077,-4.1077,-4.1077,-4.1077,-4.0616,-3.9882,-3.9882,-3.9423,-3.8707,-3.8707,-3.8707,-3.8707,-3.8707,-3.8707,-3.8707,0.0,0.0,0.0,0.0,0.0,0.0,0.0,0.0,0.0,0.0,0.0,0.0,0.0,0.0,0.0,0.0,0.0,0.0,0.0,0.0,0.0,0.0,0.0,0.0,0.0,0.0,-1.4145,-1.6908,-1.7147,-1.7128,0.0,0.0,0.0,-1.6059,0.0,0.0,0.0,0.0,0.0,0.0,0.0,-1.4493,-1.4493,0.0,0.0,0.0,0.0,0.0,0.0,0.0,0.0,0.0,0.0,0.0,0.0,0.0,-1.7032,-1.828,-1.9077,-2.0527,0.0,0.0,0.0,0.0,0.0,0.0,0.0,0.0,0.0,0.0,0.0,0.0,0.0,0.0,0.0,0.0,0.0,0.0,0.0,0.0,0.0,0.0,0.0,0.0,0.0,0.0,0.0,0.0,0.0,0.0,0.0,0.0,-3.9407,-3.9407,-3.9407,-3.9407,-3.9294,-3.9056,-3.9056,-3.9184,-3.9407,-3.9407,-3.9407,-3.9407,-3.9407,-3.9276,-3.9056,-3.9056,-3.8927,-3.8707,-3.8707,-3.8707,-3.8707,-3.8707,-3.8707,-3.8707,0.0,0.0,0.0,0.0,0.0,0.0,0.0,0.0,0.0,0.0,0.0,0.0,0.0,0.0,0.0,0.0,0.0,0.0,0.0,0.0,0.0,0.0,0.0,0.0,0.0,-1.2003,-1.3361,0.0,0.0,0.0,0.0,0.0,0.0,-1.6188,0.0,-1.5723,0.0,0.0,0.0,0.0,-1.4365,-1.4493,-1.4475,0.0,0.0,0.0,0.0,0.0,0.0,0.0,0.0,0.0,0.0,0.0,0.0,-1.6126,-1.7326,-1.8831,-1.9976,0.0,0.0,0.0,0.0,0.0,0.0,0.0,0.0,0.0,0.0,0.0,0.0,0.0,0.0,0.0,0.0,0.0,0.0,0.0,0.0,0.0,0.0,0.0,0.0,0.0,0.0,0.0,0.0,0.0,0.0,0.0,0.0,0.0,-3.8707,-3.8707,-3.8707,-3.8707,-3.8707,-3.8707,-3.8707,-3.8707,-3.8707,-3.8707,-3.8707,-3.8707,-3.8707,-3.8707,-3.8707,-3.8707,-3.8707,-3.8707,-3.8707,-3.8707,-3.8707,-3.8707,-3.8707,-3.8707,0.0,0.0,-0.9702,-0.9702,0.0,0.0,0.0,0.0,0.0,0.0,0.0,-0.9702,0.0,0.0,0.0,-0.9702,0.0,0.0,0.0,0.0,0.0,0.0,0.0,0.0,0.0,0.0,0.0,0.0,0.0,0.0,0.0,0.0,-1.6059,-1.6688,0.0,-1.631,0.0,0.0,0.0,0.0,-1.3985,-1.4273,-1.42,-1.3477,0.0,0.0,0.0,0.0,0.0,0.0,0.0,0.0,0.0,0.0,0.0,-1.6303,-1.7979,-1.9738,0.0,0.0,0.0,0.0,0.0,0.0,0.0,0.0,0.0,0.0,0.0,0.0,0.0,0.0,0.0,0.0,0.0,0.0,0.0,0.0,0.0,0.0,0.0,0.0,0.0,0.0,0.0,0.0,0.0,0.0,0.0,0.0,0.0,0.0,-3.8597,-3.8634,-3.8707,-3.8707,-3.867,0.0,-3.8597,-3.856,-3.8487,-3.8634,-3.8707,-3.8707,-3.8707,-3.8707,-3.8707,-3.8707,-3.8707,-3.8707,-3.8707,-3.8707,-3.8707,-3.8707,-3.8707,-3.8707,0.0,0.0,-0.9702,-0.9702,0.0,0.0,0.0,0.0,-0.9702,-0.9702,-0.9702,-0.9702,-0.9702,-0.9702,0.0,-0.9702,-0.9702,0.0,0.0,0.0,0.0,0.0,0.0,0.0,0.0,0.0,0.0,0.0,0.0,0.0,0.0,0.0,0.0,-1.5038,0.0,-1.5166,0.0,0.0,0.0,-1.2375,-1.2554,-1.2627,-1.2609,-1.2425,-1.1966,0.0,0.0,0.0,0.0,0.0,0.0,0.0,-1.4493,-1.5368,-1.6193,-1.5294,-1.7502,-2.0181,0.0,0.0,0.0,0.0,0.0,0.0,0.0,0.0,0.0,0.0,0.0,0.0,0.0,0.0,0.0,0.0,0.0,0.0,0.0,0.0,0.0,0.0,0.0,0.0,0.0,0.0,0.0,0.0,0.0,0.0,0.0,0.0,0.0,-3.7749,-3.7768,-3.8046,-3.8689,-3.8707,-3.8377,0.0,-3.7768,-3.7437,-3.6853,-3.812,-3.8707,-3.8707,-3.8707,-3.8707,-3.8707,-3.8707,-3.8707,-3.8707,-3.8707,-3.8707,-3.8707,-3.8707,-3.8707,-3.8707,0.0,0.0,0.0,0.0,0.0,0.0,0.0,0.0,-0.9254,-0.9643,-0.9702,-0.9702,-0.9702,-0.9702,0.0,0.0,-0.9702,-0.9702,0.0,0.0,0.0,0.0,0.0,0.0,0.0,0.0,0.0,0.0,0.0,0.0,0.0,0.0,0.0,-1.62,0.0,-1.5019,0.0,0.0,0.0,-1.1558,-1.1948,-1.2095,-1.2058,-1.1668,-1.1264,-1.0893,-1.0893,0.0,0.0,0.0,0.0,0.0,0.0,0.0,-1.5252,-1.5557,-1.7128,-1.9025,0.0,0.0,0.0,0.0,0.0,0.0,0.0,0.0,0.0,0.0,0.0,0.0,0.0,0.0,0.0,0.0,0.0,0.0,0.0,0.0,0.0,0.0,0.0,0.0,0.0,0.0,0.0,0.0,0.0,0.0,0.0,-3.6303,-3.6486,-3.6905,-3.6942,-3.7144,-3.7551,-3.7551,-3.7331,-3.6942,-3.6942,-3.6707,-3.634,-3.7569,-3.812,-3.8138,-3.8524,-3.8707,-3.8707,-3.8707,-3.8707,-3.8707,-3.8707,-3.8707,-3.8707,-3.8707,-3.8707,-3.8707,0.0,0.0,0.0,0.0,0.0,0.0,0.0,0.0,0.0,-0.9606,-0.9702,-0.9702,-0.9702,-0.9702,-0.9702,0.0,0.0,0.0,-0.9702,0.0,0.0,0.0,0.0,0.0,0.0,0.0,0.0,0.0,0.0,0.0,0.0,0.0,0.0,-1.7832,0.0,0.0,0.0,0.0,-1.1563,-1.0746,-1.1416,-1.1696,-1.1599,-1.0953,-1.0691,-1.0691,-1.0691,-1.0783,-1.1113,-1.2595,0.0,0.0,0.0,0.0,-1.3666,-1.5539,-1.6376,-1.7264,0.0,0.0,0.0,0.0,0.0,0.0,0.0,0.0,0.0,0.0,0.0,0.0,0.0,0.0,0.0,0.0,0.0,0.0,0.0,0.0,0.0,0.0,0.0,0.0,0.0,0.0,0.0,0.0,0.0,0.0,-3.5862,-3.5862,-3.5936,-3.6064,-3.6083,-3.6156,-3.6303,-3.6303,-3.6211,-3.6064,-3.5936,-3.5862,-3.5899,-3.6703,-3.7162,-3.7327,-3.7991,-3.8285,-3.8285,-3.8285,-3.8285,-3.8303,-3.845,-3.8487,-3.8505,-3.8652,-3.8707,-3.8707,0.0,0.0,0.0,0.0,0.0,0.0,0.0,0.0,0.0,0.0,-0.9702,-0.9702,-0.9702,-0.9702,-0.9702,-0.9702,-0.9702,-0.9702,0.0,0.0,0.0,0.0,0.0,0.0,0.0,0.0,0.0,0.0,0.0,0.0,0.0,0.0,0.0,-1.7018,0.0,0.0,0.0,0.0,-1.1237,-0.9864,-0.9974,-1.001,-1.001,-0.99,-0.9864,-0.9864,-0.9864,-1.0315,-1.104,-1.1948,-1.2724,0.0,0.0,0.0,0.0,0.0,-1.4224,-1.5802,0.0,0.0,0.0,0.0,0.0,0.0,0.0,0.0,0.0,0.0,0.0,0.0,0.0,0.0,0.0,0.0,0.0,0.0,0.0,0.0,0.0,0.0,0.0,0.0,0.0,0.0,0.0,0.0,0.0,0.0,-3.4137,-3.4137,-3.4449,-3.5151,-3.5169,-3.5536,-3.6285,-3.6303,-3.5917,-3.5169,-3.4468,-3.4137,-3.4156,-3.4968,-3.5752,-3.6468,-3.656,-3.6615,-3.6615,-3.6615,-3.6615,-3.6688,-3.7401,-3.7658,-3.7749,-3.8432,-3.8707,-3.8707,0.0,0.0,0.0,0.0,0.0,0.0,0.0,0.0,0.0,0.0,0.0,-0.9702,-0.9702,-0.9702,-0.9702,-0.9702,-0.9702,0.0,0.0,0.0,0.0,0.0,0.0,0.0,0.0,0.0,0.0,0.0,0.0,0.0,0.0,-1.5343,-1.6775,0.0,0.0,0.0,0.0,0.0,0.0,-1.0333,-0.9882,-1.0506,-1.1576,0.0,-1.0547,-1.154,-1.0198,0.0,0.0,-1.1673,-1.2338,-1.2711,0.0,0.0,0.0,0.0,0.0,0.0,0.0,0.0,0.0,0.0,0.0,0.0,0.0,0.0,0.0,0.0,0.0,0.0,0.0,0.0,0.0,0.0,0.0,0.0,0.0,0.0,0.0,0.0,0.0,0.0,0.0,0.0,0.0,0.0,0.0,-3.3807,-3.3807,-3.3807,-3.3972,-3.4307,-3.4325,-3.4523,-3.489,-3.4908,-3.4706,-3.4307,-3.3972,-3.3807,-3.3807,-3.4174,-3.4784,-3.5591,-3.6083,-3.6303,-3.6303,-3.6303,-3.6303,-3.634,-3.6703,-3.6831,-3.6942,-3.7716,-3.8028,-3.8083,0.0,0.0,0.0,0.0,0.0,0.0,0.0,0.0,0.0,0.0,0.0,-0.9702,-0.9702,0.0,0.0,0.0,-0.9702,0.0,0.0,0.0,0.0,0.0,0.0,0.0,0.0,0.0,0.0,0.0,0.0,0.0,-1.6004,-1.6004,-1.8298,0.0,-1.9822,0.0,0.0,0.0,0.0,-1.1755,-1.1159,-1.1989,-1.344,-1.2063,-1.265,-1.3936,0.0,0.0,0.0,0.0,0.0,0.0,0.0,0.0,0.0,0.0,0.0,0.0,0.0,0.0,0.0,0.0,0.0,0.0,0.0,0.0,0.0,0.0,0.0,0.0,0.0,0.0,0.0,0.0,0.0,0.0,0.0,0.0,0.0,0.0,0.0,0.0,0.0,0.0,0.0,0.0,0.0,-3.3807,-3.3807,-3.3807,-3.3807,-3.3807,-3.3807,-3.3807,-3.3807,-3.3807,-3.3807,-3.3807,-3.3807,-3.3807,-3.3807,-3.3807,-3.4137,-3.4729,-3.5385,-3.5661,-3.5661,-3.5661,-3.5661,-3.5679,-3.5899,-3.5973,-3.6064,-3.6905,-3.7199,-3.729,0.0,0.0,0.0,0.0,0.0,0.0,0.0,0.0,0.0,0.0,0.0,-0.9702,-0.9702,-0.9702,-0.9702,-0.9702,-0.9702,0.0,0.0,0.0,0.0,0.0,0.0,0.0,0.0,0.0,0.0,0.0,0.0,0.0,-1.6835,-1.6835,-1.9428,-2.3969,-2.1483,-1.9072,-1.6835,0.0,0.0,-1.431,-1.4273,-1.4328,-1.4585,-1.5991,-1.6597,-1.6505,0.0,0.0,0.0,0.0,0.0,0.0,0.0,0.0,0.0,0.0,0.0,0.0,0.0,0.0,0.0,0.0,0.0,0.0,0.0,0.0,0.0,0.0,0.0,0.0,0.0,0.0,0.0,0.0,0.0,0.0,0.0,0.0,0.0,0.0,0.0,0.0,0.0,0.0,0.0,0.0,0.0,-3.3807,-3.3807,-3.3807,-3.3807,-3.3807,-3.3807,-3.3807,-3.3807,-3.3807,-3.3807,-3.3807,-3.3807,-3.3807,-3.3807,-3.3807,-3.3825,-3.3862,-3.3917,-3.3935,-3.3935,-3.3935,-3.3935,-3.4009,-3.4766,-3.5078,-3.5169,-3.6046,-3.6358,-3.6358,0.0,0.0,0.0,0.0,0.0,0.0,0.0,0.0,0.0,0.0,0.0,0.0,0.0,-0.9702,-0.9702,-0.9702,-0.9736,0.0,0.0,0.0,0.0,0.0,0.0,0.0,0.0,0.0,0.0,0.0,0.0,-1.1388,-1.4591,-1.5117,-1.686,-1.9539,-2.0217,-2.0026,-1.9054,-1.6702,0.0,0.0,-1.527,-1.6206,0.0,-1.7073,-1.7862,-1.8926,0.0,0.0,0.0,0.0,0.0,0.0,0.0,0.0,-1.1416,-1.0084,0.0,0.0,0.0,0.0,0.0,0.0,0.0,0.0,0.0,0.0,0.0,0.0,0.0,0.0,0.0,0.0,0.0,0.0,0.0,0.0,0.0,0.0,0.0,0.0,0.0,0.0,0.0,0.0,0.0,0.0,0.0,0.0,-3.226,-3.226,-3.226,-3.226,-3.226,-3.2504,-3.3023,-3.3532,-3.3807,-3.3807,-3.3807,-3.3807,-3.3807,-3.3807,-3.3807,-3.3807,-3.3807,-3.3807,-3.3807,-3.3807,-3.3807,-3.3825,-3.4119,-3.4215,-3.4325,-3.5151,-3.5463,-3.5555,0.0,0.0,0.0,-0.9936,0.0,-0.991,-0.985,-0.9811,0.0,0.0,0.0,0.0,0.0,0.0,-0.9739,-0.9768,-0.9805,0.0,0.0,0.0,0.0,0.0,0.0,0.0,0.0,0.0,0.0,0.0,0.0,0.0,0.0,-1.3844,-1.5099,-1.6945,-1.8009,-1.9098,0.0,0.0,0.0,-1.6928,0.0,0.0,-1.9711,0.0,-2.0584,0.0,0.0,0.0,0.0,0.0,0.0,0.0,0.0,-1.2999,-1.1434,-1.0084,0.0,0.0,0.0,0.0,0.0,0.0,0.0,0.0,0.0,0.0,0.0,0.0,0.0,0.0,0.0,0.0,0.0,0.0,0.0,0.0,0.0,0.0,0.0,0.0,0.0,0.0,0.0,0.0,0.0,0.0,0.0,0.0,-3.1397,-3.1397,-3.1397,-3.1397,-3.1397,-3.1659,-3.2192,-3.2724,-3.2981,-3.2981,-3.2981,-3.2981,-3.2981,-3.2981,-3.3146,-3.3403,-3.3403,-3.355,-3.3807,-3.3807,-3.3807,-3.3807,-3.3807,-3.3807,-3.3862,-3.4399,-3.4601,-3.4674,-1.0086,-1.0055,-0.9999,-0.9999,-0.9999,-0.9972,-0.991,-0.9854,-0.9801,-0.9795,0.0,0.0,0.0,0.0,0.0,0.0,0.0,0.0,0.0,0.0,0.0,0.0,0.0,0.0,0.0,0.0,0.0,0.0,0.0,0.0,0.0,0.0,-1.4481,-1.6688,-1.5148,-1.6206,-1.9168,0.0,-1.9187,-1.937,0.0,-2.0493,-2.0914,0.0,0.0,0.0,-2.3336,-2.2556,0.0,0.0,0.0,0.0,0.0,-1.3526,-1.0802,-1.001,-1.0351,0.0,0.0,0.0,0.0,0.0,0.0,0.0,0.0,0.0,0.0,0.0,0.0,0.0,0.0,0.0,0.0,0.0,0.0,0.0,0.0,0.0,0.0,0.0,0.0,0.0,0.0,0.0,0.0,0.0,0.0,-3.1342,-3.1342,-3.1342,-3.1342,-3.1342,-3.136,-3.136,-3.136,-3.1397,-3.1397,-3.1397,-3.1397,-3.1397,-3.1397,-3.1397,-3.1825,-3.2564,-3.2583,-3.3041,-3.377,-3.3788,-3.3807,-3.3807,-3.3807,-3.3807,-3.3807,-3.3807,-3.3807,-3.3807,-1.0092,-1.0084,-1.0074,-1.0074,-1.0074,-1.0055,-0.9975,-0.9949,-0.9916,0.0,0.0,0.0,0.0,0.0,0.0,0.0,0.0,0.0,-1.0044,-1.0063,-1.0074,-1.0074,-1.0088,0.0,0.0,0.0,0.0,0.0,0.0,0.0,0.0,0.0,0.0,0.0,-1.3568,-1.445,-1.5784,-1.5203,0.0,0.0,-1.8904,-2.0181,0.0,0.0,0.0,0.0,0.0,-2.4218,0.0,0.0,-2.1776,-1.9903,0.0,0.0,0.0,-1.1677,-1.2425,0.0,-1.2072,0.0,0.0,0.0,0.0,0.0,0.0,0.0,0.0,0.0,0.0,0.0,0.0,0.0,0.0,0.0,0.0,0.0,0.0,0.0,0.0,0.0,0.0,0.0,0.0,0.0,0.0,0.0,-2.9647,-2.9647,-2.9647,-2.9647,-2.9647,-2.9647,-3.0228,-3.0522,-3.0522,-3.1121,-3.1397,-3.1397,-3.1397,-3.1397,-3.1397,-3.1397,-3.1525,-3.1751,-3.2357,-3.2729,-3.2968,-3.3568,-3.3807,-3.3807,-3.3807,-3.3807,-3.3807,-3.3807,-3.3807,-3.3807,-1.0094,-1.0094,-1.0094,-1.0094,-1.0404,-1.0626,-1.0596,-1.0553,-1.0508,0.0,0.0,0.0,0.0,0.0,0.0,0.0,0.0,0.0,-1.0092,-1.0094,-1.0094,-1.0094,-1.0094,-1.0094,0.0,0.0,0.0,0.0,0.0,0.0,0.0,0.0,0.0,0.0,-1.1608,-1.2247,-1.2952,-1.2136,0.0,0.0,-1.9271,0.0,0.0,-2.3713,-2.421,0.0,0.0,0.0,-2.482,-2.4829,-2.3473,0.0,0.0,0.0,-1.5019,-1.3526,0.0,0.0,0.0,0.0,0.0,0.0,0.0,0.0,0.0,0.0,0.0,0.0,0.0,0.0,0.0,0.0,0.0,0.0,0.0,0.0,0.0,0.0,0.0,0.0,0.0,0.0,0.0,0.0,0.0,-2.9005,-2.9005,-2.9005,-2.9005,-2.9005,-2.9005,-2.9005,-2.9445,-2.9702,-2.9702,-3.0173,-3.0393,-3.0393,-3.0393,-3.0393,-3.0393,-3.0393,-3.0577,-3.0925,-3.1403,-3.1977,-3.2638,-3.3109,-3.3495,-3.3807,-3.3807,-3.3807,-3.3807,-3.3807,-3.3807,-3.3807,0.0,-1.0094,-1.0133,-1.0231,-1.0887,-1.1427,-1.1524,-1.1487,-1.1451,0.0,0.0,0.0,0.0,0.0,0.0,0.0,0.0,0.0,0.0,-1.0152,-1.0094,-1.0094,-1.0094,-1.0094,-1.0094,0.0,0.0,0.0,0.0,0.0,0.0,0.0,0.0,0.0,-0.9739,-1.0114,-1.0745,-1.039,0.0,-1.7018,-1.9958,-2.1462,0.0,0.0,-2.5062,0.0,-2.6462,-2.6483,-2.5723,-2.5738,-2.4111,0.0,0.0,-1.8467,-1.7924,-1.5686,-1.6101,0.0,0.0,0.0,0.0,0.0,0.0,0.0,-2.0197,-1.9491,0.0,0.0,0.0,0.0,0.0,0.0,0.0,0.0,0.0,0.0,0.0,0.0,0.0,0.0,0.0,0.0,0.0,-2.873,-2.873,-2.873,-2.873,-2.8767,-2.8858,-2.8877,-2.8913,-2.9005,-2.9005,-2.9005,-2.9005,-2.9005,-2.9005,-2.9005,-2.9005,-2.9005,-2.9005,-2.9005,-2.939,-3.0081,-3.0173,-3.1017,-3.2344,-3.2417,-3.2999,-3.3807,-3.3807,-3.3807,-3.3807,-3.3807,-3.3807,-3.3807,-1.0094,-1.0094,-1.0327,-1.1021,-1.1293,-1.1639,-1.2334,-1.2442,-1.2398,0.0,0.0,0.0,0.0,0.0,0.0,0.0,0.0,0.0,0.0,-1.0481,-1.0094,-1.0094,-1.0094,-1.0094,-1.0094,-1.0086,0.0,0.0,0.0,0.0,0.0,0.0,0.0,0.0,-0.9808,-0.986,-1.0172,-1.2604,0.0,-1.5986,-1.6635,0.0,-2.3058,-2.3574,-2.4169,-2.4877,-2.5872,-2.6112,-2.5941,0.0,-2.5065,-2.3648,0.0,0.0,0.0,0.0,0.0,-1.9594,-1.861,-1.8959,-1.9337,0.0,0.0,0.0,0.0,-1.7025,0.0,0.0,0.0,0.0,0.0,0.0,0.0,0.0,0.0,0.0,0.0,0.0,0.0,0.0,0.0,0.0,0.0,-2.706,-2.706,-2.706,-2.706,-2.7346,-2.8007,-2.8026,-2.8338,-2.8987,-2.9005,-2.9005,-2.9005,-2.9005,-2.9005,-2.9005,-2.9005,-2.9005,-2.9005,-2.9005,-2.9097,-2.9262,-2.9922,-3.0393,-3.0723,-3.1366,-3.2485,-3.3807,-3.3807,-3.3807,-3.3807,-3.3807,-3.3807,-3.3807,-1.0094,-1.0094,-1.0365,-1.1254,-1.1755,-1.2332,-1.3176,-1.331,-1.3434,0.0,0.0,0.0,0.0,0.0,0.0,0.0,0.0,0.0,0.0,0.0,-1.0094,-1.0094,-1.0094,-1.0094,-1.0094,-1.0094,-1.007,0.0,0.0,0.0,0.0,0.0,0.0,0.0,0.0,-1.0498,-1.1692,0.0,-1.394,-1.587,-1.7995,0.0,-2.3361,-2.3921,-2.4463,-2.5024,-2.5952,-2.6223,-2.6133,-2.6023,-2.533,0.0,0.0,-2.2633,-2.2247,0.0,-2.1237,-2.171,0.0,0.0,-2.0974,-2.0233,0.0,0.0,0.0,0.0,0.0,0.0,0.0,0.0,0.0,0.0,0.0,0.0,0.0,0.0,0.0,0.0,0.0,0.0,0.0,0.0,0.0,-2.6602,-2.6602,-2.6602,-2.6602,-2.6778,-2.7181,-2.72,-2.7402,-2.7794,-2.818,-2.8411,-2.8411,-2.8803,-2.9005,-2.9005,-2.9005,-2.9005,-2.9005,-2.9005,-2.9005,-2.9023,-2.9427,-2.9831,-3.0228,-3.0632,-3.1513,-3.2632,-3.3036,-3.3201,-3.3256,-3.3642,-3.3807,-3.3807,-1.0094,-1.0094,-1.0365,-1.1254,-1.2122,-1.2967,-1.3783,-1.4033,0.0,0.0,0.0,0.0,0.0,0.0,0.0,0.0,0.0,0.0,0.0,0.0,0.0,-1.0596,-1.0288,-1.0173,-1.0346,-1.0192,-1.0076,0.0,0.0,0.0,0.0,0.0,0.0,0.0,0.0,0.0,0.0,0.0,0.0,-1.6983,0.0,-2.2234,-2.2955,-2.4226,-2.4739,-2.492,-2.5978,-2.6354,-2.6307,-2.5991,0.0,-2.4722,-2.4006,-2.414,0.0,0.0,0.0,0.0,0.0,0.0,0.0,0.0,0.0,-2.0068,0.0,0.0,0.0,-1.9604,0.0,0.0,0.0,0.0,0.0,0.0,0.0,0.0,0.0,0.0,0.0,0.0,0.0,0.0,0.0,-2.5768,-2.5805,-2.6117,-2.586,-2.5878,-2.6337,-2.6374,-2.6447,-2.6612,-2.7236,-2.764,-2.7798,-2.8436,-2.8858,-2.9005,-2.9005,-2.9005,-2.9005,-2.9005,-2.9005,-2.9005,-2.9005,-2.9372,-2.9971,-2.9971,-3.0356,-3.1017,-3.199,-3.2375,-3.2449,-3.3109,-3.333,-3.3366,-1.0094,-1.0094,-1.0365,-1.1254,-1.2122,-1.2967,-1.3783,-1.4555,0.0,0.0,0.0,0.0,0.0,0.0,0.0,0.0,0.0,0.0,-1.5868,0.0,0.0,-1.2392,-1.0925,-1.0462,-1.1235,-1.05,-1.0092,-1.0086,0.0,0.0,0.0,0.0,-1.0536,-1.1549,-1.1998,0.0,0.0,0.0,-1.7339,0.0,-2.0935,-2.1148,0.0,-2.3003,-2.3777,-2.4077,-2.5076,-2.5932,-2.6441,0.0,-2.57,-2.5945,0.0,-2.4808,0.0,0.0,0.0,0.0,0.0,0.0,0.0,0.0,-2.2435,0.0,0.0,0.0,-1.8812,-1.7568,0.0,0.0,0.0,0.0,0.0,0.0,0.0,0.0,0.0,0.0,0.0,0.0,0.0,0.0,0.0,0.0,-2.2932,-2.4373,-2.3153,-2.3281,-2.5411,-2.554,-2.587,-2.6583,-2.6704,-2.709,-2.7787,-2.7879,-2.8301,-2.9005,-2.9005,-2.9005,-2.9005,-2.9005,-2.9005,-2.9005,-2.9005,-2.906,-2.9133,-2.9133,-2.9189,-2.9427,-3.0944,-3.1544,-3.1562,-3.1635,-3.1672,-3.1782,-1.0094,-1.0094,-1.0365,-1.1254,-1.1697,-1.2387,-1.3706,-1.5885,0.0,0.0,0.0,0.0,0.0,0.0,0.0,0.0,0.0,-1.7353,0.0,0.0,0.0,-1.4157,-1.2524,-1.1774,-1.2142,-1.1293,-1.0615,-1.0094,-1.0094,0.0,0.0,0.0,-1.1027,-1.286,-1.3132,0.0,-1.7116,0.0,0.0,0.0,0.0,0.0,0.0,-2.3438,-2.4588,-2.4729,-2.5158,-2.5538,-2.5788,0.0,-2.5412,0.0,0.0,0.0,0.0,0.0,0.0,0.0,0.0,0.0,0.0,0.0,0.0,0.0,0.0,0.0,-1.953,0.0,0.0,0.0,0.0,0.0,0.0,0.0,0.0,0.0,0.0,0.0,0.0,0.0,0.0,0.0,0.0,0.0,0.0,0.0,0.0,-2.2455,-2.3933,-2.4456,-2.486,-2.5199,-2.5658,-2.6072,-2.6403,-2.7339,-2.797,-2.8319,-2.8785,-2.9005,-2.9005,-2.9167,-2.9225,-2.9235,-2.9355,-2.9334,-2.9235,-2.9365,-2.9334,-2.932,-3.011,-3.0528,-3.076,-3.1231,-3.1397,-3.1452,-1.0094,0.0,0.0,0.0,-1.1233,-1.2041,-1.3959,-1.6561,-1.8257,0.0,0.0,0.0,-2.1812,-2.135,0.0,0.0,0.0,-1.9781,0.0,0.0,-1.6349,-1.6596,-1.4522,0.0,0.0,0.0,-1.1331,-1.0462,0.0,0.0,0.0,0.0,0.0,-1.3245,0.0,-1.612,-1.8777,0.0,0.0,-2.0378,-2.0552,-2.091,-2.1564,-2.3964,-2.5052,-2.5308,-2.5308,-2.5308,-2.5308,-2.5308,-2.5208,0.0,-2.5259,0.0,0.0,0.0,0.0,0.0,-2.5088,0.0,0.0,0.0,0.0,0.0,0.0,0.0,0.0,0.0,0.0,0.0,0.0,0.0,0.0,0.0,0.0,0.0,0.0,0.0,0.0,0.0,0.0,0.0,0.0,0.0,0.0,0.0,0.0,0.0,-2.2914,-2.3547,-2.3969,-2.419,-2.4768,-2.5172,-2.5393,-2.6612,-2.7464,-2.7899,-2.8524,-2.8963,-2.9195,-2.9385,-2.9474,-2.9484,-2.9644,-2.9626,-2.9484,-2.9634,-2.9598,-2.9494,-2.9634,-2.986,-3.0128,-3.0658,-3.0814,-3.076,-1.0094,-1.0094,0.0,0.0,0.0,-1.2252,-1.4769,-1.5965,-1.7157,0.0,0.0,0.0,0.0,0.0,0.0,0.0,0.0,-2.2663,-2.2643,0.0,-1.9257,0.0,-1.6904,-1.55,0.0,0.0,0.0,0.0,0.0,0.0,0.0,0.0,0.0,0.0,0.0,-1.7275,-1.8812,-2.0552,-2.2639,-2.4661,-2.3135,-2.3553,-2.5038,0.0,-2.4448,-2.5308,-2.5308,0.0,0.0,-2.5308,-2.5303,0.0,0.0,0.0,0.0,0.0,0.0,0.0,0.0,0.0,0.0,-2.3089,0.0,0.0,0.0,0.0,-2.1072,0.0,0.0,0.0,0.0,0.0,0.0,0.0,0.0,0.0,0.0,0.0,0.0,0.0,0.0,0.0,0.0,0.0,0.0,0.0,0.0,0.0,-2.2822,-2.3024,-2.3391,-2.4171,-2.4226,-2.4622,-2.5393,-2.5634,-2.6554,-2.81,-2.8312,-2.886,-2.9678,-2.9687,-2.9696,-2.9696,-2.9696,-2.9696,-2.9696,-2.9696,-2.9696,-2.9696,-2.9696,-2.9715,-2.9708,-2.952,-2.9288,-2.9189,0.0,0.0,0.0,0.0,0.0,-1.2447,-1.558,-1.7734,0.0,0.0,0.0,0.0,0.0,0.0,-2.4105,0.0,0.0,-2.4235,-2.3701,-2.2316,0.0,0.0,0.0,-1.8442,0.0,0.0,0.0,0.0,0.0,0.0,0.0,0.0,0.0,0.0,0.0,-1.771,0.0,0.0,0.0,0.0,0.0,-2.3765,-2.5264,0.0,0.0,-2.5308,-2.5308,-2.5308,0.0,-2.5308,-2.5308,-2.5308,-2.5308,-2.5308,-2.5308,-2.5308,-2.5308,0.0,0.0,0.0,-2.5029,-2.3885,0.0,0.0,0.0,0.0,0.0,0.0,0.0,0.0,0.0,0.0,0.0,0.0,0.0,0.0,0.0,0.0,0.0,0.0,0.0,0.0,0.0,0.0,0.0,0.0,0.0,0.0,0.0,-2.3592,-2.431,-2.4591,-2.4591,-2.4722,-2.5003,-2.5595,-2.6164,-2.6716,-2.7863,-2.8537,-2.8848,-2.9572,-2.9901,-2.9908,-3.008,-3.0066,-2.9908,-3.008,-3.0059,-2.9916,-3.0087,-3.0059,-2.9877,-2.967,-2.9551,-2.9483,-1.1928,0.0,0.0,0.0,0.0,0.0,0.0,0.0,0.0,0.0,-2.185,0.0,-2.2293,0.0,-2.4293,0.0,-2.5308,-2.5077,-2.4567,-2.3721,0.0,-2.3678,-2.2081,0.0,0.0,0.0,0.0,0.0,0.0,-1.2736,0.0,0.0,0.0,0.0,0.0,0.0,0.0,0.0,-2.3432,0.0,0.0,-2.4346,0.0,0.0,-2.5308,-2.5308,0.0,-2.5308,-2.5308,-2.5308,-2.5308,-2.5308,-2.5308,-2.5308,-2.5308,-2.5308,-2.5308,-2.5308,-2.5308,-2.5308,0.0,-2.4298,-2.3687,0.0,-2.1773,0.0,0.0,0.0,0.0,0.0,0.0,0.0,0.0,0.0,0.0,0.0,0.0,0.0,0.0,0.0,0.0,0.0,0.0,0.0,-1.7805,-1.9376,0.0,0.0,0.0,0.0,-2.4483,-2.4785,-2.4804,-2.4804,-2.4804,-2.5357,-2.5802,-2.6124,-2.7542,-2.8377,-2.8688,-2.9687,-3.0143,-3.015,-3.0317,-3.0305,-3.015,-3.0323,-3.0305,-3.0157,-3.0323,-3.0279,-3.0103,-2.9885,-2.9754,-2.9678,0.0,0.0,0.0,0.0,-1.4948,0.0,0.0,0.0,-2.1615,0.0,-2.2115,-2.2288,-2.2855,-2.3385,-2.4115,-2.5212,-2.5308,0.0,-2.5308,-2.4582,0.0,0.0,-2.3774,-2.2913,-2.2874,0.0,0.0,0.0,0.0,0.0,0.0,0.0,0.0,0.0,-1.5352,0.0,-1.9223,-2.2609,-2.4524,-2.5308,-2.5308,-2.5308,-2.5308,-2.5308,-2.5308,-2.5308,-2.5308,-2.5308,-2.5308,-2.5308,-2.5308,-2.5308,-2.5308,-2.5308,-2.5308,-2.5308,-2.5308,-2.5308,-2.5308,-2.5308,-2.5115,-2.4356,0.0,0.0,0.0,0.0,-2.386,0.0,0.0,0.0,0.0,0.0,0.0,0.0,0.0,0.0,0.0,0.0,0.0,0.0,0.0,0.0,0.0,0.0,-1.5999,-1.893,-1.8,0.0,0.0,0.0,-2.3875,-2.4788,-2.4825,-2.4825,-2.4825,-2.4962,-2.5436,-2.6257,-2.733,-2.8242,-2.9011,-2.989,-3.0308,-3.0346,-3.0346,-3.0365,-3.0404,-3.0404,-3.0404,-3.0404,-3.0404,-3.0404,-3.0367,-3.0103,-2.9893,-2.9703,-1.4613,-1.6083,-1.7375,0.0,-1.6891,-1.7622,0.0,0.0,0.0,0.0,-2.3712,-2.3558,-2.4558,-2.4788,-2.4981,-2.5269,-2.5308,0.0,0.0,0.0,0.0,-2.5288,-2.4885,-2.4389,-2.3783,-2.1485,0.0,-1.9327,0.0,0.0,-1.4522,0.0,0.0,0.0,0.0,0.0,-1.9184,-2.1951,-2.3966,-2.5308,-2.5308,-2.5308,0.0,0.0,-2.5308,-2.5308,-2.5308,-2.5308,-2.5308,-2.5308,-2.5308,-2.5308,-2.5308,-2.5308,-2.5308,-2.5308,-2.5308,-2.5308,-2.5308,-2.5308,-2.525,-2.5038,-2.4548,-2.3975,0.0,0.0,0.0,0.0,0.0,0.0,0.0,0.0,0.0,0.0,0.0,0.0,0.0,0.0,0.0,0.0,0.0,0.0,0.0,0.0,-1.6278,-1.6878,-1.7928,0.0,0.0,0.0,0.0,-2.5127,-2.5165,-2.5165,-2.5165,-2.5203,-2.5334,-2.5564,-2.6484,-2.7044,-2.7274,-2.814,-2.8871,-2.9429,-2.9429,-2.9794,-3.0404,-3.0404,-3.0404,-3.0404,-3.0404,-3.0404,-3.0398,-3.0317,-3.0136,-2.9924,-1.6456,0.0,0.0,-2.0597,0.0,0.0,-2.2374,0.0,0.0,-2.5058,-2.5173,0.0,-2.6351,-2.6654,-2.6596,-2.6096,-2.6288,0.0,0.0,0.0,0.0,-2.5327,-2.5308,-2.5096,-2.462,-2.3212,0.0,-2.0308,0.0,0.0,-1.4593,0.0,0.0,0.0,0.0,-1.7218,0.0,-2.1951,-2.412,-2.5308,-2.5308,0.0,0.0,-2.5308,-2.5308,-2.5308,-2.5308,-2.5308,-2.5308,-2.5308,-2.5308,-2.5308,-2.5308,-2.5308,-2.5308,-2.5308,-2.5308,-2.5308,-2.5308,-2.5308,-2.5308,-2.5308,-2.4966,-2.4529,-2.4187,-2.4375,-2.4529,0.0,0.0,0.0,0.0,0.0,0.0,0.0,0.0,0.0,0.0,0.0,0.0,0.0,0.0,0.0,0.0,0.0,-1.5777,-1.5499,-1.7295,0.0,0.0,0.0,0.0,-2.4755,-2.5115,-2.5308,-2.5308,-2.5308,-2.5308,-2.5308,-2.6173,-2.6601,-2.664,-2.7505,-2.8338,-2.9107,-2.9107,-2.9583,-3.0404,-3.0404,-3.0404,-3.0404,-3.0404,-3.0404,-3.0404,-3.0404,-3.0305,-3.0163,0.0,0.0,0.0,0.0,0.0,0.0,0.0,-2.4351,0.0,-2.5596,0.0,-2.725,-2.7928,-2.8423,-2.8308,-2.7308,0.0,-2.7255,-2.5731,-2.6231,-2.625,-2.55,-2.5365,-2.5308,-2.5308,-2.5077,0.0,0.0,0.0,0.0,0.0,0.0,0.0,0.0,0.0,0.0,0.0,-2.2417,-2.4567,0.0,-2.5308,-2.5308,-2.5308,-2.5308,-2.5308,-2.5308,-2.5308,-2.5308,-2.5308,-2.5308,-2.5308,-2.5308,-2.5308,-2.5308,-2.5308,-2.5308,-2.5308,-2.5308,-2.5308,-2.5308,-2.5308,-2.5308,-2.5308,-2.5115,-2.4413,-2.4793,-2.5096,-2.4394,-2.4812,-2.5269,0.0,0.0,0.0,0.0,0.0,0.0,0.0,0.0,0.0,0.0,0.0,0.0,0.0,0.0,-1.5072,-1.4607,0.0,0.0,0.0,0.0,0.0,-2.4072,-2.4774,0.0,-2.5308,0.0,-2.5308,-2.5308,-2.6077,-2.6428,-2.6467,-2.7217,-2.8011,-2.878,-2.8896,-2.9429,-3.0231,-3.0346,-3.0404,-3.0404,-3.0404,-3.0404,-3.0404,-3.0404,-3.0404,-3.0404,0.0,0.0,0.0,0.0,0.0,-2.5755,-2.5909,-2.501,-2.5067,-2.7159,-2.7192,-2.7404,-2.8442,-2.8635,-2.8615,-2.8423,-2.8082,0.0,0.0,0.0,0.0,-2.639,-2.5673,-2.5308,-2.5308,-2.3947,-2.2601,0.0,-1.8369,-1.5904,0.0,0.0,0.0,0.0,0.0,0.0,-2.0985,-2.3163,0.0,-2.5308,-2.5308,-2.5308,-2.5308,-2.5308,-2.5308,-2.5308,-2.5308,-2.5308,-2.5308,-2.5308,-2.5308,-2.5308,-2.5308,-2.5308,-2.5308,-2.5308,-2.5308,-2.5308,-2.5308,-2.5308,-2.5308,-2.5308,-2.5308,-2.5269,-2.5115,-2.5192,-2.5269,-2.5115,-2.5192,-2.5096,-2.4432,0.0,0.0,0.0,0.0,0.0,0.0,0.0,0.0,0.0,0.0,0.0,0.0,0.0,0.0,0.0,0.0,0.0,0.0,0.0,0.0,0.0,0.0,0.0,0.0,0.0,-2.5308,-2.5308,-2.5442,-2.5538,-2.5538,-2.5692,-2.6212,-2.7082,-2.7794,-2.8569,-2.9371,-3.0096,-3.0404,-3.0404,-3.0404,-3.0404,-3.0404,-3.0404,-3.0404,-3.0404,0.0,0.0,0.0,0.0,0.0,0.0,0.0,-2.6587,0.0,-2.7741,-2.8005,-2.8294,-2.8852,-2.9308,-2.9404,-2.8948,-2.9083,-2.8832,-2.7953,-2.789,-2.7717,-2.7294,-2.6447,0.0,-2.5962,-2.4731,-2.3235,-2.1504,-1.9,-1.6458,0.0,0.0,0.0,0.0,0.0,-1.8619,0.0,0.0,0.0,-2.5308,-2.5308,-2.5308,-2.5308,-2.5308,-2.5308,-2.5308,-2.5308,-2.5308,-2.5308,-2.5308,-2.5308,-2.5308,-2.5308,-2.5308,-2.5308,-2.5308,-2.5308,-2.5308,-2.5308,-2.5308,-2.5308,-2.5308,-2.5308,-2.5308,-2.5308,-2.5308,-2.5308,-2.5308,-2.5308,-2.5058,-2.424,-2.3394,0.0,0.0,0.0,0.0,0.0,0.0,0.0,0.0,0.0,0.0,0.0,0.0,0.0,0.0,0.0,0.0,0.0,0.0,0.0,0.0,0.0,0.0,0.0,0.0,0.0,-2.5308,-2.5308,-2.5308,-2.5308,-2.5308,-2.5788,-2.6659,-2.7525,-2.8357,-2.9165,-3.0038,-3.0404,-3.0404,-3.0404,-3.0404,-3.0404,-3.0404,-3.0404,-3.0404,0.0,-2.5011,0.0,0.0,-2.5646,0.0,-2.7735,-2.8221,-2.8429,-2.8429,-2.8986,-2.9371,-2.9371,-2.9981,-3.0115,-2.9429,-3.0,-2.9846,-2.8525,-2.9025,-2.9011,-2.8184,-2.7332,-2.6794,-2.6601,-2.5923,-2.4327,0.0,0.0,0.0,0.0,0.0,-1.3651,-1.2909,0.0,0.0,0.0,0.0,-2.4567,-2.5308,-2.5308,-2.5308,-2.5308,-2.5308,-2.5308,-2.5308,-2.5308,-2.5308,-2.5308,-2.5308,-2.5308,-2.5308,-2.5308,-2.5308,-2.5308,-2.5308,-2.5308,-2.5308,-2.5308,-2.5308,-2.5308,-2.5308,-2.5308,-2.5308,-2.5308,-2.5308,-2.5308,-2.5308,-2.5308,-2.5058,-2.424,-2.3682,0.0,0.0,0.0,0.0,0.0,0.0,0.0,0.0,0.0,0.0,0.0,0.0,0.0,0.0,0.0,0.0,0.0,0.0,0.0,0.0,0.0,-2.4221,-2.5038,0.0,-2.5308,0.0,-2.5308,-2.5308,-2.5308,-2.5308,-2.5673,-2.6385,-2.7448,-2.8453,-2.9429,-3.0115,-3.0404,-3.0404,-3.0404,-3.0404,-3.0404,-3.0404,-3.0404,-3.0404,0.0,0.0,0.0,0.0,0.0,0.0,0.0,-2.9263,-3.0173,-3.0173,-3.0231,-3.0288,-3.0288,-3.0346,-3.0365,-3.0288,-3.0346,-3.0327,-3.0173,-3.0231,-2.989,-2.903,-2.8203,-2.7409,-2.6621,-2.6524,-2.5236,0.0,0.0,0.0,0.0,0.0,-1.5811,-1.7237,0.0,0.0,0.0,-2.3725,-2.4567,-2.5308,-2.5308,-2.5308,-2.5308,-2.5308,-2.5308,-2.5308,-2.5308,-2.5308,-2.5308,-2.5308,-2.5308,-2.5308,-2.5308,-2.5308,-2.5308,-2.5308,-2.5308,-2.5308,-2.5308,-2.5308,-2.5308,-2.5308,-2.5308,-2.5308,-2.5308,-2.5308,-2.5308,-2.5308,-2.5308,-2.5058,-2.424,-2.462,-2.4577,0.0,0.0,0.0,0.0,0.0,0.0,0.0,0.0,0.0,0.0,0.0,0.0,0.0,0.0,0.0,0.0,0.0,0.0,-2.1485,0.0,-2.3336,-2.4202,-2.4947,0.0,-2.5308,-2.5308,-2.5308,-2.5308,-2.5308,-2.5346,-2.5519,-2.7178,-2.8794,-3.0288,-3.0365,-3.0404,-3.0404,-3.0404,-3.0404,-3.0404,-3.0404,-3.0404,-3.0404,0.0,0.0,0.0,0.0,0.0,0.0,0.0,-3.0308,-3.0706,-3.0706,-3.0513,-3.0404,-3.0404,-3.0404,-3.0404,-3.0404,-3.0404,-3.0404,-3.0404,-3.0404,-3.0231,-2.991,-2.9063,-2.8453,-2.8102,-2.7101,-2.5851,0.0,0.0,0.0,0.0,0.0,0.0,0.0,0.0,-2.2759,-2.3663,-2.5029,-2.5808,-2.6187,-2.6675,-2.6601,-2.6252,-2.6729,-2.6297,-2.5492,-2.6006,-2.5832,-2.5375,-2.5417,-2.5371,-2.5308,-2.5308,-2.5308,-2.5308,-2.5308,-2.5308,-2.5308,-2.5308,-2.5308,-2.5308,-2.5308,-2.5308,-2.5308,-2.5308,-2.5308,-2.5308,-2.5308,-2.5308,-2.5192,-2.4889,-2.4697,-2.4524,0.0,0.0,0.0,0.0,0.0,0.0,0.0,0.0,0.0,0.0,0.0,0.0,0.0,0.0,-1.2096,-1.4305,0.0,0.0,-2.0654,0.0,-2.322,-2.4091,-2.4909,-2.5308,-2.5308,-2.5308,-2.5308,-2.5308,-2.5308,-2.5865,-2.6909,-2.7601,-2.8852,-3.0404,-3.0404,-3.0404,-3.0404,-3.0404,-3.0404,-3.0404,-3.0404,-3.0404,-3.0404,-2.5859,0.0,-2.8008,0.0,-3.0898,-3.0898,-3.0898,-3.0898,-3.0898,-3.0898,-3.0682,-3.051,-3.0402,-3.0404,-3.0419,-3.0467,-3.0417,-3.0402,-3.0433,-3.0408,-3.0404,-3.0404,-2.9813,0.0,-2.9107,-2.7928,-2.6928,-2.6058,-2.437,0.0,0.0,-2.1523,0.0,0.0,-2.3428,-2.4259,-2.4937,-2.64,-2.7033,-2.7129,-2.7712,-2.7651,-2.725,-2.7815,-2.7281,-2.6354,-2.696,-2.6754,-2.6207,-2.624,-2.6026,-2.5695,-2.5436,-2.5352,-2.5326,-2.5326,-2.5326,-2.5321,-2.5321,-2.5348,-2.5359,-2.5359,-2.5359,-2.5359,-2.5359,-2.5359,-2.535,-2.5335,-2.5352,-2.5357,-2.5303,-2.4845,-2.4574,-2.4894,0.0,0.0,0.0,0.0,0.0,0.0,0.0,-2.0119,0.0,0.0,0.0,0.0,0.0,-1.2865,-1.4901,0.0,0.0,0.0,0.0,0.0,0.0,-2.4909,-2.5308,-2.5308,-2.5308,-2.5308,-2.5308,-2.5308,-2.625,-2.7895,-2.7895,-2.8852,-3.0404,-3.0404,-3.0404,-3.0404,-3.0404,-3.0404,-3.0404,-3.0404,-3.0404,-3.0404,-2.5703,-2.8476,-3.0859,-3.0898,-3.0898,-3.0898,-3.0898,-3.0898,-3.0898,-3.0898,-3.0898,-3.0768,-3.0428,-3.0404,-3.0442,-3.0587,-3.0492,-3.0433,-3.049,-3.043,-3.0404,0.0,0.0,-2.9987,-2.9127,-2.9088,-2.8684,-2.7876,0.0,0.0,-2.5231,-2.4432,-2.4052,-2.4149,-2.5813,-2.6563,-2.6631,-2.7576,-2.797,-2.7981,-2.8062,-2.8097,-2.8097,-2.8097,-2.8097,-2.8077,-2.8077,-2.8077,-2.8077,-2.8077,-2.7508,-2.6624,-2.5763,-2.5459,-2.5409,-2.5409,-2.5402,-2.5398,-2.5398,-2.5447,-2.5508,-2.5508,-2.5508,-2.5508,-2.5508,-2.5508,-2.549,-2.5408,-2.5459,-2.5462,-2.5317,-2.5354,-2.5109,-2.4244,0.0,0.0,0.0,0.0,0.0,0.0,0.0,-1.8407,-2.0115,0.0,0.0,0.0,0.0,0.0,0.0,0.0,0.0,-2.1408,-2.3182,0.0,-2.411,-2.4909,-2.5308,-2.5308,-2.5308,-2.5308,-2.5308,-2.5308,-2.625,-2.7895,-2.7895,-2.8852,-3.0404,-3.0404,-3.0404,-3.0404,-3.0404,-3.0404,-3.0404,-3.0404,-3.0404,-3.0404,-2.9258,-3.0137,-3.0898,-3.0898,-3.0898,-3.0898,-3.0898,-3.0898,-3.0898,-3.0898,-3.0898,-3.0856,-3.076,-3.0734,-3.0765,0.0,-3.0687,-3.0613,0.0,-3.0536,-3.0495,-3.0533,-3.0485,-3.0365,-3.0133,-2.9502,-2.9096,-2.8918,0.0,0.0,0.0,-2.6958,-2.6822,-2.6841,-2.7382,-2.7612,-2.767,-2.8586,-2.8977,-2.9076,-2.9593,-2.9535,-2.9189,-2.9676,-2.9194,-2.8311,-2.8917,-2.8712,-2.8189,-2.8229,-2.8028,-2.7701,-2.7486,-2.6516,-2.5479,-2.5479,-2.5477,-2.5474,-2.5474,-2.5473,-2.5491,-2.5491,-2.5491,-2.5491,-2.5491,-2.5491,-2.5486,-2.5463,-2.5456,-2.5415,-2.5383,-2.5357,-2.5244,-2.4952,-2.5135,0.0,0.0,0.0,0.0,0.0,0.0,-2.0292,0.0,-1.9327,0.0,0.0,0.0,0.0,0.0,0.0,0.0,0.0,-2.2893,0.0,-2.411,-2.4909,-2.5308,-2.5308,-2.5308,-2.5308,-2.5308,-2.5308,-2.625,-2.7895,-2.7895,-2.8852,-3.0404,-3.0404,-3.0404,-3.0404,-3.0404,-3.0404,-3.0404,-3.0404,-3.0404,-3.0404,-3.0898,-3.0898,-3.0898,-3.0898,-3.0898,-3.0898,-3.0898,-3.0898,-3.0898,-3.0898,-3.0898,-3.0898,-3.0898,-3.0898,0.0,-3.0898,-3.0753,-3.0678,-3.0698,-3.0594,-3.0567,-3.0603,-3.0554,-3.057,-3.0603,0.0,0.0,-2.985,-2.8968,-2.8372,-2.8097,-2.8097,-2.8097,-2.8116,-2.8445,-2.8598,-2.8659,-2.9513,-2.9913,-2.9995,-3.0508,-3.0452,-3.0137,-3.0599,-3.0153,-2.9355,-2.9883,-2.9706,-2.9212,-2.9257,-2.9022,-2.8724,-2.8789,-2.7766,-2.6485,-2.6135,-2.5798,-2.5543,-2.5543,-2.5556,-2.5588,-2.5588,-2.5588,-2.5588,-2.5588,-2.5588,-2.5564,-2.5547,-2.5513,-2.5508,-2.5447,-2.5418,-2.5409,-2.5372,-2.5387,-2.5085,-2.4261,0.0,0.0,0.0,0.0,0.0,0.0,-2.1281,0.0,0.0,0.0,0.0,0.0,0.0,0.0,-2.1716,-2.3562,0.0,-2.4548,-2.5058,-2.5308,-2.5308,-2.5308,-2.5308,-2.5308,-2.5635,-2.6563,-2.7915,-2.8222,-2.9121,-3.0404,-3.0404,-3.0404,-3.0404,-3.0404,-3.0404,-3.0404,-3.0404,-3.0404,-3.0404,-3.0898,-3.0898,0.0,0.0,-3.0898,0.0,-3.0898,-3.0898,-3.0898,-3.0898,-3.0898,-3.0898,-3.0898,-3.0898,-3.0898,-3.0898,0.0,0.0,0.0,-3.0652,-3.0614,-3.062,-3.0614,-3.0614,-3.062,-3.0614,-3.0611,-3.0611,-2.9863,-2.9095,-2.8286,-2.8286,-2.8286,-2.8325,-2.9134,-2.9499,-2.9562,-3.0372,-3.0718,-3.0721,-3.0857,-3.0898,-3.0898,-3.0898,-3.0898,-3.0898,-3.0898,-3.0898,-3.0898,-3.0898,-3.0351,-2.9687,-2.9687,-2.9082,-2.8183,-2.7194,-2.6327,-2.5682,-2.5624,-2.5658,-2.5703,-2.5703,-2.5703,-2.5703,-2.5703,-2.5703,-2.5683,-2.5629,-2.5658,-2.5659,-2.5537,-2.5554,-2.5567,-2.55,-2.5452,-2.5101,-2.4235,0.0,0.0,0.0,0.0,0.0,0.0,-2.3008,-2.332,0.0,0.0,0.0,0.0,0.0,-2.244,-2.4052,-2.4889,-2.5308,-2.5308,-2.5308,-2.5308,-2.5308,-2.5308,-2.5308,-2.5327,-2.6192,-2.7082,-2.7934,-2.8742,-2.9583,-3.0404,-3.0404,-3.0404,-3.0404,-3.0404,-3.0404,-3.0404,-3.0404,-3.0404,-3.0404,0.0,0.0,-3.0898,-3.0898,-3.0898,-3.0898,-3.0898,-3.0898,-3.0898,-3.0898,-3.0898,-3.0898,-3.0898,-3.0898,-3.0898,-3.0898,-3.0857,-3.0835,-3.0857,-3.074,-3.0713,-3.0813,-3.0735,-3.0714,-3.0833,-3.0735,-3.0679,-3.0679,-3.0591,-3.0444,-3.0249,-3.0249,-3.0249,-3.0249,-3.0444,-3.0541,-3.0561,-3.0779,-3.0858,-3.0858,-3.0898,-3.0898,-3.0898,-3.0898,-3.0898,-3.0898,-3.0898,-3.0898,-3.0898,-3.0898,-3.0762,-3.0586,-3.0586,-2.998,-2.8984,-2.7421,-2.6835,-2.6522,-2.5858,-2.5683,-2.5703,-2.5703,-2.5703,-2.5703,-2.5703,-2.5703,-2.5703,-2.5683,-2.5658,-2.5607,-2.5573,-2.5551,-2.5526,-2.5493,-2.4941,-2.4214,-2.3407,-2.3116,0.0,0.0,-2.2989,-2.3478,-2.3013,-2.4134,-2.4166,0.0,0.0,0.0,0.0,-2.345,-2.374,-2.4095,-2.4889,-2.5308,-2.5308,-2.5308,-2.5308,-2.5308,-2.5308,-2.5308,-2.5327,-2.6192,-2.7082,-2.7934,-2.8742,-2.9583,-3.0404,-3.0404,-3.0404,-3.0404,-3.0404,-3.0404,-3.0404,-3.0404,-3.0404,-3.0404,-3.1211,-3.2168,-3.3223,-3.3223,-3.1934,-3.0898,-3.0898,-3.2226,-3.3223,-3.3223,-3.3223,-3.2637,-3.1074,-3.2305,-3.2598,-3.1035,-3.0898,-3.0898,-3.0898,-3.0837,-3.0816,-3.0898,-3.0837,-3.0836,-3.0898,-3.0836,-3.0793,-3.0793,-3.0858,-3.0898,-3.0898,-3.0898,-3.0898,-3.0898,-3.0898,-3.0898,-3.0898,-3.0898,-3.0898,-3.0898,-3.0898,-3.0898,-3.0898,-3.0898,-3.0898,-3.0898,-3.0898,-3.0898,-3.0898,-3.0898,-3.0898,-3.0898,-3.0898,-3.0586,-2.9922,-2.8574,-2.7617,-2.6816,-2.5937,-2.5703,-2.5703,-2.5703,-2.5703,-2.5703,-2.5703,-2.5703,-2.5703,-2.5703,-2.5662,-2.5657,-2.5657,-2.5628,-2.546,-2.5069,-2.4932,-2.446,-2.3215,-2.3389,0.0,-2.2984,-2.3764,-2.431,-2.4193,-2.5007,-2.4959,-2.354,0.0,0.0,-2.4177,-2.4569,-2.4755,-2.4709,-2.5091,-2.5308,-2.5308,-2.5308,-2.5308,-2.5308,-2.5308,-2.5308,-2.5346,-2.6621,-2.7448,-2.7972,-2.9179,-2.9967,-3.0404,-3.0404,-3.0404,-3.0404,-3.0404,-3.0404,-3.0404,-3.0404,-3.0404,-3.0404,-3.2246,-3.4004,-3.5996,-3.5996,-3.3594,-3.168,-3.168,-3.4121,-3.5996,-3.5996,-3.5996,-3.4883,-3.1992,-3.4258,-3.4726,-3.1543,-3.1289,-3.1172,-3.0918,-3.0898,-3.0898,-3.0898,-3.0898,-3.0898,-3.0898,-3.0898,-3.0898,-3.0898,-3.0898,-3.0898,-3.0898,-3.0898,-3.0898,-3.0898,-3.0898,-3.0898,-3.0898,-3.0898,-3.0898,-3.0898,-3.0898,-3.0898,-3.0898,-3.0898,-3.0898,-3.0898,-3.0898,-3.0898,-3.0898,-3.0898,-3.0898,-3.0898,-3.0898,-3.0898,-3.0723,-2.9863,-2.8555,-2.7168,-2.6172,-2.5801,-2.5703,-2.5703,-2.5703,-2.5703,-2.5703,-2.5703,-2.5703,-2.5703,-2.5703,-2.5703,-2.5703,-2.5703,-2.541,-2.4531,-2.5019,-2.4941,-2.333,0.0,-2.4402,-2.4402,-2.4519,-2.4869,-2.555,-2.5628,-2.5597,-2.5522,-2.5537,-2.5537,0.0,-2.5529,-2.5498,-2.5425,-2.5367,-2.5326,-2.5326,-2.5326,-2.5326,-2.5326,-2.5326,-2.5326,-2.5384,-2.7003,-2.7725,-2.7806,-2.9495,-3.021,-3.0212,-3.0346,-3.0404,-3.0404,-3.0404,-3.0404,-3.0404,-3.0404,-3.0404,-3.0404,-3.5312,-3.5644,-3.5996,-3.5996,-3.5566,-3.5215,-3.5215,-3.5664,-3.5996,-3.5996,-3.5996,-3.5801,-3.5273,-3.5684,-3.5195,-3.3184,-3.3008,-3.2402,-3.0996,-3.0898,-3.0898,-3.0898,-3.0898,-3.0898,-3.0898,-3.0898,-3.0898,-3.0898,-3.0898,-3.0898,-3.0898,-3.0898,-3.0898,-3.0898,-3.0898,-3.0898,-3.0898,-3.0898,-3.0898,-3.0898,-3.0898,-3.0898,-3.0898,-3.0898,-3.0898,-3.0898,-3.0898,-3.0898,-3.0898,-3.0898,-3.0898,-3.0898,-3.0898,-3.0898,-3.0723,-2.9863,-2.9414,-2.8848,-2.7246,-2.6269,-2.5703,-2.5703,-2.5703,-2.5703,-2.5703,-2.5703,-2.5703,-2.5703,-2.5703,-2.5703,-2.5703,-2.5703,-2.541,-2.4531,-2.4512,-2.4258,-2.3242,0.0,-2.4394,-2.4394,-2.5058,-2.5546,-2.5663,-2.5683,-2.5683,-2.5662,-2.5662,-2.5662,-2.5662,-2.5628,-2.557,-2.5564,-2.5493,-2.5477,-2.5477,-2.5477,-2.5477,-2.5477,-2.5477,-2.5477,-2.5496,-2.6514,-2.6937,-2.6977,-2.8655,-2.9351,-2.9357,-3.0096,-3.0404,-3.0404,-3.0404,-3.0404,-3.0404,-3.0404,-3.0404,-3.0404,-3.5996,-3.5996,-3.5996,-3.5996,-3.5996,-3.5996,-3.5996,-3.5996,-3.5996,-3.5996,-3.5996,-3.5996,-3.5996,-3.5996,-3.5684,-3.4863,-3.4238,-3.3418,-3.2324,-3.2246,-3.2246,-3.2246,-3.1836,-3.1387,-3.0918,-3.0898,-3.0898,-3.0898,-3.0898,-3.0898,-3.0898,-3.0898,-3.0898,-3.0898,-3.0898,-3.0898,-3.0898,-3.0898,-3.0898,-3.0898,-3.0898,-3.0898,-3.0898,-3.0898,-3.0898,-3.0898,-3.0898,-3.0898,-3.0898,-3.0898,-3.0898,-3.0898,-3.0898,-3.0898,-3.082,-3.043,-2.9297,-2.8027,-2.7226,-2.6367,-2.5703,-2.5703,-2.5703,-2.5703,-2.5703,-2.5703,-2.5703,-2.5703,-2.5703,-2.5703,-2.5703,-2.5703,-2.541,-2.4531,-2.4785,0.0,0.0,-2.4551,-2.5098,-2.5098,-2.5469,-2.5703,-2.5703,-2.5703,-2.5703,-2.5703,-2.5703,-2.5703,-2.5703,-2.5662,-2.5659,-2.5659,-2.5554,-2.5491,-2.5491,-2.5491,-2.5491,-2.5491,-2.5491,-2.5491,-2.553,-2.6395,-2.6779,-2.6822,-2.8076,-2.8598,-2.8593,-2.8995,-2.9404,-2.9757,-2.9757,-3.0023,-3.0404,-3.0404,-3.0404,-3.0404,-3.5996,-3.5996,-3.5996,-3.5996,-3.5996,-3.5996,-3.5996,-3.5996,-3.5996,-3.5996,-3.5996,-3.5996,-3.5996,-3.5996,-3.5996,-3.5996,-3.5195,-3.4414,-3.375,-3.3887,-3.3828,-3.3418,-3.2812,-3.2168,-3.1504,-3.1484,-3.1387,-3.1191,-3.1191,-3.1094,-3.0898,-3.0898,-3.0898,-3.0898,-3.0898,-3.0898,-3.0898,-3.0898,-3.0898,-3.0898,-3.0898,-3.0898,-3.0898,-3.0898,-3.0898,-3.0898,-3.0898,-3.0898,-3.0898,-3.0898,-3.0898,-3.0898,-3.0898,-3.0898,-3.0898,-3.0898,-2.9336,-2.7519,-2.7109,-2.6367,-2.5703,-2.5703,-2.5703,-2.5703,-2.5703,-2.5703,-2.5703,-2.5703,-2.5703,-2.5703,-2.5703,-2.5703,-2.541,-2.4531,0.0,0.0,0.0,-2.5156,-2.5703,-2.5703,-2.5703,-2.5703,-2.5703,-2.5703,-2.5703,-2.5703,-2.5703,-2.5703,-2.5703,-2.5703,-2.5703,-2.5703,-2.5602,-2.5549,-2.5549,-2.5549,-2.5549,-2.5549,-2.5549,-2.5549,-2.5568,-2.6244,-2.6546,-2.6571,-2.7442,-2.7818,-2.7804,-2.8015,-2.8427,-2.8942,-2.8942,-2.9438,-3.0122,-3.0122,-3.024,-3.0404,-3.5996,-3.5996,-3.5996,-3.5996,-3.5996,-3.5996,-3.5996,-3.5996,-3.5996,-3.5996,-3.5996,-3.5996,-3.5996,-3.5996,-3.5996,-3.5996,-3.5918,-3.5508,-3.4668,-3.5351,-3.5098,-3.3476,-3.334,-3.3281,-3.3223,-3.3223,-3.2851,-3.2109,-3.2109,-3.1699,-3.0898,-3.0898,-3.0898,-3.0898,-3.0898,-3.0898,-3.0898,-3.0898,-3.0898,-3.0898,-3.0898,-3.0898,-3.0898,-3.0898,-3.0898,-3.0898,-3.0898,-3.0898,-3.0898,-3.0898,-3.0898,-3.0898,-3.0898,-3.0898,-3.0898,-3.0898,-3.0195,-2.9062,-2.7441,-2.6367,-2.5703,-2.5703,-2.5703,-2.5703,-2.5703,-2.5703,-2.5703,-2.5703,-2.5703,-2.5703,-2.5703,-2.5703,-2.541,-2.4531,0.0,0.0,-2.4512,-2.5156,-2.5703,-2.5703,-2.5703,-2.5703,-2.5703,-2.5703,-2.5703,-2.5703,-2.5703,-2.5703,-2.5703,-2.5703,-2.5703,-2.5703,-2.5683,-2.5683,-2.5683,-2.5683,-2.5683,-2.5683,-2.5683,-2.5683,-2.5683,-2.5742,-2.5756,-2.5733,-2.6607,-2.695,-2.6951,-2.7765,-2.8129,-2.8181,-2.8181,-2.8636,-2.9282,-2.9282,-2.9757,-3.0404,-3.5996,-3.5996,-3.5996,-3.5996,-3.5996,-3.5996,-3.5996,-3.5996,-3.5996,-3.5996,-3.5996,-3.5996,-3.5996,-3.5996,-3.5996,-3.5996,-3.5996,-3.5859,-3.5527,-3.582,-3.5469,-3.4258,-3.4219,-3.3945,-3.3418,-3.3398,-3.3242,-3.2949,-3.2949,-3.2773,-3.2441,-3.2441,-3.2441,-3.2422,-3.1934,-3.1719,-3.168,-3.1133,-3.0898,-3.0898,-3.0898,-3.0898,-3.0898,-3.0898,-3.0898,-3.0898,-3.0898,-3.0898,-3.0898,-3.0898,-3.0898,-3.0898,-3.0898,-3.0898,-3.0898,-3.0898,-3.0273,-2.9336,-2.8125,-2.7168,-2.6387,-2.584,-2.5703,-2.5703,-2.5703,-2.5703,-2.5703,-2.5703,-2.5703,-2.5703,-2.5703,-2.5703,-2.5586,-2.5254,0.0,-2.5586,-2.5254,-2.5488,-2.5703,-2.5703,-2.5703,-2.5703,-2.5703,-2.5703,-2.5703,-2.5703,-2.5703,-2.5703,-2.5703,-2.5703,-2.5703,-2.5703,-2.5703,-2.5703,-2.5703,-2.5703,-2.5703,-2.5703,-2.5703,-2.5703,-2.5703,-2.5703,-2.5683,-2.568,-2.6011,-2.6144,-2.6135,-2.6485,-2.6919,-2.742,-2.7948,-2.8612,-2.934,-2.9868,-3.0257,-3.0524,-3.5996,-3.5996,-3.5996,-3.5996,-3.5996,-3.5996,-3.5996,-3.5996,-3.5996,-3.5996,-3.5996,-3.5996,-3.5996,-3.5996,-3.5996,-3.5996,-3.5996,-3.5996,-3.5996,-3.5996,-3.5723,-3.5137,-3.5117,-3.4824,-3.4238,-3.4219,-3.4082,-3.3809,-3.3809,-3.3672,-3.3398,-3.3398,-3.3398,-3.3379,-3.2812,-3.2441,-3.2168,-3.1562,-3.1152,-3.0898,-3.0898,-3.0898,-3.0898,-3.0898,-3.0898,-3.0898,-3.0898,-3.0898,-3.0898,-3.0898,-3.0898,-3.0898,-3.0898,-3.0898,-3.0898,-3.0898,-3.0488,-2.9824,-2.8945,-2.8066,-2.7129,-2.5996,-2.5703,-2.5703,-2.5703,-2.5703,-2.5703,-2.5703,-2.5703,-2.5703,-2.5703,-2.5703,-2.5703,-2.5703,-2.5703,-2.5703,-2.5703,-2.5703,-2.5703,-2.5703,-2.5703,-2.5703,-2.5703,-2.5703,-2.5703,-2.5703,-2.5703,-2.5703,-2.5703,-2.5703,-2.5703,-2.5703,-2.5703,-2.5703,-2.5703,-2.5703,-2.5703,-2.5703,-2.5703,-2.5703,-2.5703,-2.5703,-2.5703,-2.5703,-2.5703,-2.5703,-2.5703,-2.5703,-2.6033,-2.6586,-2.7173,-2.7872,-2.8622,-2.9228,-2.9605,-2.9832,-3.5996,-3.5996,-3.5996,-3.5996,-3.5996,-3.5996,-3.5996,-3.5996,-3.5996,-3.5996,-3.5996,-3.5996,-3.5996,-3.5996,-3.5996,-3.5996,-3.5996,-3.5996,-3.5996,-3.5996,-3.5996,-3.5996,-3.5996,-3.5996,-3.5996,-3.5996,-3.5586,-3.4707,-3.4707,-3.4277,-3.3418,-3.3418,-3.3418,-3.3418,-3.3418,-3.2969,-3.2226,-3.2207,-3.1719,-3.0918,-3.0918,-3.0918,-3.0918,-3.0918,-3.0918,-3.0918,-3.0898,-3.0898,-3.0898,-3.0898,-3.0898,-3.0898,-3.0898,-3.0898,-3.0898,-3.0898,-3.0898,-3.0703,-2.9844,-2.8965,-2.7891,-2.6152,-2.5703,-2.5703,-2.5703,-2.5703,-2.5703,-2.5703,-2.5703,-2.5703,-2.5703,-2.5703,-2.5703,-2.5703,-2.5703,-2.5703,-2.5703,-2.5703,-2.5703,-2.5703,-2.5703,-2.5703,-2.5703,-2.5703,-2.5703,-2.5703,-2.5703,-2.5703,-2.5703,-2.5703,-2.5703,-2.5703,-2.5703,-2.5703,-2.5703,-2.5703,-2.5703,-2.5703,-2.5703,-2.5703,-2.5703,-2.5703,-2.5703,-2.5703,-2.5703,-2.5703,-2.5703,-2.5703,-2.5703,-2.5703,-2.5703,-2.6206,-2.6903,-2.6903,-2.7416,-2.8212,-3.5996,-3.5996,-3.5996,-3.5996,-3.5996,-3.5996,-3.5996,-3.5996,-3.5996,-3.5996,-3.5996,-3.5996,-3.5996,-3.5996,-3.5996,-3.5996,-3.5996,-3.5996,-3.5996,-3.5996,-3.5996,-3.5996,-3.5996,-3.5996,-3.5996,-3.5996,-3.5879,-3.5605,-3.5605,-3.5488,-3.5215,-3.5215,-3.5215,-3.5195,-3.459,-3.418,-3.3906,-3.3301,-3.2891,-3.2656,-3.2656,-3.2656,-3.2598,-3.2031,-3.1816,-3.1738,-3.1113,-3.0898,-3.0898,-3.0898,-3.0898,-3.0898,-3.0898,-3.0898,-3.0898,-3.0898,-3.0898,-3.0703,-2.9844,-2.9414,-2.8789,-2.7051,-2.6152,-2.5703,-2.5703,-2.5703,-2.5703,-2.5703,-2.5703,-2.5703,-2.5703,-2.5703,-2.5703,-2.5703,-2.5703,-2.5703,-2.5703,-2.5703,-2.5703,-2.5703,-2.5703,-2.5703,-2.5703,-2.5703,-2.5703,-2.5703,-2.5703,-2.5703,-2.5703,-2.5703,-2.5703,-2.5703,-2.5703,-2.5703,-2.5703,-2.5703,-2.5703,-2.5703,-2.5703,-2.5703,-2.5703,-2.5703,-2.5703,-2.5703,-2.5703,-2.5703,-2.5703,-2.5703,-2.5703,-2.5762,-2.6367,-2.6757,-2.7048,-2.7653,-2.8022,-2.8267,-3.5819,-3.5834,-3.5878,-3.5878,-3.5878,-3.5878,-3.5878,-3.5868,-3.5841,-3.5841,-3.5902,-3.5951,-3.5951,-3.5976,-3.5996,-3.5996,-3.5996,-3.5996,-3.5996,-3.5996,-3.5996,-3.5996,-3.5996,-3.5996,-3.5996,-3.5996,-3.5996,-3.5996,-3.5996,-3.5996,-3.5996,-3.5996,-3.5996,-3.5976,-3.5449,-3.5019,-3.4668,-3.4141,-3.3711,-3.3398,-3.3398,-3.3398,-3.3359,-3.2851,-3.248,-3.2129,-3.1601,-3.1191,-3.0898,-3.0898,-3.0898,-3.0898,-3.0898,-3.0898,-3.0898,-3.0898,-3.0898,-3.0781,-3.0254,-2.9863,-2.9355,-2.8281,-2.7109,-2.6113,-2.5781,-2.5703,-2.5703,-2.5703,-2.5703,-2.5703,-2.5703,-2.5703,-2.5703,-2.5703,-2.5703,-2.5703,-2.5703,-2.5703,-2.5703,-2.5703,-2.5703,-2.5703,-2.5703,-2.5703,-2.5703,-2.5703,-2.5703,-2.5703,-2.5703,-2.5703,-2.5703,-2.5703,-2.5703,-2.5703,-2.5703,-2.5703,-2.5703,-2.5703,-2.5703,-2.5703,-2.5703,-2.5703,-2.5703,-2.5703,-2.5703,-2.5703,-2.5703,-2.5703,-2.5703,-2.5742,-2.6289,-2.6484,-2.6543,-2.707,-2.7266,-2.7324,-3.5502,-3.5605,-3.5678,-3.5678,-3.5678,-3.5682,-3.5696,-3.5639,-3.5596,-3.5605,-3.5774,-3.5877,-3.5877,-3.5947,-3.5976,-3.5996,-3.5996,-3.5996,-3.5996,-3.5996,-3.5995,-3.5975,-3.5975,-3.5975,-3.5975,-3.5996,-3.5996,-3.5996,-3.5996,-3.5996,-3.5996,-3.5996,-3.5996,-3.5996,-3.5996,-3.5566,-3.4824,-3.4824,-3.4355,-3.3633,-3.3633,-3.3633,-3.3613,-3.3535,-3.3066,-3.2402,-3.2324,-3.1758,-3.0996,-3.0937,-3.0898,-3.0898,-3.0898,-3.0898,-3.0898,-3.0898,-3.0898,-3.0898,-3.0898,-3.0312,-2.9707,-2.9629,-2.8398,-2.6972,-2.6035,-2.582,-2.5781,-2.5723,-2.5703,-2.5703,-2.5703,-2.5703,-2.5703,-2.5703,-2.5703,-2.5703,-2.5703,-2.5703,-2.5703,-2.5703,-2.5703,-2.5703,-2.5703,-2.5703,-2.5703,-2.5703,-2.5703,-2.5703,-2.5703,-2.5703,-2.5703,-2.5703,-2.5703,-2.5703,-2.5703,-2.5703,-2.5703,-2.5703,-2.5703,-2.5703,-2.5703,-2.5703,-2.5703,-2.5703,-2.5703,-2.5703,-2.5703,-2.5703,-2.5703,-2.5703,-2.5703,-2.5703,-2.5703,-2.5703,-2.5703,-2.5801,-3.5488,-3.5522,-3.554,-3.554,-3.554,-3.5554,-3.56,-3.5605,-3.5618,-3.5678,-3.5713,-3.5732,-3.5732,-3.5766,-3.5817,-3.5913,-3.5973,-3.5975,-3.5936,-3.5916,-3.5862,-3.578,-3.5777,-3.5777,-3.5777,-3.5928,-3.5996,-3.5996,-3.5996,-3.5996,-3.5996,-3.5996,-3.5996,-3.5996,-3.5996,-3.5898,-3.5723,-3.5723,-3.5605,-3.5449,-3.5449,-3.5407,-3.5294,-3.4667,-3.4273,-3.4004,-3.3378,-3.2617,-3.1816,-3.1133,-3.0898,-3.0898,-3.0898,-3.0898,-3.0898,-3.0898,-3.0898,-3.0898,-3.0898,-3.0762,-3.0449,-2.9766,-2.9273,-2.8562,-2.705,-2.6719,-2.6523,-2.584,-2.5703,-2.5703,-2.5703,-2.5703,-2.5703,-2.5703,-2.5703,-2.5703,-2.5703,-2.5703,-2.5703,-2.5703,-2.5703,-2.5703,-2.5703,-2.5703,-2.5703,-2.5703,-2.5703,-2.5703,-2.5703,-2.5703,-2.5703,-2.5703,-2.5703,-2.5703,-2.5703,-2.5703,-2.5703,-2.5703,-2.5703,-2.5703,-2.5703,-2.5703,-2.5703,-2.5703,-2.5703,-2.5703,-2.5703,-2.5703,-2.5703,-2.5703,-2.5703,-2.5703,-2.5703,-2.5703,-2.5703,-2.5723,-3.55,-3.55,-3.55,-3.55,-3.55,-3.5502,-3.5543,-3.556,-3.5557,-3.5591,-3.5635,-3.565,-3.565,-3.5678,-3.5723,-3.5802,-3.5834,-3.5838,-3.5807,-3.5805,-3.5769,-3.5707,-3.5707,-3.5707,-3.5707,-3.5802,-3.5896,-3.5949,-3.5976,-3.5996,-3.5996,-3.5996,-3.5996,-3.5996,-3.5996,-3.5975,-3.5949,-3.5949,-3.5922,-3.5868,-3.5868,-3.5834,-3.5768,-3.533,-3.4913,-3.4499,-3.408,-3.3144,-3.1964,-3.1107,-3.0795,-3.0795,-3.0795,-3.0786,-3.0755,-3.0755,-3.0755,-3.0755,-3.0755,-3.0755,-3.0656,-3.0187,-3.0053,-2.9604,-2.7987,-2.757,-2.7281,-2.6457,-2.6254,-2.6111,-2.5715,-2.5658,-2.5661,-2.5683,-2.5703,-2.5683,-2.566,-2.5658,-2.5636,-2.5605,-2.5603,-2.5628,-2.5658,-2.5658,-2.5661,-2.5703,-2.5703,-2.5703,-2.5703,-2.5703,-2.5703,-2.5703,-2.5703,-2.5703,-2.5703,-2.5703,-2.5703,-2.5703,-2.5703,-2.5703,-2.5703,-2.5703,-2.5703,-2.5703,-2.5703,-2.5703,-2.5703,-2.5703,-2.5703,-2.5703,-2.5703,-2.5703,-2.5703,-2.5703,-2.5703,-2.5703,-3.55,-3.55,-3.55,-3.55,-3.55,-3.55,-3.55,-3.55,-3.55,-3.55,-3.5552,-3.5574,-3.5574,-3.5633,-3.5682,-3.5682,-3.5696,-3.57,-3.5682,-3.5682,-3.5675,-3.5675,-3.5675,-3.5675,-3.5675,-3.5671,-3.5743,-3.5871,-3.5924,-3.5953,-3.5953,-3.5953,-3.5953,-3.5953,-3.5953,-3.5923,-3.5871,-3.5871,-3.5802,-3.5707,-3.5707,-3.5696,-3.5682,-3.57,-3.5284,-3.4683,-3.4701,-3.3635,-3.2079,-3.1207,-3.0801,-3.0684,-3.0684,-3.0633,-3.0603,-3.0603,-3.0603,-3.0603,-3.0603,-3.0603,-3.0603,-3.0603,-3.0594,-3.025,-2.8973,-2.8489,-2.8076,-2.7261,-2.7056,-2.6817,-2.6148,-2.5902,-2.5815,-2.5873,-2.5759,-2.5657,-2.5597,-2.5573,-2.5561,-2.5517,-2.5491,-2.5511,-2.559,-2.5573,-2.5604,-2.5661,-2.5661,-2.5661,-2.5661,-2.5682,-2.5683,-2.5683,-2.5683,-2.5703,-2.5703,-2.5703,-2.5703,-2.5703,-2.5703,-2.5703,-2.5703,-2.5703,-2.5703,-2.5703,-2.5703,-2.5703,-2.5703,-2.5703,-2.5703,-2.5703,-2.5703,-2.5703,-2.5703,-2.5703,-2.5703,-2.5703,-3.55,-3.55,-3.55,-3.55,-3.55,-3.55,-3.55,-3.55,-3.55,-3.55,-3.5501,-3.5515,-3.5515,-3.5571,-3.5616,-3.5616,-3.5675,-3.569,-3.5626,-3.5616,-3.5585,-3.5522,-3.5534,-3.5534,-3.5534,-3.5574,-3.5661,-3.5723,-3.5735,-3.5738,-3.5738,-3.5738,-3.5738,-3.5738,-3.5738,-3.5732,-3.5723,-3.5723,-3.5717,-3.5707,-3.5707,-3.5671,-3.5611,-3.5675,-3.5593,-3.5456,-3.5519,-3.4465,-3.2894,-3.2035,-3.124,-3.06,-3.06,-3.0611,-3.0603,-3.0603,-3.0603,-3.0603,-3.0603,-3.0603,-3.0603,-3.0603,-3.0567,-3.0475,-3.0322,-2.9697,-2.8902,-2.809,-2.7926,-2.7885,-2.7776,-2.7142,-2.6641,-2.6649,-2.6015,-2.5513,-2.5505,-2.5503,-2.55,-2.5493,-2.5491,-2.5493,-2.5503,-2.5503,-2.5526,-2.5535,-2.5535,-2.5535,-2.5535,-2.5573,-2.5607,-2.5607,-2.5662,-2.5703,-2.5703,-2.5703,-2.5703,-2.5703,-2.5703,-2.5703,-2.5703,-2.5703,-2.5703,-2.5703,-2.5703,-2.5703,-2.5703,-2.5703,-2.5703,-2.5703,-2.5703,-2.5703,-2.5703,-2.5703,-2.5703,-2.5703,-3.55,-3.55,-3.55,-3.55,-3.55,-3.55,-3.55,-3.55,-3.55,-3.55,-3.55,-3.55,-3.55,-3.5534,-3.554,-3.554,-3.5566,-3.5577,-3.5546,-3.554,-3.5528,-3.5507,-3.55,-3.55,-3.55,-3.5541,-3.5556,-3.5585,-3.5671,-3.5707,-3.5707,-3.5707,-3.5707,-3.5707,-3.5707,-3.5675,-3.5638,-3.5638,-3.5616,-3.5585,-3.5585,-3.5566,-3.5546,-3.5577,-3.556,-3.5417,-3.4466,-3.3678,-3.2893,-3.1557,-3.0859,-3.0533,-3.0533,-3.0528,-3.0491,-3.0491,-3.0491,-3.0491,-3.0491,-3.0491,-3.0491,-3.0491,-3.0472,-3.0442,-3.0482,-3.0196,-2.9687,-2.8877,-2.8686,-2.8526,-2.8117,-2.774,-2.7482,-2.7526,-2.7207,-2.6768,-2.6243,-2.6178,-2.5987,-2.5453,-2.5387,-2.539,-2.5444,-2.5447,-2.5465,-2.5508,-2.5491,-2.5491,-2.5491,-2.5535,-2.5549,-2.5549,-2.5567,-2.5604,-2.5637,-2.5637,-2.5661,-2.5703,-2.5703,-2.5703,-2.5703,-2.5703,-2.5703,-2.5703,-2.5703,-2.5703,-2.5703,-2.5703,-2.5703,-2.5703,-2.5703,-2.5703,-2.5703,-2.5703,-2.5703,-2.5703]},{"header":{"parameterUnit":"m.s-1","parameterCategory":1,"la1":30.6,"la2":28.766,"lo1":-90.7593,"lo2":-88.6598,"dy":0.0162,"dx":0.0183,"nx":116,"ny":114,"refTime":"2024-07-08T18:00:00:Z","depth":0,"parameterNumber":3,"parameterNumberName":"V-component_of_WINDS"},"data":[0.0,0.0,0.0,0.0,0.0,0.0,0.0,0.0,0.0,0.0,0.0,0.0,0.0,0.0,0.0,0.0,0.0,0.0,0.0,0.0,0.0,0.0,0.0,0.0,0.0,0.0,0.0,0.0,0.0,0.0,0.0,0.0,0.0,0.0,0.0,0.0,0.0,0.0,0.0,0.0,0.0,0.0,0.0,0.0,0.0,0.0,0.0,0.0,0.0,0.0,0.0,0.0,0.0,0.0,0.0,0.0,0.0,0.0,0.0,0.0,0.0,0.0,0.0,0.0,0.0,0.0,0.0,0.0,0.0,0.0,0.0,0.0,0.0,0.0,0.0,0.0,0.0,0.0,0.0,0.0,0.0,0.0,0.0,0.0,0.0,0.0,0.0,0.0,0.0,0.0,0.0,0.0,0.0,0.0,0.0,0.0,0.0,0.0,0.0,0.0,0.0,0.0,0.0,0.0,0.0,0.0,0.0,0.0,0.0,0.0,0.0,0.0,0.0,0.0,0.0,0.0,0.0,0.0,0.0,0.0,0.0,0.0,0.0,0.0,0.0,0.0,0.0,0.0,0.0,0.0,0.0,0.0,0.0,0.0,0.0,0.0,0.0,0.0,0.0,0.0,0.0,0.0,0.0,0.0,0.0,0.0,0.0,0.0,0.0,0.0,0.0,0.0,0.0,0.0,0.0,0.0,0.0,0.0,0.0,0.0,0.0,0.0,0.0,0.0,0.0,0.0,0.0,0.0,0.0,0.0,0.0,0.0,0.0,0.0,0.0,0.0,0.0,0.0,0.0,0.0,0.0,0.0,0.0,0.0,0.0,0.0,0.0,0.0,0.0,0.0,0.0,0.0,0.0,0.0,0.0,0.0,0.0,0.0,0.0,0.0,0.0,0.0,0.0,0.0,0.0,0.0,0.0,0.0,0.0,0.0,0.0,0.0,0.0,0.0,0.0,0.0,0.0,0.0,0.0,0.0,0.0,0.0,0.0,0.0,0.0,0.0,0.0,0.0,0.0,0.0,0.0,0.0,0.0,0.0,0.0,0.0,0.0,0.0,0.0,0.0,0.0,0.0,0.0,0.0,0.0,0.0,0.0,0.0,0.0,0.0,0.0,0.0,0.0,0.0,0.0,0.0,0.0,0.0,0.0,0.0,0.0,0.0,0.0,0.0,0.0,0.0,0.0,0.0,0.0,0.0,0.0,0.0,0.0,0.0,0.0,0.0,0.0,0.0,0.0,0.0,0.0,0.0,0.0,0.0,0.0,0.0,0.0,0.0,0.0,0.0,0.0,0.0,0.0,0.0,0.0,0.0,0.0,0.0,0.0,0.0,0.0,0.0,0.0,0.0,0.0,0.0,0.0,0.0,0.0,0.0,0.0,0.0,0.0,0.0,0.0,0.0,0.0,0.0,0.0,0.0,0.0,0.0,0.0,0.0,0.0,0.0,0.0,0.0,0.0,0.0,0.0,0.0,0.0,0.0,0.0,0.0,0.0,0.0,0.0,0.0,0.0,0.0,0.0,0.0,0.0,0.0,0.0,0.0,0.0,0.0,0.0,0.0,0.0,0.0,0.0,0.0,0.0,0.0,0.0,0.0,0.0,0.0,0.0,0.0,0.0,0.0,0.0,0.0,0.0,0.0,0.0,0.0,0.0,0.0,0.0,0.0,0.0,0.0,0.0,0.0,0.0,0.0,0.0,0.0,0.0,0.0,0.0,0.0,0.0,0.0,0.0,0.0,0.0,0.0,0.0,0.0,0.0,0.0,0.0,0.0,0.0,0.0,0.0,0.0,0.0,0.0,0.0,0.0,0.0,0.0,0.0,0.0,0.0,0.0,0.0,0.0,0.0,0.0,0.0,0.0,0.0,0.0,0.0,0.0,0.0,0.0,0.0,0.0,0.0,0.0,0.0,0.0,0.0,0.0,0.0,0.0,0.0,0.0,0.0,0.0,0.0,0.0,0.0,0.0,0.0,0.0,0.0,0.0,0.0,0.0,0.0,0.0,0.0,0.0,0.0,0.0,0.0,0.0,0.0,0.0,0.0,0.0,0.0,0.0,0.0,0.0,0.0,0.0,0.0,0.0,0.0,0.0,0.0,0.0,0.0,0.0,0.0,0.0,0.0,0.0,0.0,0.0,0.0,0.0,0.0,0.0,0.0,0.0,0.0,0.0,0.0,0.0,0.0,0.0,0.0,0.0,0.0,0.0,0.0,0.0,0.0,0.0,0.0,0.0,0.0,0.0,0.0,0.0,0.0,0.0,0.0,0.0,0.0,0.0,0.0,0.0,0.0,0.0,0.0,0.0,0.0,0.0,0.0,0.0,0.0,0.0,0.0,0.0,0.0,0.0,0.0,0.0,0.0,0.0,0.0,0.0,0.0,0.0,0.0,0.0,0.0,0.0,0.0,0.0,0.0,0.0,0.0,0.0,0.0,0.0,0.0,0.0,0.0,0.0,0.0,0.0,0.0,0.0,0.0,0.0,0.0,0.0,0.0,0.0,0.0,0.0,0.0,0.0,0.0,0.0,0.0,0.0,0.0,0.0,0.0,0.0,0.0,0.0,0.0,0.0,0.0,0.0,0.0,0.0,0.0,0.0,0.0,0.0,0.0,0.0,0.0,0.0,0.0,0.0,0.0,0.0,0.0,0.0,0.0,0.0,0.0,0.0,0.0,0.0,0.0,0.0,0.0,0.0,0.0,0.0,0.0,0.0,0.0,0.0,0.0,0.0,0.0,0.0,0.0,0.0,0.0,0.0,0.0,0.0,0.0,0.0,0.0,0.0,0.0,0.0,0.0,0.0,0.0,0.0,0.0,0.0,0.0,0.0,0.0,0.0,0.0,0.0,0.0,0.0,0.0,0.0,0.0,0.0,0.0,0.0,0.0,0.0,0.0,0.0,0.0,0.0,0.0,0.0,0.0,0.0,0.0,0.0,0.0,0.0,0.0,0.0,0.0,0.0,0.0,0.0,0.0,0.0,0.0,0.0,0.0,0.0,0.0,0.0,0.0,0.0,0.0,0.0,0.0,0.0,0.0,0.0,0.0,0.0,0.0,0.0,0.0,0.0,0.0,0.0,0.0,0.0,0.0,0.0,0.0,0.0,0.0,0.0,0.0,0.0,0.0,0.0,0.0,0.0,0.0,0.0,0.0,0.0,0.0,0.0,0.0,0.0,0.0,0.0,0.0,0.0,0.0,0.0,0.0,0.0,0.0,0.0,0.0,0.0,0.0,0.0,0.0,0.0,0.0,0.0,0.0,0.0,0.0,0.0,0.0,0.0,0.0,0.0,0.0,0.0,0.0,0.0,0.0,0.0,0.0,0.0,0.0,0.0,0.0,0.0,0.0,0.0,0.0,0.0,0.0,0.0,0.0,0.0,0.0,0.0,0.0,0.0,0.0,0.0,0.0,0.0,0.0,0.0,0.0,0.0,0.0,0.0,0.0,0.0,0.0,0.0,0.0,0.0,0.0,0.0,0.0,0.0,0.0,0.0,0.0,0.0,0.0,0.0,0.0,0.0,0.0,0.0,0.0,0.0,0.0,0.0,0.0,0.0,0.0,0.0,0.0,0.0,0.0,0.0,0.0,0.0,0.0,0.0,0.0,0.0,0.0,0.0,0.0,0.0,0.0,0.0,0.0,0.0,0.0,0.0,0.0,0.0,0.0,0.0,0.0,0.0,0.0,0.0,0.0,0.0,0.0,0.0,0.0,0.0,0.0,0.0,0.0,0.0,0.0,0.0,0.0,0.0,0.0,0.0,0.0,0.0,0.0,0.0,0.0,0.0,0.0,0.0,0.0,0.0,0.0,0.0,0.0,0.0,0.0,0.0,0.0,0.0,0.0,0.0,0.0,0.0,0.0,0.0,0.0,0.0,0.0,0.0,0.0,0.0,0.0,0.0,0.0,0.0,0.0,0.0,0.0,0.0,0.0,0.0,0.0,0.0,0.0,0.0,0.0,0.0,0.0,0.0,0.0,0.0,0.0,0.0,0.0,0.0,0.0,0.0,0.0,0.0,0.0,0.0,0.0,0.0,0.0,0.0,0.0,0.0,0.0,0.0,0.0,0.0,0.0,0.0,0.0,0.0,0.0,0.0,0.0,0.0,0.0,0.0,0.0,0.0,0.0,0.0,0.0,0.0,0.0,0.0,0.0,0.0,0.0,0.0,0.0,0.0,0.0,0.0,0.0,0.0,0.0,0.0,0.0,0.0,0.0,0.0,0.0,0.0,0.0,0.0,0.0,0.0,0.0,0.0,0.0,0.0,0.0,0.0,0.0,0.0,0.0,0.0,0.0,0.0,0.0,0.0,0.0,0.0,0.0,0.0,0.0,0.0,0.0,0.0,0.0,0.0,0.0,0.0,0.0,0.0,0.0,0.0,0.0,0.0,0.0,0.0,0.0,0.0,0.0,0.0,0.0,0.0,0.0,0.0,0.0,0.0,0.0,0.0,0.0,0.0,0.0,0.0,0.0,0.0,0.0,0.0,0.0,0.0,0.0,0.0,0.0,0.0,0.0,0.0,0.0,0.0,0.0,0.0,0.0,0.0,0.0,0.0,0.0,0.0,0.0,0.0,0.0,0.0,0.0,0.0,0.0,0.0,0.0,0.0,0.0,0.0,0.0,0.0,0.0,0.0,0.0,0.0,0.0,0.0,0.0,0.0,0.0,0.0,0.0,0.0,0.0,0.0,0.0,0.0,0.0,0.0,0.0,0.0,0.0,0.0,0.0,0.0,0.0,0.0,0.0,0.0,0.0,0.0,0.0,0.0,0.0,0.0,0.0,0.0,0.0,0.0,0.0,0.0,0.0,0.0,0.0,0.0,0.0,0.0,0.0,0.0,0.0,0.0,0.0,0.0,0.0,0.0,0.0,0.0,0.0,0.0,0.0,0.0,0.0,0.0,0.0,0.0,0.0,0.0,0.0,0.0,0.0,0.0,0.0,0.0,0.0,0.0,0.0,0.0,0.0,0.0,0.0,0.0,0.0,0.0,0.0,0.0,0.0,0.0,0.0,0.0,0.0,0.0,0.0,0.0,0.0,0.0,0.0,0.0,0.0,0.0,0.0,0.0,0.0,0.0,0.0,0.0,0.0,0.0,0.0,0.0,0.0,0.0,0.0,0.0,0.0,0.0,0.0,0.0,0.0,0.0,0.0,0.0,0.0,0.0,0.0,0.0,0.0,0.0,0.0,0.0,0.0,0.0,0.0,0.0,0.0,0.0,0.0,0.0,0.0,0.0,0.0,0.0,0.0,0.0,0.0,0.0,0.0,0.0,0.0,0.0,0.0,0.0,0.0,0.0,0.0,0.0,0.0,0.0,0.0,0.0,0.0,0.0,0.0,0.0,0.0,0.0,0.0,0.0,0.0,0.0,0.0,0.0,0.0,0.0,0.0,0.0,0.0,0.0,0.0,0.0,0.0,0.0,0.0,0.0,0.0,0.0,0.0,0.0,0.0,0.0,0.0,0.0,0.0,0.0,0.0,0.0,0.0,0.0,0.0,0.0,0.0,0.0,0.0,0.0,0.0,0.0,0.0,0.0,0.0,0.0,0.0,0.0,0.0,0.0,0.0,0.0,0.0,0.0,0.0,0.0,0.0,0.0,0.0,0.0,0.0,0.0,0.0,0.0,0.0,0.0,0.0,0.0,0.0,0.0,0.0,0.0,0.0,0.0,0.0,0.0,0.0,0.0,0.0,0.0,0.0,0.0,0.0,0.0,0.0,0.0,0.0,0.0,0.0,0.0,0.0,0.0,0.0,0.0,0.0,0.0,0.0,0.0,0.0,0.0,0.0,0.0,0.0,0.0,0.0,0.0,0.0,0.0,0.0,0.0,0.0,0.0,0.0,0.0,0.0,0.0,0.0,0.0,0.0,0.0,0.0,0.0,0.0,0.0,0.0,0.0,0.0,0.0,0.0,0.0,0.0,0.0,0.0,0.0,0.0,0.0,0.0,0.0,0.0,0.0,0.0,0.0,0.0,0.0,0.0,0.0,0.0,0.0,0.0,0.0,0.0,0.0,0.0,0.0,0.0,0.0,0.0,0.0,0.0,0.0,0.0,0.0,0.0,0.0,0.0,0.0,0.0,0.0,0.0,0.0,0.0,0.0,0.0,0.0,-1.0654,0.0,0.0,0.0,0.0,0.0,0.0,0.0,0.0,0.0,0.0,0.0,0.0,0.0,0.0,0.0,0.0,0.0,0.0,0.0,0.0,0.0,0.0,0.0,0.0,-0.4252,-0.4089,-0.4089,-0.3848,-0.3689,-0.3689,0.0,0.0,0.0,0.0,0.0,-0.3495,-0.3495,-0.3645,-0.3936,-0.4102,-0.4409,-0.4803,-0.4489,-0.4205,-0.3924,0.0,0.0,0.0,0.0,0.0,0.0,0.0,0.0,0.0,0.0,0.0,0.0,0.0,0.0,0.0,0.0,0.0,0.0,0.0,0.0,0.0,0.0,0.0,0.0,0.0,0.0,0.0,0.0,0.0,0.0,0.0,0.0,0.0,0.0,0.0,0.0,0.0,0.0,0.0,0.0,0.0,0.0,0.0,0.0,0.0,0.0,0.0,0.0,0.0,0.0,0.0,0.0,0.0,0.0,0.0,0.0,0.0,0.0,0.0,0.0,0.0,0.0,0.0,0.0,0.0,0.0,0.0,0.0,0.0,0.0,0.0,-1.1943,0.0,0.0,0.0,0.0,0.0,0.0,0.0,0.0,0.0,0.0,0.0,0.0,0.0,0.0,0.0,0.0,0.0,0.0,0.0,0.0,0.0,-0.4765,-0.4765,-0.4527,-0.4409,-0.4478,-0.4171,-0.4006,-0.408,0.0,0.0,0.0,0.0,-0.3495,-0.3495,-0.3559,-0.3856,-0.4402,-0.4609,-0.513,-0.5921,-0.5921,-0.5534,0.0,-0.4689,0.0,0.0,0.0,0.0,0.0,0.0,0.0,0.0,0.0,0.0,0.0,0.0,0.0,0.0,0.0,0.0,0.0,0.0,0.0,0.0,0.0,0.0,0.0,0.0,0.0,0.0,0.0,0.0,0.0,0.0,0.0,0.0,0.0,0.0,0.0,0.0,0.0,0.0,0.0,0.0,0.0,0.0,0.0,0.0,0.0,0.0,0.0,0.0,0.0,0.0,0.0,0.0,0.0,0.0,0.0,0.0,0.0,0.0,0.0,0.0,0.0,0.0,0.0,-1.7311,-1.7233,-1.6931,-1.7077,-1.7145,-1.7048,-1.5293,-1.4453,-1.4231,0.0,0.0,0.0,0.0,0.0,0.0,0.0,0.0,0.0,0.0,0.0,0.0,0.0,0.0,0.0,0.0,0.0,0.0,0.0,0.0,-0.5049,-0.5049,-0.4814,-0.4809,-0.5222,-0.4641,-0.4424,-0.4832,-0.4228,0.0,0.0,-0.3626,-0.3495,-0.3495,-0.3792,-0.4087,-0.4402,-0.544,-0.6258,-0.6833,-0.6833,0.0,-0.6627,-0.5861,-0.5675,0.0,0.0,0.0,0.0,0.0,0.0,0.0,0.0,0.0,0.0,0.0,0.0,0.0,0.0,0.0,0.0,0.0,0.0,0.0,0.0,0.0,0.0,0.0,0.0,0.0,0.0,0.0,0.0,0.0,0.0,0.0,0.0,0.0,0.0,0.0,0.0,0.0,0.0,0.0,0.0,0.0,0.0,-0.7894,-0.9161,0.0,0.0,0.0,0.0,0.0,0.0,0.0,0.0,0.0,0.0,0.0,0.0,0.0,0.0,-1.4363,-1.583,-1.6726,-1.7116,-1.8164,-1.8369,-1.7861,-1.8613,-1.8955,-1.8936,-1.8652,0.0,-1.5176,-1.4231,0.0,0.0,0.0,0.0,0.0,0.0,0.0,0.0,0.0,0.0,0.0,0.0,0.0,0.0,0.0,0.0,0.0,0.0,0.0,0.0,0.0,-0.5595,-0.5842,-0.6315,-0.6127,-0.5865,0.0,0.0,0.0,-0.3926,-0.3786,-0.374,-0.3786,-0.4074,-0.469,-0.5631,-0.6653,-0.7368,-0.7782,0.0,0.0,0.0,-0.7455,-0.6928,-0.6385,0.0,0.0,0.0,0.0,0.0,0.0,0.0,0.0,0.0,0.0,0.0,0.0,0.0,0.0,0.0,0.0,0.0,0.0,0.0,0.0,0.0,0.0,0.0,0.0,0.0,0.0,0.0,0.0,0.0,0.0,0.0,0.0,0.0,0.0,0.0,0.0,0.0,0.0,0.0,0.0,-0.8064,-0.9496,-1.0277,-1.0278,-1.0126,0.0,0.0,0.0,0.0,0.0,0.0,0.0,0.0,0.0,-1.5033,-1.512,-1.5567,-1.6494,-1.7725,-1.835,-1.835,-1.8867,-1.9228,-1.9453,-1.9871,-2.0048,-2.0048,-2.0048,-1.9392,-1.8203,-1.6865,-1.5518,-1.417,0.0,0.0,0.0,0.0,-1.3506,-1.4844,0.0,0.0,0.0,0.0,0.0,0.0,0.0,0.0,0.0,0.0,0.0,0.0,-0.59,-0.6328,-0.6816,-0.7383,0.0,0.0,0.0,0.0,0.0,-0.4478,-0.4268,-0.4193,-0.4209,-0.4698,-0.5688,-0.7189,-0.7744,0.0,0.0,0.0,0.0,0.0,0.0,0.0,0.0,0.0,0.0,0.0,0.0,0.0,0.0,0.0,0.0,0.0,0.0,0.0,0.0,0.0,0.0,0.0,0.0,0.0,0.0,0.0,0.0,0.0,0.0,0.0,0.0,0.0,0.0,0.0,0.0,0.0,0.0,0.0,0.0,0.0,0.0,0.0,0.0,0.0,0.0,0.0,0.0,-0.9624,-1.0937,-1.1357,-1.2015,-1.2191,0.0,0.0,0.0,0.0,0.0,0.0,-1.466,-1.557,-1.6381,-1.7054,-1.7668,-1.8223,-1.8662,-1.9521,-1.9951,-1.9951,-1.9727,-1.9989,-2.0615,-2.1025,-2.1221,-2.1211,-2.1036,-2.0938,-2.083,-1.9277,-1.79,-1.6562,-1.4863,-1.4326,-1.4647,-1.5469,-1.7676,-2.0038,0.0,0.0,0.0,0.0,0.0,0.0,0.0,0.0,0.0,0.0,0.0,-0.5919,-0.6328,0.0,-0.7402,0.0,0.0,0.0,0.0,0.0,0.0,-0.5902,-0.5284,-0.4889,-0.4765,-0.5896,-0.7231,0.0,0.0,0.0,0.0,0.0,0.0,0.0,0.0,0.0,0.0,0.0,0.0,0.0,0.0,0.0,0.0,0.0,0.0,0.0,0.0,0.0,0.0,0.0,0.0,0.0,0.0,0.0,0.0,0.0,0.0,0.0,0.0,0.0,0.0,0.0,0.0,0.0,0.0,0.0,0.0,0.0,0.0,0.0,0.0,0.0,0.0,0.0,0.0,0.0,0.0,0.0,0.0,-1.2725,-1.3903,0.0,0.0,0.0,0.0,-1.5128,-1.4752,-1.5268,-1.7113,-1.7613,-1.8247,-1.9124,-1.9971,-2.0449,-2.0478,-2.1309,-2.1758,-2.1748,-2.0938,-2.0566,-2.0664,-2.2266,-2.2964,-2.2925,-2.2168,-2.1816,-2.1748,-2.086,-2.0429,-2.0175,-1.8418,-1.8252,-1.9072,-1.9959,-1.9901,-1.9453,0.0,0.0,0.0,-0.5127,-0.5098,-0.5098,-0.5098,-0.5098,-0.5098,-0.5098,-0.5731,0.0,0.0,0.0,0.0,0.0,0.0,0.0,0.0,0.0,-0.7334,-0.6855,-0.6611,-0.6819,-0.7557,-0.7911,-0.8671,0.0,0.0,0.0,0.0,0.0,0.0,0.0,0.0,0.0,0.0,0.0,0.0,0.0,0.0,0.0,0.0,0.0,0.0,0.0,0.0,0.0,0.0,0.0,0.0,0.0,0.0,0.0,0.0,0.0,0.0,0.0,0.0,0.0,0.0,0.0,0.0,0.0,0.0,0.0,0.0,0.0,0.0,0.0,0.0,0.0,0.0,0.0,0.0,0.0,0.0,0.0,0.0,-1.4394,-1.541,0.0,0.0,-1.5785,-1.6162,-1.666,-1.6983,-1.7726,-1.8955,-1.9424,-2.0059,-2.0937,-2.126,-2.1504,-2.167,-2.1992,-2.2334,-2.2685,-2.2373,-2.2227,-2.2246,-2.2818,-2.3091,-2.3052,-2.2432,-2.2148,-2.2109,-2.1662,-2.1124,-2.0546,-1.993,-1.9881,-2.0145,-2.0049,-2.0068,-2.0116,-0.5595,-0.5502,0.0,-0.5146,-0.5098,-0.5098,-0.5098,-0.5098,-0.5156,-0.5322,-0.6092,-0.6865,0.0,0.0,0.0,0.0,0.0,0.0,0.0,0.0,-0.8377,-0.79,-0.7823,-0.8379,-0.9579,-0.9489,0.0,0.0,0.0,0.0,0.0,0.0,0.0,0.0,0.0,0.0,0.0,0.0,0.0,0.0,0.0,0.0,-0.6074,0.0,0.0,0.0,0.0,0.0,0.0,0.0,0.0,0.0,0.0,0.0,0.0,0.0,0.0,0.0,0.0,0.0,0.0,0.0,0.0,0.0,0.0,0.0,0.0,0.0,0.0,0.0,0.0,0.0,0.0,0.0,0.0,0.0,0.0,0.0,-1.4713,-1.5065,-1.6565,-1.7363,-1.6845,-1.7687,-1.8359,-1.8662,-1.9163,-1.9787,-2.0537,-2.085,-2.1388,-2.207,-2.1704,-2.1627,-2.194,-2.2355,-2.2764,-2.3091,-2.3091,-2.3091,-2.3091,-2.3091,-2.3091,-2.3071,-2.2744,-2.2578,-2.2559,-2.2383,-2.1875,-2.1241,-2.0987,-2.085,-2.083,-2.0664,-2.0674,-2.0693,-0.5605,-0.5502,-0.5416,-0.5146,-0.5108,-0.5108,-0.5098,-0.5108,-0.5273,-0.5744,-0.6575,0.0,0.0,0.0,0.0,0.0,0.0,0.0,0.0,-0.9492,-0.9033,-0.9062,-0.894,-0.9437,-1.0647,0.0,0.0,0.0,0.0,0.0,0.0,0.0,0.0,0.0,0.0,0.0,0.0,0.0,0.0,0.0,0.0,0.0,-0.6966,0.0,0.0,0.0,0.0,0.0,0.0,0.0,0.0,0.0,0.0,0.0,0.0,0.0,0.0,0.0,0.0,0.0,0.0,0.0,0.0,0.0,0.0,0.0,0.0,0.0,0.0,0.0,0.0,0.0,0.0,0.0,0.0,0.0,-1.2426,-1.4859,-1.6183,-1.4818,-1.7401,-1.8715,-1.7252,-1.8834,-2.0294,-2.1151,-2.121,-2.1445,-2.1875,-2.1904,-2.21,-2.2434,-2.1315,-2.0914,-2.1293,-2.2448,-2.3047,-2.3047,-2.3047,-2.3047,-2.3003,-2.296,-2.296,-2.296,-2.296,-2.3003,-2.3047,-2.3047,-2.2857,-2.2461,-2.1728,-2.1445,-2.1494,-2.207,-2.1846,-2.1151,-0.5845,-0.5633,-0.5416,-0.5146,-0.5262,-0.532,-0.5127,-0.5262,-0.5492,-0.5766,-0.6816,0.0,0.0,0.0,0.0,0.0,0.0,0.0,-1.0303,-0.9766,-0.9718,-1.0342,-1.0483,0.0,-1.223,0.0,0.0,0.0,0.0,0.0,0.0,0.0,0.0,0.0,0.0,0.0,0.0,0.0,0.0,0.0,0.0,0.0,-0.7619,0.0,0.0,0.0,0.0,0.0,0.0,0.0,0.0,0.0,0.0,0.0,0.0,0.0,0.0,0.0,0.0,0.0,0.0,0.0,0.0,0.0,0.0,0.0,0.0,0.0,0.0,0.0,0.0,0.0,0.0,0.0,0.0,-1.4952,-1.5032,-1.5595,-1.6477,-1.784,-1.8639,-1.9347,-1.9983,-2.0857,-2.1445,-2.1689,-2.1709,-2.1894,-2.2314,-2.2344,-2.2126,-2.1625,-2.1316,-2.1184,-2.1293,-2.1614,-2.18,-2.18,-2.1489,-2.1346,-2.1302,-2.0133,-1.9642,-1.9642,-2.0223,-2.0989,-2.18,-2.18,-2.224,-2.2877,-2.2402,-2.2021,-2.1777,-2.1934,-2.1875,-2.1689,-0.5936,-0.568,-0.5416,-0.5146,-0.5233,-0.5282,-0.5117,-0.5233,-0.5502,-0.598,-0.6862,0.0,0.0,0.0,0.0,0.0,0.0,0.0,-0.9756,-0.9844,-1.0224,-1.0997,0.0,0.0,0.0,0.0,0.0,0.0,0.0,0.0,0.0,0.0,0.0,0.0,0.0,0.0,0.0,0.0,0.0,0.0,0.0,0.0,-0.8238,-0.7986,-0.7658,-0.7323,-0.7069,-0.6868,-0.6707,-0.6458,0.0,0.0,0.0,0.0,0.0,0.0,0.0,0.0,0.0,0.0,0.0,0.0,0.0,0.0,0.0,0.0,0.0,0.0,0.0,0.0,0.0,0.0,0.0,0.0,-1.4575,-1.6245,-1.7503,-1.7561,-1.7695,-1.8315,-1.9303,-2.0012,-2.0296,-2.095,-2.1692,-2.235,-2.1916,-2.1755,-2.1991,-2.201,-2.1535,-2.0567,-2.0531,-2.0531,-2.0531,-2.0531,-2.0531,-2.0531,-2.08,-2.0711,-2.0169,-1.9761,-1.9268,0.0,-1.9314,-1.9898,-2.0531,-2.0531,-2.0944,0.0,0.0,0.0,0.0,0.0,-2.2148,-2.2129,-0.5891,-0.5661,-0.5416,-0.5146,-0.5175,-0.5204,-0.5108,-0.5146,-0.548,-0.6289,0.0,0.0,0.0,0.0,0.0,0.0,0.0,0.0,0.0,0.0,0.0,-1.1286,-1.1851,0.0,0.0,0.0,0.0,0.0,0.0,0.0,0.0,0.0,0.0,0.0,0.0,0.0,0.0,0.0,0.0,0.0,0.0,0.0,-0.8778,-0.8549,-0.8449,-0.8375,-0.7832,-0.7638,-0.7558,-0.7035,0.0,0.0,0.0,0.0,0.0,0.0,0.0,0.0,0.0,0.0,0.0,0.0,0.0,0.0,0.0,0.0,0.0,0.0,0.0,0.0,0.0,0.0,0.0,0.0,-1.534,-1.6756,-1.9477,-1.9945,-1.937,-1.7561,-1.9331,-2.0255,-1.9159,-2.0097,-2.1379,-2.279,-2.1889,-2.1293,-2.1293,0.0,0.0,0.0,0.0,-1.9443,-1.9314,-1.9443,-1.9443,-1.9314,-2.0395,-2.026,-1.9123,-2.0206,-2.0116,-1.9077,-1.9077,-1.9177,-1.9314,-1.9314,-1.9451,-1.9898,-2.1908,-2.2775,-2.2858,-2.25,-2.245,-2.2529,-0.5623,-0.554,-0.5416,-0.5146,-0.5591,-0.5784,-0.5195,-0.5472,-0.5895,-0.6337,-0.6816,0.0,0.0,0.0,0.0,0.0,0.0,0.0,0.0,0.0,0.0,0.0,0.0,0.0,0.0,0.0,0.0,0.0,0.0,0.0,0.0,0.0,0.0,0.0,0.0,0.0,0.0,0.0,0.0,0.0,0.0,0.0,-0.8798,-0.8744,-0.8724,-0.8711,-0.8591,-0.8544,-0.853,-0.8417,-0.8039,-0.7626,-0.7513,0.0,0.0,0.0,0.0,0.0,0.0,0.0,0.0,0.0,0.0,0.0,0.0,0.0,0.0,0.0,0.0,0.0,0.0,0.0,0.0,-1.5234,-1.6257,-1.7317,-1.9214,-2.0311,-2.0469,-1.9131,-1.817,-1.7953,-1.8778,-2.0279,-2.13,-2.1604,-2.1426,-2.1293,-2.1293,-2.0395,0.0,-1.8095,-1.8993,-1.9039,-1.8048,-1.8993,-1.8993,-1.8048,0.0,0.0,-1.652,-1.6741,-1.6741,-1.652,-1.652,-1.7077,-1.8056,-1.8056,-1.9177,-2.089,-2.0395,-2.08,-2.1649,-2.1575,-2.2149,-2.2964,-0.5559,-0.5387,-0.5301,-0.5301,-0.5613,-0.5723,-0.5358,-0.5529,-0.5791,-0.6062,-0.6311,0.0,0.0,0.0,0.0,0.0,0.0,0.0,0.0,0.0,0.0,0.0,0.0,0.0,0.0,0.0,0.0,0.0,0.0,0.0,0.0,0.0,0.0,0.0,0.0,0.0,0.0,0.0,0.0,0.0,0.0,0.0,-0.8984,-0.8864,-0.8804,-0.8804,-0.8804,-0.8804,-0.8804,-0.8804,-0.8585,-0.8318,-0.8196,-0.7842,-0.739,0.0,0.0,0.0,0.0,0.0,0.0,0.0,0.0,0.0,0.0,0.0,0.0,0.0,0.0,-1.0167,-1.1049,0.0,-1.3933,-1.5574,-1.6499,-1.7431,-1.8633,-1.8397,-1.8124,-1.821,-1.852,-1.8864,-1.9138,-1.9336,-1.9988,-2.1203,-2.0169,-1.9497,-1.9497,-1.891,-1.8041,-1.6803,-1.7948,-1.8326,-1.7692,-1.8319,-1.8319,-1.7692,-1.7692,-1.7037,-1.5825,-1.648,-1.6386,-1.5832,-1.648,-1.7131,-1.7738,-1.8365,-1.9314,-2.035,-1.9716,-2.0629,-2.2217,-2.2217,-2.2589,-2.3091,-0.554,-0.5282,-0.5166,-0.5377,-0.5511,-0.5549,-0.5445,-0.5473,-0.5581,-0.5777,-0.5803,-0.5949,-0.6357,-0.6394,-0.6462,0.0,0.0,0.0,0.0,0.0,0.0,0.0,0.0,0.0,0.0,0.0,0.0,0.0,0.0,0.0,0.0,0.0,0.0,0.0,0.0,0.0,0.0,0.0,0.0,0.0,0.0,0.0,-0.9178,-0.8891,-0.8804,-0.8804,-0.8804,-0.8771,-0.8731,-0.8791,-0.8771,-0.8691,-0.8543,-0.8449,-0.8255,-0.7502,-0.7375,0.0,0.0,0.0,0.0,0.0,0.0,0.0,0.0,0.0,-0.9686,-1.0727,-1.1022,-1.1465,-1.2586,-1.4066,-1.535,-1.6016,-1.68,-1.7488,-1.7913,-1.6876,-1.6378,-1.7047,-1.8851,-1.9707,-1.8862,-1.8319,-1.8772,-2.0486,-1.8818,-1.7777,-1.8048,-1.7591,-1.699,-1.6197,-1.7178,-1.7598,-1.7318,-1.7598,-1.7598,-1.7318,-1.7318,-1.6803,-1.5832,-1.685,-1.6756,-1.5879,-1.6897,-1.7318,-1.7451,-1.8902,-1.9497,-1.9542,-2.0042,-2.1409,-2.3047,-2.2818,-2.2906,-2.3091,-0.5502,-0.5282,-0.5108,-0.5137,-0.5538,-0.5687,-0.5214,-0.5349,-0.5581,-0.5777,-0.5803,-0.5949,-0.6357,-0.6394,-0.6706,0.0,0.0,0.0,0.0,0.0,0.0,0.0,0.0,0.0,0.0,0.0,0.0,0.0,0.0,0.0,0.0,0.0,0.0,0.0,0.0,0.0,0.0,0.0,0.0,0.0,0.0,0.0,-0.9178,-0.8891,-0.8804,-0.8804,-0.8804,-0.8644,-0.8489,-0.8717,-0.8637,-0.8489,-0.8691,-0.8584,-0.8382,-0.8281,0.0,-0.7538,-0.7699,-0.8023,-0.8422,-0.8884,-0.9292,-0.9909,0.0,0.0,-1.1672,-1.2024,-1.2538,-1.3249,-1.432,-1.4354,-1.4948,-1.7205,-1.7966,-1.7999,-1.7236,-1.8833,-1.947,-1.7818,-1.7622,-1.7242,-1.6304,-1.8079,-1.8956,-1.8141,-1.787,-1.8187,-1.9222,-1.721,-1.648,-1.7458,-1.7645,-1.7178,-1.6015,-1.7131,-1.7131,-1.6015,-1.6015,-1.592,-1.5784,-1.5967,-1.592,-1.5832,-1.5967,-1.6015,-1.6197,-1.8534,-1.9497,-1.9724,-2.1863,-2.2862,-2.296,-2.1889,-2.2173,-2.3091,-0.5502,-0.5282,-0.5098,-0.5098,-0.5416,-0.5586,-0.5368,-0.5435,-0.5468,-0.5401,-0.539,-0.5458,-0.5623,-0.5643,-0.5994,-0.6872,-0.7583,0.0,0.0,0.0,0.0,0.0,0.0,0.0,0.0,0.0,0.0,0.0,0.0,0.0,0.0,0.0,0.0,0.0,0.0,0.0,0.0,0.0,0.0,0.0,0.0,0.0,-0.9178,-0.8891,-0.8804,-0.8804,-0.8804,-0.8617,0.0,0.0,-0.8617,-0.8449,-0.8717,-0.8611,-0.8402,-0.8402,-0.8342,0.0,-0.8998,0.0,0.0,0.0,-1.0735,-1.1369,-1.1977,-1.2288,-1.2549,-1.2986,-1.3782,-1.4412,-1.4395,-1.5245,-1.6251,0.0,-1.7282,-1.7393,-1.7393,-1.7523,-1.7319,-1.6472,-1.6856,-1.7379,-1.7902,-1.7576,-1.7436,-1.7684,-1.699,-1.6803,-1.7343,-1.6379,-1.6062,-1.6574,-1.6574,-1.6339,-1.5832,-1.6339,-1.6339,-1.5784,-1.5784,-1.5784,-1.5784,-1.5784,-1.6608,-1.7894,-1.7217,-1.7716,-1.9069,-2.0116,-2.0531,-2.0711,-2.2448,-2.3091,-2.3047,-2.2536,-2.2677,-2.3091,-0.5387,-0.5233,-0.5098,-0.5098,-0.5262,-0.5387,-0.5387,-0.5387,-0.532,-0.5127,-0.5098,-0.5098,-0.5098,-0.5098,-0.5458,-0.6316,-0.7096,-0.8115,0.0,0.0,0.0,0.0,0.0,0.0,0.0,0.0,0.0,0.0,0.0,0.0,0.0,0.0,0.0,0.0,0.0,0.0,0.0,0.0,0.0,0.0,0.0,0.0,-0.9071,-0.8884,-0.8758,-0.8691,-0.8691,-0.8497,0.0,0.0,-0.8322,-0.8188,-0.837,-0.835,-0.8283,-0.8469,-0.8758,-0.9185,-0.982,0.0,0.0,-1.1142,-1.1837,-1.2465,-1.2632,-1.2839,-1.3251,-1.4008,-1.4602,-1.4986,-1.4983,-1.5827,0.0,-1.7144,-1.697,-1.6967,-1.7602,-1.6671,-1.5918,-1.6008,-1.6422,-1.7295,-1.887,-1.7397,-1.6574,-1.7131,-1.6339,-1.5967,-1.6298,-1.5967,-1.5967,-1.6292,-1.5967,-1.5784,-1.5784,-1.5784,-1.5784,-1.5784,-1.5784,-1.5784,-1.5784,-1.5784,-1.6796,-1.8442,-1.7537,-1.8172,-1.9798,-2.0161,-2.0486,-2.0935,-2.2129,-2.2818,-2.3091,-2.3091,-2.3091,-2.3091,-0.5108,-0.5108,-0.5098,-0.5098,-0.5108,-0.5108,-0.5108,-0.5108,-0.5108,-0.5098,-0.5098,-0.5098,-0.5098,-0.5098,-0.5458,-0.6316,-0.6846,-0.733,-0.7848,-0.9742,0.0,0.0,0.0,0.0,0.0,0.0,0.0,0.0,0.0,0.0,0.0,0.0,0.0,0.0,0.0,0.0,0.0,0.0,0.0,0.0,0.0,0.0,-0.8818,-0.8811,-0.8637,-0.8415,-0.8415,0.0,0.0,0.0,-0.7524,-0.754,-0.7547,-0.7709,0.0,-0.8631,-0.9205,0.0,0.0,0.0,-1.1116,-1.1732,-1.2328,-1.2924,-1.3427,-1.3573,-1.3974,-1.5333,-1.4845,-1.4768,-1.6813,-1.5769,-1.541,-1.7927,-1.7692,-1.7319,-1.7632,-1.7385,-1.7288,-1.7585,-1.6341,-1.6054,0.0,-1.7684,-1.7131,-1.5967,-1.5825,-1.6339,-1.7598,-1.648,-1.6386,-1.7598,-1.6433,-1.5784,-1.5784,-1.5784,-1.5784,-1.5784,-1.5784,-1.5784,-1.5784,-1.5784,-1.5825,-1.592,-1.5872,-1.592,-1.6055,-1.7311,-1.8503,-1.967,-2.089,-2.2076,-2.3091,-2.3091,-2.3091,-2.3091,-0.5098,-0.5098,-0.5098,-0.5098,-0.5098,-0.5098,-0.5098,-0.5098,-0.5098,-0.5098,-0.5098,0.0,0.0,0.0,0.0,0.0,-0.6426,-0.7117,-0.8129,-0.865,0.0,0.0,0.0,0.0,0.0,0.0,0.0,0.0,0.0,0.0,0.0,0.0,0.0,0.0,0.0,0.0,0.0,0.0,0.0,0.0,0.0,0.0,-0.8804,-0.8804,-0.8624,-0.8375,0.0,0.0,0.0,0.0,0.0,0.0,-0.7966,0.0,0.0,-0.8838,0.0,0.0,0.0,0.0,-1.1764,-1.2559,-1.3053,-1.3447,-1.3848,-1.3941,-1.3991,-1.4248,-1.446,-1.4551,-1.4598,-1.4637,-1.5227,-1.6773,-1.6287,-1.6206,-1.7517,-1.671,-1.6056,-1.6167,-1.5729,0.0,0.0,0.0,0.0,-1.5832,-1.5784,-1.5967,-1.6433,-1.6015,-1.6015,-1.6433,-1.6015,-1.5784,-1.5784,-1.5784,-1.5784,-1.5784,-1.5784,-1.5784,-1.5784,-1.5784,-1.6251,-1.699,-1.6157,-1.6292,-1.7084,-1.7498,-1.7963,-1.8503,-2.0531,-2.1569,-2.1987,-2.2818,-2.3091,-2.3091,-0.5098,-0.5098,-0.5098,-0.5098,-0.5098,0.0,0.0,0.0,0.0,0.0,0.0,0.0,0.0,0.0,0.0,0.0,0.0,-0.6707,-0.7596,0.0,0.0,0.0,0.0,0.0,0.0,0.0,0.0,0.0,0.0,0.0,0.0,0.0,0.0,0.0,0.0,0.0,0.0,0.0,0.0,0.0,0.0,0.0,-0.8644,-0.8537,-0.831,0.0,0.0,0.0,0.0,0.0,0.0,0.0,0.0,0.0,0.0,0.0,0.0,-1.0361,0.0,-1.1877,-1.2409,-1.3166,-1.354,-1.3854,-1.4041,-1.4008,-1.3924,-1.4012,-1.3956,-1.3811,-1.3526,-1.3611,-1.4443,-1.6464,-1.5612,-1.5534,-1.8011,-1.6625,-1.5438,-1.5538,-1.5464,0.0,0.0,0.0,0.0,-1.5784,-1.5784,-1.5784,-1.5784,-1.5784,-1.5784,-1.5784,-1.5784,-1.5784,-1.5784,-1.5784,-1.5784,-1.5784,-1.5784,-1.5784,-1.5784,-1.5784,-1.6244,-1.6998,-1.6157,-1.6244,-1.7037,-1.7037,-1.7271,-1.787,-1.9405,-2.0531,-2.1382,-2.2164,-2.2721,-2.3091,-0.5098,-0.5098,-0.5098,0.0,0.0,0.0,0.0,0.0,0.0,0.0,0.0,0.0,0.0,0.0,0.0,0.0,0.0,0.0,-0.6293,0.0,0.0,0.0,0.0,-0.843,-0.917,-0.8092,0.0,0.0,0.0,0.0,0.0,0.0,0.0,0.0,0.0,0.0,0.0,0.0,0.0,0.0,0.0,0.0,-0.8348,-0.8012,0.0,0.0,0.0,0.0,0.0,0.0,0.0,0.0,0.0,0.0,0.0,0.0,0.0,-1.1169,-1.1812,-1.2388,-1.2971,-1.348,-1.3881,-1.4082,-1.4068,-1.3834,-1.3797,-1.4491,-1.3349,-1.2554,0.0,0.0,-1.3134,-1.6868,-1.5602,-1.5375,-1.88,-1.7086,-1.5518,0.0,0.0,0.0,0.0,0.0,0.0,-1.5804,0.0,-1.5784,-1.5784,-1.5798,-1.5798,-1.5784,-1.5811,-1.5818,-1.5852,-1.5852,-1.5798,-1.5784,-1.5784,-1.5784,-1.5784,-1.5784,-1.5784,-1.5784,-1.5784,-1.5784,-1.5784,-1.5784,-1.6527,-1.7598,-1.7692,-1.9131,-2.1203,-2.1293,-2.2076,-2.3091,0.0,0.0,0.0,0.0,0.0,0.0,0.0,0.0,0.0,0.0,0.0,0.0,0.0,0.0,0.0,0.0,0.0,0.0,0.0,0.0,0.0,0.0,0.0,0.0,0.0,-0.7816,0.0,0.0,0.0,0.0,0.0,0.0,0.0,0.0,0.0,0.0,0.0,0.0,0.0,0.0,0.0,0.0,-0.8012,0.0,0.0,0.0,0.0,0.0,0.0,0.0,0.0,0.0,0.0,0.0,-1.0307,0.0,0.0,-1.1859,-1.2645,-1.3133,-1.3507,-1.3881,-1.4035,-1.4028,-1.3766,-1.3527,-1.3185,-1.2721,-1.1941,-1.1357,-1.1431,0.0,0.0,-1.407,-1.4578,0.0,-1.6549,-1.6129,0.0,0.0,0.0,-1.5698,-1.5771,-1.5784,0.0,0.0,-1.5952,-1.5784,-1.5784,-1.6039,-1.6059,-1.5791,-1.6253,-1.638,-1.6159,-1.6159,-1.6046,-1.5784,-1.5784,-1.5784,-1.5784,-1.5784,-1.5784,-1.5784,-1.5784,-1.5784,-1.5784,-1.5784,-1.5967,-1.6386,-1.7318,-1.8642,-2.0079,-2.098,-2.2076,-2.3091,0.0,0.0,0.0,0.0,0.0,0.0,0.0,0.0,0.0,0.0,0.0,0.0,0.0,0.0,0.0,0.0,0.0,0.0,0.0,0.0,0.0,0.0,0.0,0.0,0.0,0.0,0.0,0.0,0.0,0.0,0.0,0.0,0.0,0.0,0.0,0.0,0.0,0.0,0.0,0.0,0.0,0.0,0.0,0.0,0.0,0.0,0.0,0.0,0.0,0.0,0.0,-0.9847,-0.9838,-1.0643,-1.1643,-1.1776,0.0,-1.2592,-1.3227,-1.3573,-1.3881,-1.4048,-1.3988,-1.3781,-1.3347,-1.2926,-1.2371,-1.1517,-1.0861,0.0,-1.0238,0.0,0.0,0.0,0.0,0.0,-1.6232,-1.6061,-1.5784,0.0,-1.5784,0.0,-1.5784,-1.5945,-1.6092,0.0,-1.6119,-1.6079,-1.6206,-1.6373,-1.6386,-1.6219,-1.6533,-1.6627,-1.6466,-1.6339,-1.6186,-1.6019,-1.5892,-1.5784,-1.5784,-1.5784,-1.5784,-1.5784,0.0,-1.5784,-1.5784,-1.5784,-1.5784,-1.5872,-1.6574,-1.763,-1.8864,-2.0079,-2.1257,-2.2403,0.0,0.0,0.0,0.0,0.0,0.0,0.0,0.0,0.0,0.0,0.0,0.0,0.0,0.0,0.0,0.0,0.0,0.0,0.0,0.0,0.0,0.0,0.0,0.0,0.0,0.0,0.0,0.0,0.0,0.0,0.0,0.0,0.0,0.0,0.0,0.0,0.0,0.0,0.0,0.0,0.0,0.0,0.0,0.0,0.0,0.0,0.0,0.0,0.0,0.0,-0.9854,-1.0694,-1.0712,-1.1697,-1.276,-1.2501,-1.2799,-1.328,-1.3573,-1.3895,-1.4088,-1.4088,-1.3834,-1.3387,-1.2864,-1.2241,-1.1538,-1.066,0.0,0.0,-0.9573,0.0,-1.1017,-1.3416,0.0,-1.4448,-1.6661,-1.6237,-1.5738,-1.5778,-1.5784,-1.5784,-1.5784,-1.6059,-1.6233,-1.6321,-1.6321,-1.638,-1.6633,-1.6687,-1.6707,-1.6707,-1.6667,-1.6647,-1.6647,-1.64,-1.6301,-1.6213,-1.5952,-1.5784,-1.5784,-1.5784,-1.5784,-1.5784,0.0,0.0,-1.5784,-1.5784,-1.5784,-1.5784,-1.5784,-1.6662,-1.8048,-1.9131,-2.035,-2.1712,0.0,0.0,0.0,0.0,0.0,0.0,0.0,0.0,0.0,0.0,-0.5355,-0.5162,0.0,0.0,0.0,0.0,0.0,0.0,0.0,0.0,0.0,0.0,0.0,0.0,0.0,0.0,0.0,0.0,0.0,0.0,0.0,0.0,0.0,0.0,0.0,0.0,0.0,0.0,0.0,0.0,0.0,0.0,0.0,0.0,0.0,0.0,0.0,0.0,0.0,0.0,-0.9836,-1.0684,-1.1142,-1.1782,-1.2485,-1.2911,-1.3126,-1.3327,-1.3861,-1.4048,-1.4088,-1.4088,-1.3687,-1.3126,-1.2518,-1.1737,0.0,0.0,0.0,-0.9211,-0.9005,-1.003,0.0,-1.2116,0.0,0.0,0.0,0.0,-1.5558,0.0,0.0,0.0,0.0,0.0,0.0,0.0,0.0,0.0,-1.6395,-1.6573,-1.6707,-1.6707,-1.6473,-1.6346,-1.6346,-1.6299,-1.6152,-1.5905,-1.5804,-1.5784,-1.5784,-1.5784,-1.5784,-1.5784,0.0,0.0,-1.5784,-1.5784,-1.5784,-1.5784,-1.5784,-1.721,-1.9222,-1.9405,-2.0908,-2.2818,0.0,0.0,0.0,0.0,0.0,0.0,0.0,0.0,-0.6426,-0.7314,-0.6627,-0.623,-0.6714,-0.6459,0.0,0.0,0.0,0.0,0.0,0.0,0.0,0.0,0.0,0.0,0.0,0.0,0.0,0.0,0.0,0.0,0.0,0.0,0.0,0.0,0.0,0.0,0.0,0.0,0.0,0.0,0.0,0.0,0.0,0.0,0.0,0.0,0.0,0.0,0.0,0.0,-0.9499,-1.0291,-1.1149,-1.2142,-1.3042,-1.3189,-1.332,-1.3527,-1.3968,-1.4088,-1.4088,-1.4088,-1.352,-1.2811,-1.2017,0.0,0.0,0.0,0.0,-0.8944,-0.8831,0.0,0.0,0.0,0.0,0.0,0.0,0.0,0.0,0.0,0.0,0.0,0.0,0.0,0.0,0.0,0.0,0.0,-1.65,-1.6627,-1.6707,-1.6707,-1.6573,-1.65,-1.65,-1.6346,-1.6206,-1.6059,-1.5905,-1.5784,-1.5784,-1.5784,-1.5784,-1.5784,-1.5784,0.0,-1.5784,-1.5784,-1.5784,-1.5784,-1.5784,-1.6936,-1.8634,-1.9268,-2.0629,-2.2262,0.0,0.0,0.0,0.0,0.0,0.0,0.0,-0.6436,-0.6992,-0.8228,-0.7821,-0.74,-0.7387,-0.6874,-0.6698,0.0,0.0,0.0,0.0,0.0,0.0,0.0,0.0,0.0,0.0,0.0,0.0,0.0,0.0,0.0,0.0,0.0,0.0,0.0,0.0,0.0,0.0,0.0,0.0,0.0,0.0,0.0,0.0,0.0,0.0,0.0,0.0,0.0,0.0,0.0,-0.8971,-0.9586,-1.0596,-1.1949,-1.31,-1.2974,-1.3173,-1.3527,-1.3895,-1.4041,-1.4075,-1.4008,-1.336,-1.2455,-1.1536,-1.0655,0.0,0.0,0.0,-0.8804,-0.8804,0.0,0.0,0.0,0.0,0.0,0.0,0.0,0.0,0.0,0.0,0.0,0.0,0.0,0.0,0.0,0.0,0.0,-1.6607,-1.6553,-1.652,-1.652,-1.652,-1.652,-1.652,-1.6293,-1.6179,-1.6179,-1.5939,-1.5784,-1.5784,-1.5784,-1.5784,-1.5784,-1.5784,0.0,0.0,-1.5784,-1.5784,-1.5784,-1.5784,-1.6574,-1.7824,-1.8772,-2.0034,-2.1436,0.0,0.0,0.0,0.0,0.0,0.0,0.0,-0.6536,-0.7363,-0.8277,-0.8013,-0.7883,-0.8238,-0.7321,-0.6791,0.0,0.0,0.0,0.0,0.0,0.0,0.0,0.0,0.0,0.0,0.0,0.0,0.0,0.0,0.0,0.0,0.0,0.0,0.0,0.0,0.0,0.0,0.0,0.0,0.0,0.0,0.0,0.0,0.0,0.0,0.0,0.0,0.0,0.0,0.0,0.0,-0.863,-0.9211,-1.0238,-1.1364,-1.1859,0.0,0.0,-1.3527,-1.3881,-1.4021,-1.3706,-1.3006,-1.2111,-1.1236,0.0,0.0,0.0,-0.8804,-0.8804,-0.8804,0.0,0.0,0.0,0.0,0.0,0.0,0.0,0.0,0.0,0.0,0.0,0.0,0.0,0.0,0.0,0.0,0.0,0.0,-1.6059,-1.5864,-1.5864,-1.5864,-1.5864,-1.5864,-1.5838,-1.5872,-1.5872,-1.5798,-1.5784,-1.5784,-1.5784,-1.5784,-1.5784,-1.5784,0.0,0.0,-1.5784,-1.5784,-1.5784,-1.5784,-1.6574,-1.7684,-1.7824,-1.9314,-2.1337,0.0,0.0,0.0,0.0,0.0,0.0,-0.6055,-0.6455,-0.709,-0.8248,-0.8268,-0.8107,-0.7994,-0.7212,-0.6706,0.0,0.0,0.0,0.0,0.0,0.0,0.0,0.0,0.0,0.0,0.0,0.0,0.0,0.0,0.0,0.0,0.0,0.0,0.0,0.0,0.0,0.0,0.0,0.0,0.0,0.0,0.0,0.0,0.0,0.0,0.0,0.0,0.0,0.0,0.0,0.0,0.0,-0.8156,-0.8864,0.0,0.0,-1.1792,-1.2429,-1.3173,-1.356,-1.3753,-1.3633,-1.2927,-1.2071,-1.1196,0.0,0.0,-0.8925,-0.8804,-0.8804,-0.8804,-0.9008,-0.9447,0.0,-1.0094,0.0,0.0,0.0,0.0,0.0,0.0,0.0,0.0,0.0,0.0,0.0,0.0,0.0,0.0,-1.5892,-1.5784,-1.5784,-1.5784,-1.5784,-1.5784,-1.5784,-1.5784,-1.5784,-1.5784,-1.5784,-1.5784,-1.5784,-1.5784,-1.5784,-1.5784,0.0,0.0,-1.5784,-1.5784,-1.5784,-1.5784,-1.6574,-1.7692,-1.7692,-1.8772,-2.0305,0.0,0.0,0.0,0.0,0.0,-0.5351,-0.6104,-0.6328,-0.6787,-0.7876,-0.8013,-0.7931,-0.7726,-0.6934,-0.6424,-0.6382,0.0,0.0,0.0,0.0,0.0,0.0,0.0,0.0,0.0,0.0,0.0,0.0,0.0,0.0,0.0,0.0,0.0,0.0,0.0,0.0,0.0,0.0,0.0,0.0,0.0,0.0,0.0,0.0,0.0,0.0,0.0,0.0,0.0,0.0,0.0,0.0,0.0,0.0,0.0,0.0,-1.1206,-1.2122,-1.2667,-1.3243,-1.3633,-1.3306,-1.2639,-1.1817,0.0,0.0,-0.9412,-0.8911,-0.8804,-0.8804,-0.8804,-0.8804,-0.905,0.0,-0.9401,-0.9827,-1.2381,0.0,0.0,0.0,0.0,0.0,0.0,0.0,0.0,0.0,0.0,0.0,0.0,-1.6015,-1.5784,-1.5784,-1.5784,-1.5784,-1.5784,-1.5784,-1.5784,-1.5784,-1.5784,-1.5784,-1.5784,-1.5784,-1.5784,-1.5784,0.0,0.0,0.0,-1.5784,-1.5784,-1.5784,-1.5784,-1.6339,-1.7131,-1.7131,-1.7909,-1.9093,0.0,0.0,0.0,0.0,0.0,0.0,0.0,-0.6143,-0.6572,-0.7051,-0.7109,-0.7262,-0.7656,-0.6564,-0.5887,-0.6079,0.0,0.0,0.0,0.0,0.0,0.0,0.0,0.0,0.0,0.0,0.0,0.0,0.0,0.0,0.0,0.0,0.0,0.0,0.0,0.0,0.0,0.0,0.0,0.0,0.0,0.0,0.0,0.0,0.0,0.0,0.0,0.0,0.0,0.0,0.0,0.0,0.0,0.0,0.0,0.0,-1.0638,-1.2153,-1.1962,-1.2922,-1.3729,-1.2607,-1.187,-1.1169,0.0,-0.9637,-0.9131,-0.8871,-0.8804,-0.8804,-0.8804,-0.8804,-0.8804,-0.8811,-0.9024,-1.0315,0.0,0.0,0.0,0.0,0.0,0.0,0.0,0.0,0.0,0.0,0.0,0.0,0.0,-1.648,-1.5784,-1.5784,-1.5784,-1.5784,-1.5784,-1.5784,-1.5784,-1.5784,-1.5784,-1.5784,-1.5784,-1.5784,-1.5784,0.0,0.0,0.0,0.0,-1.5784,-1.5784,-1.5784,-1.5784,-1.5832,-1.5825,-1.5825,-1.6622,-1.7738,0.0,0.0,0.0,0.0,0.0,0.0,0.0,-0.5429,-0.5683,-0.6154,-0.6213,-0.6369,-0.6765,-0.6045,-0.5553,-0.5619,0.0,0.0,0.0,0.0,0.0,0.0,0.0,0.0,0.0,0.0,0.0,0.0,0.0,0.0,0.0,0.0,0.0,0.0,0.0,0.0,0.0,0.0,0.0,0.0,0.0,0.0,0.0,0.0,0.0,0.0,0.0,0.0,0.0,0.0,0.0,0.0,0.0,0.0,0.0,-0.7949,-0.9043,0.0,-1.0571,-1.1295,-1.1813,-1.1283,-1.1008,-1.0655,-0.9973,-0.9491,-0.9131,-0.8871,-0.8804,-0.8804,-0.8804,-0.8804,-0.8938,-0.9339,0.0,0.0,0.0,0.0,0.0,0.0,0.0,0.0,0.0,0.0,0.0,0.0,0.0,0.0,0.0,-1.6015,-1.5784,-1.5784,-1.5784,-1.5784,-1.5784,-1.5784,-1.5784,-1.5784,-1.5784,-1.5784,-1.5784,-1.5784,0.0,0.0,0.0,0.0,0.0,-1.5784,-1.5784,-1.5784,-1.5784,-1.5784,-1.5784,-1.5784,-1.6062,-1.6527,0.0,0.0,0.0,0.0,0.0,0.0,0.0,-0.504,-0.5205,-0.5498,-0.5537,-0.5693,-0.6123,-0.5639,-0.5319,-0.539,0.0,0.0,0.0,0.0,0.0,0.0,0.0,0.0,0.0,0.0,0.0,0.0,0.0,0.0,0.0,0.0,0.0,0.0,0.0,0.0,0.0,0.0,0.0,0.0,0.0,0.0,-0.6673,0.0,0.0,0.0,0.0,0.0,0.0,0.0,0.0,0.0,0.0,0.0,0.0,0.0,-0.8013,-0.8725,0.0,-1.0339,-1.0874,-1.0501,-1.0345,-1.0104,-0.9486,-0.9125,-0.8864,-0.8684,-0.8644,-0.8677,-0.8784,-0.8804,-0.8925,-0.9292,0.0,0.0,0.0,0.0,0.0,0.0,0.0,0.0,0.0,0.0,0.0,0.0,0.0,0.0,0.0,0.0,-1.5784,-1.5784,-1.5784,-1.5784,-1.5784,-1.5784,-1.5784,-1.5784,-1.5784,-1.5784,-1.5784,-1.5784,0.0,0.0,0.0,0.0,0.0,-1.5784,-1.5784,-1.5784,-1.5784,-1.5784,-1.5784,-1.5784,-1.5784,-1.592,0.0,0.0,0.0,0.0,0.0,0.0,0.0,0.0,-0.5078,-0.5098,-0.5098,-0.5263,-0.5704,-0.5361,-0.5162,-0.5304,0.0,0.0,0.0,0.0,0.0,0.0,0.0,0.0,0.0,0.0,0.0,-0.9489,-1.0021,-1.0488,-1.0856,0.0,0.0,0.0,0.0,0.0,0.0,0.0,0.0,0.0,0.0,-0.6176,0.0,0.0,0.0,0.0,0.0,0.0,0.0,0.0,0.0,0.0,0.0,0.0,0.0,0.0,0.0,0.0,0.0,-0.9868,-1.0556,-1.0037,-0.9746,-0.9419,-0.8871,-0.8537,0.0,-0.8368,-0.8382,-0.8489,-0.8751,-0.8804,-0.8831,-0.8891,0.0,0.0,0.0,0.0,0.0,0.0,0.0,0.0,0.0,0.0,0.0,0.0,0.0,0.0,0.0,0.0,-1.5872,-1.5784,-1.5784,-1.5784,-1.5784,-1.5784,-1.5784,-1.5784,-1.5784,-1.5784,-1.5784,-1.5784,0.0,0.0,0.0,0.0,0.0,-1.5784,-1.5784,-1.5784,-1.5784,-1.5784,-1.5784,-1.5784,-1.5784,-1.5784,0.0,0.0,0.0,0.0,0.0,0.0,0.0,0.0,0.0,0.0,-0.5098,-0.5137,-0.5253,-0.5166,-0.496,0.0,0.0,0.0,0.0,0.0,0.0,0.0,0.0,0.0,0.0,0.0,0.0,-0.853,-0.9611,-1.0204,-1.0305,-1.1197,0.0,0.0,0.0,0.0,0.0,0.0,0.0,0.0,-0.5792,-0.597,0.0,0.0,0.0,0.0,-0.5916,-0.6146,0.0,0.0,0.0,0.0,0.0,0.0,0.0,0.0,-0.7128,-0.7235,-0.7765,0.0,-0.852,-0.8203,-0.8216,-0.8285,0.0,-0.8059,-0.8012,0.0,0.0,0.0,0.0,0.0,0.0,0.0,0.0,0.0,0.0,0.0,0.0,0.0,0.0,0.0,0.0,0.0,0.0,0.0,0.0,0.0,0.0,0.0,-1.681,-1.5832,-1.5784,-1.5784,-1.5784,-1.5784,-1.5784,-1.5784,-1.5784,-1.5784,-1.5784,-1.5784,0.0,0.0,0.0,0.0,-1.5784,-1.5784,-1.5784,-1.5784,-1.5784,-1.5784,-1.5784,-1.5784,-1.5784,-1.5784,0.0,0.0,0.0,0.0,0.0,0.0,0.0,0.0,0.0,0.0,0.0,0.0,0.0,0.0,0.0,0.0,0.0,0.0,0.0,0.0,0.0,0.0,0.0,0.0,0.0,0.0,0.0,0.0,0.0,-1.0502,0.0,0.0,0.0,0.0,0.0,0.0,0.0,0.0,0.0,0.0,-0.5511,0.0,0.0,0.0,0.0,0.0,-0.5588,-0.5805,0.0,-0.6203,-0.6472,-0.682,0.0,0.0,0.0,0.0,-0.7,-0.704,-0.7221,-0.7689,-0.813,-0.8114,-0.821,-0.8272,-0.8163,0.0,0.0,0.0,0.0,0.0,0.0,0.0,0.0,0.0,0.0,0.0,0.0,0.0,0.0,0.0,0.0,0.0,0.0,0.0,0.0,0.0,0.0,0.0,0.0,0.0,-1.6527,-1.5825,-1.5784,-1.5784,-1.5784,-1.5784,-1.5784,-1.5784,-1.5784,-1.5784,-1.5784,-1.5784,-1.5784,0.0,0.0,0.0,-1.5784,-1.5784,-1.5784,-1.5784,-1.5784,-1.5784,-1.5784,-1.5784,-1.5784,-1.5784,0.0,0.0,0.0,0.0,0.0,0.0,0.0,0.0,0.0,0.0,0.0,0.0,0.0,0.0,0.0,0.0,0.0,0.0,0.0,0.0,0.0,0.0,0.0,0.0,0.0,0.0,0.0,0.0,0.0,0.0,0.0,0.0,0.0,0.0,0.0,0.0,0.0,0.0,0.0,0.0,0.0,0.0,0.0,0.0,0.0,0.0,0.0,0.0,0.0,-0.597,-0.6291,-0.662,-0.6753,0.0,0.0,0.0,0.0,0.0,-0.7046,-0.7749,-0.8496,-0.8577,-0.8671,-0.8664,-0.8395,0.0,0.0,0.0,0.0,0.0,0.0,0.0,0.0,0.0,0.0,0.0,0.0,0.0,0.0,0.0,0.0,0.0,0.0,0.0,0.0,0.0,0.0,0.0,0.0,0.0,0.0,-1.5832,-1.5784,-1.5784,-1.5784,-1.5784,-1.5784,-1.5784,-1.5784,-1.5784,-1.5784,-1.5784,-1.5784,0.0,0.0,0.0,-1.5784,-1.5784,-1.5784,-1.5784,-1.5784,-1.5784,-1.5784,-1.5784,-1.5784,-1.5832,0.0,0.0,0.0,0.0,0.0,0.0,0.0,0.0,0.0,0.0,0.0,0.0,0.0,0.0,0.0,0.0,0.0,0.0,0.0,0.0,0.0,0.0,0.0,0.0,0.0,0.0,0.0,0.0,0.0,0.0,-1.0129,-1.203,-1.1785,0.0,0.0,0.0,0.0,0.0,0.0,0.0,0.0,0.0,0.0,0.0,0.0,0.0,0.0,0.0,0.0,-0.5501,-0.5956,-0.6506,-0.6052,0.0,0.0,0.0,0.0,0.0,-0.7283,-0.8056,-0.8571,-0.7873,-0.808,-0.8389,-0.8045,0.0,0.0,0.0,0.0,0.0,0.0,0.0,0.0,0.0,0.0,0.0,0.0,0.0,0.0,0.0,0.0,0.0,0.0,0.0,0.0,0.0,0.0,0.0,0.0,0.0,0.0,-1.5832,-1.5784,-1.5784,-1.5784,-1.5784,-1.5784,-1.5784,-1.5784,-1.5784,-1.5784,-1.5784,-1.5784,0.0,0.0,-1.5784,-1.5784,-1.5784,-1.5784,-1.5784,-1.5784,-1.5784,-1.5784,-1.5784,-1.5784,-1.5967,0.0,0.0,0.0,0.0,0.0,0.0,0.0,0.0,0.0,0.0,0.0,0.0,0.0,0.0,0.0,0.0,0.0,0.0,0.0,0.0,0.0,0.0,0.0,0.0,0.0,0.0,0.0,0.0,0.0,-1.0111,-0.9865,-1.0617,-1.038,-0.9251,0.0,0.0,0.0,0.0,0.0,-0.5293,0.0,0.0,0.0,0.0,0.0,0.0,0.0,0.0,0.0,0.0,-0.5903,-0.6325,-0.6057,0.0,0.0,0.0,0.0,0.0,-0.6894,-0.7649,-0.827,-0.8047,-0.8549,-0.9085,-0.9078,0.0,0.0,0.0,0.0,0.0,0.0,0.0,0.0,0.0,0.0,0.0,0.0,0.0,0.0,0.0,0.0,0.0,0.0,0.0,0.0,0.0,0.0,0.0,0.0,0.0,0.0,0.0,-1.5784,-1.5784,-1.5784,-1.5784,-1.5784,-1.5784,-1.5784,-1.5784,-1.5784,-1.5784,-1.5784,-1.5784,0.0,-1.5784,-1.5784,-1.5784,-1.5784,-1.5784,-1.5784,-1.5784,-1.5784,-1.5784,-1.5784,-1.5967,0.0,0.0,0.0,0.0,0.0,0.0,0.0,0.0,0.0,0.0,0.0,0.0,0.0,0.0,0.0,0.0,0.0,0.0,0.0,0.0,0.0,0.0,0.0,0.0,0.0,0.0,-0.8375,-0.8765,-0.9467,-0.9811,-0.9811,-0.9393,-0.9026,0.0,0.0,0.0,0.0,0.0,0.0,-0.5293,0.0,0.0,0.0,0.0,0.0,0.0,0.0,0.0,0.0,0.0,0.0,0.0,0.0,0.0,0.0,-0.6256,-0.6196,-0.629,-0.67,-0.7348,-0.8012,-0.847,0.0,-0.9673,-1.0033,0.0,0.0,0.0,0.0,0.0,0.0,0.0,0.0,0.0,0.0,0.0,0.0,0.0,0.0,0.0,0.0,0.0,0.0,0.0,0.0,0.0,0.0,0.0,0.0,0.0,0.0,0.0,-1.5784,-1.5784,-1.5784,-1.5784,-1.5784,-1.5784,-1.5784,-1.5784,-1.5784,-1.5784,-1.5784,-1.5784,-1.5784,-1.5744,-1.5732,-1.5732,-1.5691,-1.5625,-1.5625,-1.5625,-1.5625,-1.5625,-1.5625,-1.5765,0.0,0.0,0.0,0.0,0.0,0.0,0.0,0.0,0.0,0.0,0.0,0.0,0.0,0.0,0.0,0.0,0.0,0.0,0.0,0.0,0.0,0.0,0.0,0.0,0.0,-0.6926,-0.7397,-0.8334,-0.8534,-0.9053,-0.9889,-0.9232,-0.849,-0.7667,0.0,0.0,0.0,0.0,0.0,-0.5293,-0.5293,0.0,0.0,0.0,0.0,0.0,0.0,0.0,0.0,0.0,0.0,0.0,0.0,0.0,-0.6216,-0.6203,-0.6196,-0.6377,-0.7217,-0.7662,-0.8105,-0.8938,-0.9198,0.0,-0.9957,-1.0037,0.0,0.0,0.0,0.0,0.0,0.0,0.0,0.0,0.0,0.0,0.0,0.0,0.0,0.0,0.0,0.0,0.0,0.0,0.0,0.0,0.0,0.0,0.0,0.0,0.0,0.0,-1.5784,-1.5784,-1.5784,-1.5784,-1.5784,-1.5784,-1.5784,-1.5784,-1.5784,-1.5784,-1.5784,-1.5784,-1.5784,-1.5678,-1.5431,-1.5431,-1.5271,-1.5068,-1.5068,-1.5068,-1.5068,-1.5068,-1.5068,-1.5068,0.0,0.0,0.0,0.0,0.0,0.0,0.0,0.0,0.0,0.0,0.0,0.0,0.0,0.0,0.0,0.0,0.0,0.0,0.0,0.0,0.0,0.0,0.0,-0.4933,-0.5581,-0.6541,-0.7457,-0.829,-0.8018,-0.8231,-0.8885,-0.7747,0.0,0.0,0.0,0.0,0.0,0.0,0.0,-0.5293,-0.5293,-0.5293,0.0,0.0,0.0,0.0,0.0,0.0,0.0,0.0,-0.5471,-0.5661,0.0,0.0,0.0,0.0,-0.5769,-0.584,-0.67,-0.7296,-0.7809,-0.8524,0.0,0.0,0.0,0.0,0.0,0.0,0.0,0.0,0.0,0.0,0.0,0.0,0.0,0.0,0.0,0.0,0.0,0.0,0.0,0.0,0.0,0.0,0.0,0.0,0.0,0.0,0.0,0.0,0.0,-1.5291,-1.5291,-1.5291,-1.5291,-1.5291,-1.5291,-1.5291,-1.5471,-1.5464,-1.5291,-1.5291,-1.5291,-1.5291,-1.5291,-1.5224,-1.5169,-1.5169,-1.5109,-1.5008,-1.5008,-1.5008,-1.5008,-1.5008,-1.5008,-1.5008,0.0,0.0,0.0,0.0,0.0,0.0,0.0,0.0,0.0,0.0,0.0,0.0,0.0,0.0,0.0,0.0,0.0,0.0,0.0,0.0,0.0,0.0,0.0,-0.4436,-0.4786,-0.5977,-0.6934,-0.7643,-0.7355,-0.7355,-0.7607,0.0,0.0,0.0,0.0,0.0,0.0,0.0,0.0,0.0,-0.5293,-0.5293,0.0,0.0,0.0,0.0,0.0,0.0,0.0,0.0,-0.5337,0.0,0.0,0.0,0.0,0.0,0.0,-0.5863,-0.654,-0.7161,-0.7779,0.0,0.0,0.0,0.0,0.0,0.0,0.0,0.0,0.0,0.0,0.0,0.0,0.0,0.0,0.0,0.0,0.0,0.0,0.0,0.0,0.0,0.0,0.0,0.0,0.0,0.0,0.0,0.0,0.0,0.0,0.0,-1.5008,-1.5008,-1.5008,-1.5008,-1.4961,-1.4823,-1.5023,-1.5064,-1.5008,-1.5008,-1.5008,-1.5008,-1.5008,-1.4955,-1.4823,-1.4823,-1.477,-1.4733,-1.4733,-1.4733,-1.4733,-1.4733,-1.4733,-1.4733,0.0,0.0,0.0,0.0,0.0,0.0,0.0,0.0,0.0,0.0,0.0,0.0,0.0,0.0,0.0,0.0,0.0,0.0,0.0,0.0,0.0,0.0,0.0,-0.4255,-0.4787,-0.5124,-0.5598,-0.6196,-0.6466,-0.6459,-0.6196,-0.6189,0.0,0.0,0.0,0.0,0.0,0.0,0.0,0.0,-0.5293,-0.5293,-0.5293,0.0,0.0,0.0,0.0,0.0,0.0,0.0,-0.5015,-0.5347,0.0,0.0,0.0,0.0,-0.6378,-0.6653,-0.692,-0.7446,-0.8045,0.0,0.0,0.0,0.0,0.0,0.0,0.0,0.0,0.0,0.0,0.0,0.0,0.0,0.0,0.0,0.0,0.0,0.0,0.0,0.0,0.0,0.0,0.0,0.0,0.0,0.0,0.0,0.0,0.0,0.0,0.0,-1.5001,-1.5001,-1.5001,-1.5001,-1.481,-1.4516,-1.4516,-1.4669,-1.5001,-1.5001,-1.5001,-1.5001,-1.5001,-1.4783,-1.4516,-1.4516,-1.4349,-1.4088,-1.4088,-1.4088,-1.4088,-1.4088,-1.4088,-1.4088,0.0,0.0,0.0,0.0,0.0,0.0,0.0,0.0,0.0,0.0,0.0,0.0,0.0,0.0,0.0,0.0,0.0,0.0,0.0,0.0,0.0,0.0,0.0,0.0,0.0,0.0,-0.5166,-0.6196,-0.6283,-0.6277,0.0,0.0,0.0,-0.5845,0.0,0.0,0.0,0.0,0.0,0.0,0.0,-0.5293,-0.5293,0.0,0.0,0.0,0.0,0.0,0.0,0.0,0.0,0.0,0.0,0.0,0.0,0.0,-0.6199,-0.6653,-0.692,-0.7446,0.0,0.0,0.0,0.0,0.0,0.0,0.0,0.0,0.0,0.0,0.0,0.0,0.0,0.0,0.0,0.0,0.0,0.0,0.0,0.0,0.0,0.0,0.0,0.0,0.0,0.0,0.0,0.0,0.0,0.0,0.0,0.0,-1.4392,-1.4392,-1.4392,-1.4392,-1.4302,-1.4215,-1.4215,-1.4262,-1.4392,-1.4392,-1.4392,-1.4392,-1.4392,-1.4295,-1.4215,-1.4215,-1.4168,-1.4088,-1.4088,-1.4088,-1.4088,-1.4088,-1.4088,-1.4088,0.0,0.0,0.0,0.0,0.0,0.0,0.0,0.0,0.0,0.0,0.0,0.0,0.0,0.0,0.0,0.0,0.0,0.0,0.0,0.0,0.0,0.0,0.0,0.0,0.0,-0.4369,-0.4863,0.0,0.0,0.0,0.0,0.0,0.0,-0.5892,0.0,-0.5742,0.0,0.0,0.0,0.0,-0.5246,-0.5293,-0.5286,0.0,0.0,0.0,0.0,0.0,0.0,0.0,0.0,0.0,0.0,0.0,0.0,-0.5889,-0.6306,-0.6854,-0.7246,0.0,0.0,0.0,0.0,0.0,0.0,0.0,0.0,0.0,0.0,0.0,0.0,0.0,0.0,0.0,0.0,0.0,0.0,0.0,0.0,0.0,0.0,0.0,0.0,0.0,0.0,0.0,0.0,0.0,0.0,0.0,0.0,0.0,-1.4088,-1.4088,-1.4088,-1.4088,-1.4088,-1.4088,-1.4088,-1.4088,-1.4088,-1.4088,-1.4088,-1.4088,-1.4088,-1.4088,-1.4088,-1.4088,-1.4088,-1.4088,-1.4088,-1.4088,-1.4088,-1.4088,-1.4088,-1.4088,0.0,0.0,-0.3495,-0.3495,0.0,0.0,0.0,0.0,0.0,0.0,0.0,-0.3495,0.0,0.0,0.0,-0.3495,0.0,0.0,0.0,0.0,0.0,0.0,0.0,0.0,0.0,0.0,0.0,0.0,0.0,0.0,0.0,0.0,-0.5845,-0.6115,0.0,-0.5956,0.0,0.0,0.0,0.0,-0.509,-0.5213,-0.5186,-0.4888,0.0,0.0,0.0,0.0,0.0,0.0,0.0,0.0,0.0,0.0,0.0,-0.5974,-0.6566,-0.716,0.0,0.0,0.0,0.0,0.0,0.0,0.0,0.0,0.0,0.0,0.0,0.0,0.0,0.0,0.0,0.0,0.0,0.0,0.0,0.0,0.0,0.0,0.0,0.0,0.0,0.0,0.0,0.0,0.0,0.0,0.0,0.0,0.0,0.0,-1.4048,-1.4062,-1.4088,-1.4088,-1.4075,0.0,-1.4048,-1.4035,-1.4008,-1.4062,-1.4088,-1.4088,-1.4088,-1.4088,-1.4088,-1.4088,-1.4088,-1.4088,-1.4088,-1.4088,-1.4088,-1.4088,-1.4088,-1.4088,0.0,0.0,-0.3495,-0.3495,0.0,0.0,0.0,0.0,-0.3495,-0.3495,-0.3495,-0.3495,-0.3495,-0.3495,0.0,-0.3495,-0.3495,0.0,0.0,0.0,0.0,0.0,0.0,0.0,0.0,0.0,0.0,0.0,0.0,0.0,0.0,0.0,0.0,-0.551,0.0,-0.5501,0.0,0.0,0.0,-0.4489,-0.4569,-0.4596,-0.4589,-0.4522,-0.4355,0.0,0.0,0.0,0.0,0.0,0.0,0.0,-0.5293,-0.5631,-0.5934,-0.5605,-0.6392,-0.737,0.0,0.0,0.0,0.0,0.0,0.0,0.0,0.0,0.0,0.0,0.0,0.0,0.0,0.0,0.0,0.0,0.0,0.0,0.0,0.0,0.0,0.0,0.0,0.0,0.0,0.0,0.0,0.0,0.0,0.0,0.0,0.0,0.0,-1.3693,-1.37,-1.3848,-1.4082,-1.4088,-1.3968,0.0,-1.37,-1.358,-1.3414,-1.3874,-1.4088,-1.4088,-1.4088,-1.4088,-1.4088,-1.4088,-1.4088,-1.4088,-1.4088,-1.4088,-1.4088,-1.4088,-1.4088,-1.4088,0.0,0.0,0.0,0.0,0.0,0.0,0.0,0.0,-0.3357,-0.3486,-0.3495,-0.3495,-0.3495,-0.3495,0.0,0.0,-0.3495,-0.3495,0.0,0.0,0.0,0.0,0.0,0.0,0.0,0.0,0.0,0.0,0.0,0.0,0.0,0.0,0.0,-0.5916,0.0,-0.5448,0.0,0.0,0.0,-0.4221,-0.4349,-0.4402,-0.4389,-0.4261,-0.4114,-0.3992,-0.3992,0.0,0.0,0.0,0.0,0.0,0.0,0.0,-0.5551,-0.5682,-0.6277,-0.6948,0.0,0.0,0.0,0.0,0.0,0.0,0.0,0.0,0.0,0.0,0.0,0.0,0.0,0.0,0.0,0.0,0.0,0.0,0.0,0.0,0.0,0.0,0.0,0.0,0.0,0.0,0.0,0.0,0.0,0.0,0.0,-1.3213,-1.328,-1.3387,-1.34,-1.3473,-1.3667,-1.3667,-1.3587,-1.34,-1.34,-1.336,-1.3227,-1.3674,-1.3874,-1.3881,-1.4021,-1.4088,-1.4088,-1.4088,-1.4088,-1.4088,-1.4088,-1.4088,-1.4088,-1.4088,-1.4088,-1.4088,0.0,0.0,0.0,0.0,0.0,0.0,0.0,0.0,0.0,-0.3473,-0.3495,-0.3495,-0.3495,-0.3495,-0.3495,0.0,0.0,0.0,-0.3495,0.0,0.0,0.0,0.0,0.0,0.0,0.0,0.0,0.0,0.0,0.0,0.0,0.0,0.0,-0.6512,0.0,0.0,0.0,0.0,-0.4208,-0.3938,-0.4155,-0.4242,-0.4222,-0.4,-0.3918,-0.3918,-0.3918,-0.3951,-0.4072,-0.4569,0.0,0.0,0.0,0.0,-0.494,-0.5675,-0.6001,-0.6305,0.0,0.0,0.0,0.0,0.0,0.0,0.0,0.0,0.0,0.0,0.0,0.0,0.0,0.0,0.0,0.0,0.0,0.0,0.0,0.0,0.0,0.0,0.0,0.0,0.0,0.0,0.0,0.0,0.0,0.0,-1.3053,-1.3053,-1.308,-1.3126,-1.3133,-1.316,-1.3213,-1.3213,-1.318,-1.3126,-1.308,-1.3053,-1.3066,-1.3313,-1.348,-1.354,-1.3828,-1.3935,-1.3935,-1.3935,-1.3935,-1.3941,-1.3995,-1.4008,-1.4015,-1.4068,-1.4088,-1.4088,0.0,0.0,0.0,0.0,0.0,0.0,0.0,0.0,0.0,0.0,-0.3495,-0.3495,-0.3495,-0.3495,-0.3495,-0.3495,-0.3495,-0.3495,0.0,0.0,0.0,0.0,0.0,0.0,0.0,0.0,0.0,0.0,0.0,0.0,0.0,0.0,0.0,-0.6236,0.0,0.0,0.0,0.0,-0.4076,-0.3566,-0.3606,-0.3619,-0.3619,-0.3579,-0.3566,-0.3566,-0.3566,-0.3754,-0.4045,-0.4349,-0.4615,0.0,0.0,0.0,0.0,0.0,-0.5177,-0.5752,0.0,0.0,0.0,0.0,0.0,0.0,0.0,0.0,0.0,0.0,0.0,0.0,0.0,0.0,0.0,0.0,0.0,0.0,0.0,0.0,0.0,0.0,0.0,0.0,0.0,0.0,0.0,0.0,0.0,0.0,-1.2425,-1.2425,-1.2538,-1.2837,-1.2844,-1.2978,-1.3206,-1.3213,-1.3073,-1.2844,-1.2545,-1.2425,-1.2432,-1.277,-1.3013,-1.3273,-1.3307,-1.3327,-1.3327,-1.3327,-1.3327,-1.3353,-1.3567,-1.366,-1.3693,-1.3988,-1.4088,-1.4088,0.0,0.0,0.0,0.0,0.0,0.0,0.0,0.0,0.0,0.0,0.0,-0.3495,-0.3495,-0.3495,-0.3495,-0.3495,-0.3495,0.0,0.0,0.0,0.0,0.0,0.0,0.0,0.0,0.0,0.0,0.0,0.0,0.0,0.0,-0.5585,-0.6106,0.0,0.0,0.0,0.0,0.0,0.0,-0.3761,-0.3572,-0.3798,-0.4171,0.0,-0.38,-0.4157,-0.3674,0.0,0.0,-0.4249,-0.4476,-0.4595,0.0,0.0,0.0,0.0,0.0,0.0,0.0,0.0,0.0,0.0,0.0,0.0,0.0,0.0,0.0,0.0,0.0,0.0,0.0,0.0,0.0,0.0,0.0,0.0,0.0,0.0,0.0,0.0,0.0,0.0,0.0,0.0,0.0,0.0,0.0,-1.2305,-1.2305,-1.2305,-1.2365,-1.2529,-1.2536,-1.2565,-1.2699,-1.2705,-1.2632,-1.2529,-1.2365,-1.2305,-1.2305,-1.2438,-1.2703,-1.2998,-1.3133,-1.3213,-1.3213,-1.3213,-1.3213,-1.3227,-1.3313,-1.336,-1.34,-1.3728,-1.3841,-1.3861,0.0,0.0,0.0,0.0,0.0,0.0,0.0,0.0,0.0,0.0,0.0,-0.3495,-0.3495,0.0,0.0,0.0,-0.3495,0.0,0.0,0.0,0.0,0.0,0.0,0.0,0.0,0.0,0.0,0.0,0.0,0.0,-0.5825,-0.5825,-0.666,0.0,-0.7214,0.0,0.0,0.0,0.0,-0.4308,-0.4061,-0.4349,-0.4875,-0.4376,-0.4589,-0.5055,0.0,0.0,0.0,0.0,0.0,0.0,0.0,0.0,0.0,0.0,0.0,0.0,0.0,0.0,0.0,0.0,0.0,0.0,0.0,0.0,0.0,0.0,0.0,0.0,0.0,0.0,0.0,0.0,0.0,0.0,0.0,0.0,0.0,0.0,0.0,0.0,0.0,0.0,0.0,0.0,0.0,-1.2305,-1.2305,-1.2305,-1.2305,-1.2305,-1.2305,-1.2305,-1.2305,-1.2305,-1.2305,-1.2305,-1.2305,-1.2305,-1.2305,-1.2305,-1.2425,-1.2683,-1.2879,-1.2979,-1.2979,-1.2979,-1.2979,-1.2986,-1.3066,-1.3093,-1.3126,-1.3387,-1.3493,-1.3527,0.0,0.0,0.0,0.0,0.0,0.0,0.0,0.0,0.0,0.0,0.0,-0.3495,-0.3495,-0.3495,-0.3495,-0.3495,-0.3495,0.0,0.0,0.0,0.0,0.0,0.0,0.0,0.0,0.0,0.0,0.0,0.0,0.0,-0.6169,-0.6169,-0.7095,-0.8724,-0.7846,-0.6989,-0.6169,0.0,0.0,-0.5226,-0.5213,-0.5233,-0.5327,-0.586,-0.6082,-0.6048,0.0,0.0,0.0,0.0,0.0,0.0,0.0,0.0,0.0,0.0,0.0,0.0,0.0,0.0,0.0,0.0,0.0,0.0,0.0,0.0,0.0,0.0,0.0,0.0,0.0,0.0,0.0,0.0,0.0,0.0,0.0,0.0,0.0,0.0,0.0,0.0,0.0,0.0,0.0,0.0,0.0,-1.2305,-1.2305,-1.2305,-1.2305,-1.2305,-1.2305,-1.2305,-1.2305,-1.2305,-1.2305,-1.2305,-1.2305,-1.2305,-1.2305,-1.2305,-1.2311,-1.2325,-1.2345,-1.2351,-1.2351,-1.2351,-1.2351,-1.2378,-1.2697,-1.2811,-1.2844,-1.312,-1.3233,-1.3233,0.0,0.0,0.0,0.0,0.0,0.0,0.0,0.0,0.0,0.0,0.0,0.0,0.0,-0.3495,-0.3495,-0.3495,-0.334,0.0,0.0,0.0,0.0,0.0,0.0,0.0,0.0,0.0,0.0,0.0,0.0,-0.4117,-0.5311,-0.5521,-0.6157,-0.7136,-0.7383,-0.7338,-0.6982,-0.6079,0.0,0.0,-0.5558,-0.5898,0.0,-0.6256,-0.6545,-0.6935,0.0,0.0,0.0,0.0,0.0,0.0,0.0,0.0,-0.4155,-0.3645,0.0,0.0,0.0,0.0,0.0,0.0,0.0,0.0,0.0,0.0,0.0,0.0,0.0,0.0,0.0,0.0,0.0,0.0,0.0,0.0,0.0,0.0,0.0,0.0,0.0,0.0,0.0,0.0,0.0,0.0,0.0,0.0,-1.1702,-1.1702,-1.1702,-1.1702,-1.1702,-1.183,-1.206,-1.2204,-1.2305,-1.2305,-1.2305,-1.2305,-1.2305,-1.2305,-1.2305,-1.2305,-1.2305,-1.2305,-1.2305,-1.2305,-1.2305,-1.2311,-1.2418,-1.2496,-1.2536,-1.2837,-1.2951,-1.2985,0.0,0.0,0.0,-0.2535,0.0,-0.2632,-0.2918,-0.3046,0.0,0.0,0.0,0.0,0.0,0.0,-0.333,-0.3245,-0.3068,0.0,0.0,0.0,0.0,0.0,0.0,0.0,0.0,0.0,0.0,0.0,0.0,0.0,0.0,-0.5022,-0.5514,-0.6209,-0.6599,-0.6975,0.0,0.0,0.0,-0.6141,0.0,0.0,-0.7174,0.0,-0.7517,0.0,0.0,0.0,0.0,0.0,0.0,0.0,0.0,-0.4715,-0.4162,-0.3645,0.0,0.0,0.0,0.0,0.0,0.0,0.0,0.0,0.0,0.0,0.0,0.0,0.0,0.0,0.0,0.0,0.0,0.0,0.0,0.0,0.0,0.0,0.0,0.0,0.0,0.0,0.0,0.0,0.0,0.0,0.0,0.0,-1.1389,-1.1389,-1.1389,-1.1389,-1.1389,-1.1523,-1.1717,-1.1911,-1.2004,-1.2004,-1.2004,-1.2004,-1.2004,-1.2004,-1.2064,-1.2158,-1.2158,-1.2211,-1.2305,-1.2305,-1.2305,-1.2305,-1.2305,-1.2305,-1.2325,-1.2563,-1.2636,-1.2663,-0.1847,-0.2011,-0.2182,-0.2182,-0.2182,-0.2302,-0.2632,-0.2907,-0.3079,-0.31,0.0,0.0,0.0,0.0,0.0,0.0,0.0,0.0,0.0,0.0,0.0,0.0,0.0,0.0,0.0,0.0,0.0,0.0,0.0,0.0,0.0,0.0,-0.5271,-0.6115,-0.5551,-0.5898,-0.6953,0.0,-0.696,-0.7026,0.0,-0.7484,-0.7638,0.0,0.0,0.0,-0.8523,-0.821,0.0,0.0,0.0,0.0,0.0,-0.4923,-0.3958,-0.3619,-0.3768,0.0,0.0,0.0,0.0,0.0,0.0,0.0,0.0,0.0,0.0,0.0,0.0,0.0,0.0,0.0,0.0,0.0,0.0,0.0,0.0,0.0,0.0,0.0,0.0,0.0,0.0,0.0,0.0,0.0,0.0,-1.1369,-1.1369,-1.1369,-1.1369,-1.1369,-1.1375,-1.1375,-1.1375,-1.1389,-1.1389,-1.1389,-1.1389,-1.1389,-1.1389,-1.1389,-1.1583,-1.1893,-1.1899,-1.2067,-1.2291,-1.2298,-1.2305,-1.2305,-1.2305,-1.2305,-1.2305,-1.2305,-1.2305,-1.2305,-0.1814,-0.1858,-0.1913,-0.1913,-0.1913,-0.2011,-0.2291,-0.24,-0.2611,0.0,0.0,0.0,0.0,0.0,0.0,0.0,0.0,0.0,-0.2066,-0.1968,-0.1913,-0.1913,-0.1836,0.0,0.0,0.0,0.0,0.0,0.0,0.0,0.0,0.0,0.0,0.0,-0.4922,-0.5241,-0.5745,-0.5515,0.0,0.0,-0.688,-0.737,0.0,0.0,0.0,0.0,0.0,-0.8785,0.0,0.0,-0.7899,-0.7219,0.0,0.0,0.0,-0.4236,-0.4522,0.0,-0.4409,0.0,0.0,0.0,0.0,0.0,0.0,0.0,0.0,0.0,0.0,0.0,0.0,0.0,0.0,0.0,0.0,0.0,0.0,0.0,0.0,0.0,0.0,0.0,0.0,0.0,0.0,0.0,-1.0827,-1.0827,-1.0827,-1.0827,-1.0827,-1.0827,-1.1002,-1.1109,-1.1109,-1.1289,-1.1389,-1.1389,-1.1389,-1.1389,-1.1389,-1.1389,-1.1435,-1.1557,-1.1777,-1.1953,-1.204,-1.2218,-1.2305,-1.2305,-1.2305,-1.2305,-1.2305,-1.2305,-1.2305,-1.2305,-0.1803,-0.1803,-0.1803,-0.1803,-0.1846,-0.1934,-0.2096,-0.2207,-0.2414,0.0,0.0,0.0,0.0,0.0,0.0,0.0,0.0,0.0,-0.1814,-0.1803,-0.1803,-0.1803,-0.1803,-0.1803,0.0,0.0,0.0,0.0,0.0,0.0,0.0,0.0,0.0,0.0,-0.4139,-0.4442,-0.473,-0.4402,0.0,0.0,-0.7014,0.0,0.0,-0.8281,-0.8336,0.0,0.0,0.0,-0.8546,-0.8459,-0.8197,0.0,0.0,0.0,-0.5448,-0.4923,0.0,0.0,0.0,0.0,0.0,0.0,0.0,0.0,0.0,0.0,0.0,0.0,0.0,0.0,0.0,0.0,0.0,0.0,0.0,0.0,0.0,0.0,0.0,0.0,0.0,0.0,0.0,0.0,0.0,-1.0593,-1.0593,-1.0593,-1.0593,-1.0593,-1.0593,-1.0593,-1.0754,-1.0847,-1.0847,-1.0982,-1.1062,-1.1062,-1.1062,-1.1062,-1.1062,-1.1062,-1.1129,-1.1256,-1.143,-1.1678,-1.1919,-1.2051,-1.2191,-1.2305,-1.2305,-1.2305,-1.2305,-1.2305,-1.2305,-1.2305,0.0,-0.1803,-0.1809,-0.1815,-0.192,-0.2002,-0.2019,-0.222,-0.2395,0.0,0.0,0.0,0.0,0.0,0.0,0.0,0.0,0.0,0.0,-0.1813,-0.1803,-0.1803,-0.1803,-0.1803,-0.1803,0.0,0.0,0.0,0.0,0.0,0.0,0.0,0.0,0.0,-0.333,-0.3619,-0.3884,-0.3718,0.0,-0.6236,-0.7239,-0.7732,0.0,0.0,-0.7872,0.0,-0.7339,-0.7625,-0.8049,-0.7869,-0.7834,0.0,0.0,-0.6653,-0.6546,-0.5729,-0.59,0.0,0.0,0.0,0.0,0.0,0.0,0.0,-0.7326,-0.7094,0.0,0.0,0.0,0.0,0.0,0.0,0.0,0.0,0.0,0.0,0.0,0.0,0.0,0.0,0.0,0.0,0.0,-1.0492,-1.0492,-1.0492,-1.0492,-1.0506,-1.0539,-1.0546,-1.0559,-1.0593,-1.0593,-1.0593,-1.0593,-1.0593,-1.0593,-1.0593,-1.0593,-1.0593,-1.0593,-1.0593,-1.0734,-1.0949,-1.0982,-1.1289,-1.1812,-1.1839,-1.2011,-1.2305,-1.2305,-1.2305,-1.2305,-1.2305,-1.2305,-1.2305,-0.1803,-0.1803,-0.1833,-0.1943,-0.1979,-0.2039,-0.2147,-0.2208,-0.234,0.0,0.0,0.0,0.0,0.0,0.0,0.0,0.0,0.0,0.0,-0.186,-0.1803,-0.1803,-0.1803,-0.1803,-0.1803,-0.1847,0.0,0.0,0.0,0.0,0.0,0.0,0.0,0.0,-0.3057,-0.3216,-0.333,-0.4187,0.0,-0.5818,-0.6034,0.0,-0.7409,-0.7461,-0.7188,-0.6841,-0.7054,-0.7211,-0.7316,0.0,-0.7395,-0.7485,0.0,0.0,0.0,0.0,0.0,-0.7156,-0.6774,-0.6901,-0.7062,0.0,0.0,0.0,0.0,-0.6218,0.0,0.0,0.0,0.0,0.0,0.0,0.0,0.0,0.0,0.0,0.0,0.0,0.0,0.0,0.0,0.0,0.0,-0.9883,-0.9883,-0.9883,-0.9883,-0.9953,-1.0194,-1.02,-1.0314,-1.0586,-1.0593,-1.0593,-1.0593,-1.0593,-1.0593,-1.0593,-1.0593,-1.0593,-1.0593,-1.0593,-1.0626,-1.0687,-1.0928,-1.1062,-1.1182,-1.1416,-1.1824,-1.2305,-1.2305,-1.2305,-1.2305,-1.2305,-1.2305,-1.2305,-0.1803,-0.1803,-0.1839,-0.1972,-0.2059,-0.2161,-0.2323,-0.2347,-0.2429,0.0,0.0,0.0,0.0,0.0,0.0,0.0,0.0,0.0,0.0,0.0,-0.1803,-0.1803,-0.1803,-0.1803,-0.1803,-0.1803,-0.1935,0.0,0.0,0.0,0.0,0.0,0.0,0.0,0.0,-0.3272,-0.3575,0.0,-0.4749,-0.5737,-0.6109,0.0,-0.7226,-0.6634,-0.627,-0.6037,-0.5932,-0.6145,-0.6516,-0.6943,-0.7323,0.0,0.0,-0.7001,-0.7498,0.0,-0.7132,-0.7317,0.0,0.0,-0.7531,-0.6868,0.0,0.0,0.0,0.0,0.0,0.0,0.0,0.0,0.0,0.0,0.0,0.0,0.0,0.0,0.0,0.0,0.0,0.0,0.0,0.0,0.0,-0.9715,-0.9715,-0.9715,-0.9715,-0.9746,-0.9893,-0.99,-0.9973,-1.0151,-1.0291,-1.0341,-1.0341,-1.0519,-1.0593,-1.0593,-1.0593,-1.0593,-1.0593,-1.0593,-1.0593,-1.06,-1.0747,-1.0894,-1.1002,-1.1149,-1.147,-1.1877,-1.2024,-1.2084,-1.2104,-1.2245,-1.2305,-1.2305,-0.1803,-0.1803,-0.1839,-0.1972,-0.211,-0.2272,-0.2477,-0.2522,0.0,0.0,0.0,0.0,0.0,0.0,0.0,0.0,0.0,0.0,0.0,0.0,0.0,-0.188,-0.1826,-0.1805,-0.1836,-0.1809,-0.1902,0.0,0.0,0.0,0.0,0.0,0.0,0.0,0.0,0.0,0.0,0.0,0.0,-0.5869,0.0,-0.6771,-0.7018,-0.6012,-0.5541,-0.5354,-0.4844,-0.5063,-0.5682,-0.636,0.0,-0.7176,-0.632,-0.6723,0.0,0.0,0.0,0.0,0.0,0.0,0.0,0.0,0.0,-0.7106,0.0,0.0,0.0,-0.7184,0.0,0.0,0.0,0.0,0.0,0.0,0.0,0.0,0.0,0.0,0.0,0.0,0.0,0.0,0.0,-0.9379,-0.9392,-0.9506,-0.9412,-0.9419,-0.9586,-0.9599,-0.9626,-0.9686,-0.9913,-1.006,-1.0083,-1.0385,-1.0539,-1.0593,-1.0593,-1.0593,-1.0593,-1.0593,-1.0593,-1.0593,-1.0593,-1.0727,-1.0909,-1.0909,-1.1049,-1.1289,-1.1643,-1.1784,-1.181,-1.2051,-1.2131,-1.2144,-0.1803,-0.1803,-0.1839,-0.1972,-0.211,-0.2272,-0.2477,-0.2599,0.0,0.0,0.0,0.0,0.0,0.0,0.0,0.0,0.0,0.0,-0.2798,0.0,0.0,-0.2157,-0.1926,-0.1856,-0.1968,-0.1863,-0.1814,-0.1847,0.0,0.0,0.0,0.0,-0.2192,-0.2101,-0.255,0.0,0.0,0.0,-0.5074,0.0,-0.5708,-0.589,0.0,-0.6217,-0.5708,-0.509,-0.4676,-0.466,-0.4811,0.0,-0.5346,-0.596,0.0,-0.6099,0.0,0.0,0.0,0.0,0.0,0.0,0.0,0.0,-0.7047,0.0,0.0,0.0,-0.6847,-0.6438,0.0,0.0,0.0,0.0,0.0,0.0,0.0,0.0,0.0,0.0,0.0,0.0,0.0,0.0,0.0,0.0,-0.8318,-0.8871,-0.8398,-0.8445,-0.9217,-0.9264,-0.9384,-0.9708,-0.9719,-0.986,-1.0114,-1.0147,-1.0301,-1.0593,-1.0593,-1.0593,-1.0593,-1.0593,-1.0593,-1.0593,-1.0593,-1.0613,-1.064,-1.064,-1.066,-1.0747,-1.1263,-1.1442,-1.1449,-1.1475,-1.1489,-1.1529,-0.1803,-0.1803,-0.1839,-0.1972,-0.2049,-0.2184,-0.2463,-0.2819,0.0,0.0,0.0,0.0,0.0,0.0,0.0,0.0,0.0,-0.304,0.0,0.0,0.0,-0.2496,-0.2194,-0.2063,-0.2114,-0.1979,-0.1884,-0.1803,-0.1803,0.0,0.0,0.0,-0.2231,-0.2311,-0.2657,0.0,-0.4089,0.0,0.0,0.0,0.0,0.0,0.0,-0.5357,-0.503,-0.4723,-0.4549,-0.4532,-0.4576,0.0,-0.4997,0.0,0.0,0.0,0.0,0.0,0.0,0.0,0.0,0.0,0.0,0.0,0.0,0.0,0.0,0.0,-0.5994,0.0,0.0,0.0,0.0,0.0,0.0,0.0,0.0,0.0,0.0,0.0,0.0,0.0,0.0,0.0,0.0,0.0,0.0,0.0,0.0,-0.8145,-0.8711,-0.8871,-0.9018,-0.9172,-0.9339,-0.9457,-0.9577,-0.9917,-1.018,-1.0307,-1.0512,-1.0593,-1.0593,-1.0079,-0.9849,-0.9817,-0.9326,-0.939,-0.9817,-0.9294,-0.939,-0.981,-0.953,-1.014,-1.1196,-1.1329,-1.1389,-1.1409,-0.1803,0.0,0.0,0.0,-0.1981,-0.2123,-0.2493,-0.292,-0.3199,0.0,0.0,0.0,-0.3846,-0.3765,0.0,0.0,0.0,-0.3443,0.0,0.0,-0.2883,-0.2945,-0.2561,0.0,0.0,0.0,-0.1985,-0.1856,0.0,0.0,0.0,0.0,0.0,-0.238,0.0,-0.3353,-0.4098,0.0,0.0,-0.5057,-0.5005,-0.502,-0.5053,-0.4767,-0.4587,-0.4491,-0.4491,-0.4491,-0.4491,-0.4491,-0.4814,0.0,-0.4653,0.0,0.0,0.0,0.0,0.0,-0.5218,0.0,0.0,0.0,0.0,0.0,0.0,0.0,0.0,0.0,0.0,0.0,0.0,0.0,0.0,0.0,0.0,0.0,0.0,0.0,0.0,0.0,0.0,0.0,0.0,0.0,0.0,0.0,0.0,0.0,-0.8368,-0.8571,-0.8724,-0.8804,-0.8984,-0.9131,-0.9211,-0.9456,-0.9624,-0.9743,-0.9787,-0.9832,-0.9875,-0.923,-0.8941,-0.8909,-0.8291,-0.8355,-0.8909,-0.8253,-0.8382,-0.8877,-0.8253,-0.888,-1.0227,-1.0669,-1.0988,-1.1196,-0.1803,-0.1803,0.0,0.0,0.0,-0.216,-0.2621,-0.2815,-0.3025,0.0,0.0,0.0,0.0,0.0,0.0,0.0,0.0,-0.3971,-0.3967,0.0,-0.3374,0.0,-0.3,-0.2751,0.0,0.0,0.0,0.0,0.0,0.0,0.0,0.0,0.0,0.0,0.0,-0.3456,-0.4386,-0.4392,-0.4812,-0.5439,-0.4918,-0.4632,-0.4556,0.0,-0.4835,-0.4491,-0.4491,0.0,0.0,-0.4491,-0.4519,0.0,0.0,0.0,0.0,0.0,0.0,0.0,0.0,0.0,0.0,-0.4855,0.0,0.0,0.0,0.0,-0.5499,0.0,0.0,0.0,0.0,0.0,0.0,0.0,0.0,0.0,0.0,0.0,0.0,0.0,0.0,0.0,0.0,0.0,0.0,0.0,0.0,0.0,-0.8335,-0.8409,-0.8543,-0.8798,-0.8818,-0.8931,-0.9211,-0.8577,-0.8468,-0.8826,-0.8118,-0.7902,-0.8091,-0.8059,-0.8027,-0.8027,-0.8027,-0.8027,-0.8027,-0.8027,-0.8027,-0.8027,-0.8027,-0.8032,-0.8204,-0.906,-0.9906,-1.066,0.0,0.0,0.0,0.0,0.0,-0.2181,-0.2747,-0.3127,0.0,0.0,0.0,0.0,0.0,0.0,-0.4223,0.0,0.0,-0.4273,-0.4153,-0.391,0.0,0.0,0.0,-0.3273,0.0,0.0,0.0,0.0,0.0,0.0,0.0,0.0,0.0,0.0,0.0,-0.3262,0.0,0.0,0.0,0.0,0.0,-0.4351,-0.4512,0.0,0.0,-0.4491,-0.4491,-0.4491,0.0,-0.4491,-0.4491,-0.4491,-0.4491,-0.4491,-0.4491,-0.4491,-0.4491,0.0,0.0,0.0,-0.4498,-0.4454,0.0,0.0,0.0,0.0,0.0,0.0,0.0,0.0,0.0,0.0,0.0,0.0,0.0,0.0,0.0,0.0,0.0,0.0,0.0,0.0,0.0,0.0,0.0,0.0,0.0,0.0,0.0,-0.7072,-0.7259,-0.7343,-0.7343,-0.7382,-0.7466,-0.746,-0.7533,-0.7661,-0.7694,-0.7747,-0.7797,-0.7339,-0.7144,-0.7111,-0.6531,-0.6597,-0.7111,-0.6531,-0.6629,-0.7079,-0.6498,-0.6629,-0.7242,-0.8124,-0.8613,-0.8979,-0.209,0.0,0.0,0.0,0.0,0.0,0.0,0.0,0.0,0.0,-0.3853,0.0,-0.3931,0.0,-0.4284,0.0,-0.4491,-0.445,-0.4304,-0.4156,0.0,-0.4175,-0.3894,0.0,0.0,0.0,0.0,0.0,0.0,-0.2231,0.0,0.0,0.0,0.0,0.0,0.0,0.0,0.0,-0.4105,0.0,0.0,-0.432,0.0,0.0,-0.4491,-0.4491,0.0,-0.4491,-0.4491,-0.4491,-0.4491,-0.4491,-0.4491,-0.4491,-0.4491,-0.4491,-0.4491,-0.4491,-0.4491,-0.4491,0.0,-0.4257,-0.4123,0.0,-0.3839,0.0,0.0,0.0,0.0,0.0,0.0,0.0,0.0,0.0,0.0,0.0,0.0,0.0,0.0,0.0,0.0,0.0,0.0,0.0,-0.5359,-0.6413,0.0,0.0,0.0,0.0,-0.6503,-0.6583,-0.6588,-0.6588,-0.6588,-0.6558,-0.6553,-0.6635,-0.6676,-0.6714,-0.6755,-0.6412,-0.6235,-0.6203,-0.5653,-0.5719,-0.6203,-0.562,-0.5719,-0.617,-0.562,-0.5749,-0.633,-0.7209,-0.773,-0.8091,0.0,0.0,0.0,0.0,-0.2619,0.0,0.0,0.0,-0.3836,0.0,-0.3924,-0.3955,-0.4004,-0.415,-0.4279,-0.4474,-0.4491,0.0,-0.4491,-0.4334,0.0,0.0,-0.4192,-0.4014,-0.4008,0.0,0.0,0.0,0.0,0.0,0.0,0.0,0.0,0.0,-0.269,0.0,-0.3346,-0.3936,-0.4324,-0.4491,-0.4491,-0.4491,-0.4491,-0.4491,-0.4491,-0.4491,-0.4491,-0.4491,-0.4491,-0.4491,-0.4491,-0.4491,-0.4491,-0.4491,-0.4491,-0.4491,-0.4491,-0.4491,-0.4491,-0.4491,-0.4457,-0.4267,0.0,0.0,0.0,0.0,-0.4153,0.0,0.0,0.0,0.0,0.0,0.0,0.0,0.0,0.0,0.0,0.0,0.0,0.0,0.0,0.0,0.0,0.0,-0.5179,-0.675,-0.5719,0.0,0.0,0.0,-0.6202,-0.6497,-0.6507,-0.6507,-0.6507,-0.5792,-0.5552,-0.5731,-0.5158,-0.4948,-0.5083,-0.527,-0.5378,-0.5385,-0.5385,-0.5388,-0.5395,-0.5395,-0.5395,-0.5395,-0.5395,-0.5395,-0.5491,-0.633,-0.7177,-0.7924,-0.2495,-0.2818,-0.3025,0.0,-0.2959,-0.3087,0.0,0.0,0.0,0.0,-0.4208,-0.418,-0.4358,-0.4399,-0.4433,-0.4484,-0.4491,0.0,0.0,0.0,0.0,-0.4487,-0.4416,-0.43,-0.414,-0.3788,0.0,-0.343,0.0,0.0,-0.2561,0.0,0.0,0.0,0.0,0.0,-0.334,-0.3846,-0.4226,-0.4491,-0.4491,-0.4491,0.0,0.0,-0.4491,-0.4491,-0.4491,-0.4491,-0.4491,-0.4491,-0.4491,-0.4491,-0.4491,-0.4491,-0.4491,-0.4491,-0.4491,-0.4491,-0.4491,-0.4491,-0.4481,-0.4443,-0.4301,-0.4174,0.0,0.0,0.0,0.0,0.0,0.0,0.0,0.0,0.0,0.0,0.0,0.0,0.0,0.0,0.0,0.0,0.0,0.0,0.0,0.0,-0.3814,-0.498,-0.4304,0.0,0.0,0.0,0.0,-0.5027,-0.5034,-0.5034,-0.5034,-0.4842,-0.4781,-0.4825,-0.4789,-0.4769,-0.4809,-0.4962,-0.5091,-0.5189,-0.5189,-0.5254,-0.5395,-0.5395,-0.5395,-0.5395,-0.5395,-0.5395,-0.5428,-0.5653,-0.6268,-0.7046,-0.2039,0.0,0.0,-0.3539,0.0,0.0,-0.392,0.0,0.0,-0.4447,-0.4467,0.0,-0.4646,-0.473,-0.472,-0.4631,-0.4665,0.0,0.0,0.0,0.0,-0.4494,-0.4491,-0.4453,-0.4341,-0.4119,0.0,-0.3604,0.0,0.0,-0.2606,0.0,0.0,0.0,0.0,-0.3017,0.0,-0.3846,-0.4253,-0.4491,-0.4491,0.0,0.0,-0.4491,-0.4491,-0.4491,-0.4491,-0.4491,-0.4491,-0.4491,-0.4491,-0.4491,-0.4491,-0.4491,-0.4491,-0.4491,-0.4491,-0.4491,-0.4491,-0.4491,-0.4491,-0.4491,-0.4402,-0.4297,-0.421,-0.4271,-0.4297,0.0,0.0,0.0,0.0,0.0,0.0,0.0,0.0,0.0,0.0,0.0,0.0,0.0,0.0,0.0,0.0,0.0,-0.3371,-0.4335,-0.3834,0.0,0.0,0.0,0.0,-0.4365,-0.4457,-0.4491,-0.4491,-0.4491,-0.4491,-0.4491,-0.4644,-0.4691,-0.4697,-0.485,-0.4965,-0.51,-0.51,-0.5216,-0.5395,-0.5395,-0.5395,-0.5395,-0.5395,-0.5395,-0.5395,-0.5395,-0.5719,-0.6137,0.0,0.0,0.0,0.0,0.0,0.0,0.0,-0.4294,0.0,-0.4542,0.0,-0.4836,-0.4925,-0.5044,-0.5023,-0.4846,0.0,-0.4806,-0.4566,-0.4655,-0.4658,-0.4525,-0.4501,-0.4491,-0.4491,-0.445,0.0,0.0,0.0,0.0,0.0,0.0,0.0,0.0,0.0,0.0,0.0,-0.3902,-0.4304,0.0,-0.4491,-0.4491,-0.4491,-0.4491,-0.4491,-0.4491,-0.4491,-0.4491,-0.4491,-0.4491,-0.4491,-0.4491,-0.4491,-0.4491,-0.4491,-0.4491,-0.4491,-0.4491,-0.4491,-0.4491,-0.4491,-0.4491,-0.4491,-0.4457,-0.4277,-0.4372,-0.4453,-0.4274,-0.4375,-0.4484,0.0,0.0,0.0,0.0,0.0,0.0,0.0,0.0,0.0,0.0,0.0,0.0,0.0,0.0,-0.3393,-0.4188,0.0,0.0,0.0,0.0,0.0,-0.419,-0.4368,0.0,-0.4491,0.0,-0.4491,-0.4491,-0.4627,-0.466,-0.4667,-0.4799,-0.4908,-0.5042,-0.5063,-0.5189,-0.5365,-0.5385,-0.5395,-0.5395,-0.5395,-0.5395,-0.5395,-0.5395,-0.5395,-0.5395,0.0,0.0,0.0,0.0,0.0,-0.4541,-0.4568,-0.4382,-0.4392,-0.4789,-0.4825,-0.4863,-0.5047,-0.5081,-0.5078,-0.5044,-0.4952,0.0,0.0,0.0,0.0,-0.4653,-0.4556,-0.4491,-0.4491,-0.4222,-0.3985,0.0,-0.3239,-0.2822,0.0,0.0,0.0,0.0,0.0,0.0,-0.37,-0.4058,0.0,-0.4491,-0.4491,-0.4491,-0.4491,-0.4491,-0.4491,-0.4491,-0.4491,-0.4491,-0.4491,-0.4491,-0.4491,-0.4491,-0.4491,-0.4491,-0.4491,-0.4491,-0.4491,-0.4491,-0.4491,-0.4491,-0.4491,-0.4491,-0.4491,-0.4484,-0.4457,-0.447,-0.4484,-0.4457,-0.447,-0.4453,-0.4281,0.0,0.0,0.0,0.0,0.0,0.0,0.0,0.0,0.0,0.0,0.0,0.0,0.0,0.0,0.0,0.0,0.0,0.0,0.0,0.0,0.0,0.0,0.0,0.0,0.0,-0.4491,-0.4491,-0.4515,-0.4532,-0.4532,-0.4559,-0.4651,-0.4775,-0.4901,-0.5005,-0.5179,-0.5341,-0.5395,-0.5395,-0.5395,-0.5395,-0.5395,-0.5395,-0.5395,-0.5395,0.0,0.0,0.0,0.0,0.0,0.0,0.0,-0.4658,0.0,-0.486,-0.4938,-0.4989,-0.5087,-0.5201,-0.5218,-0.5104,-0.5128,-0.5084,-0.4897,-0.4918,-0.4887,-0.4813,-0.4663,0.0,-0.4607,-0.4389,-0.4097,-0.3792,-0.3372,-0.2939,0.0,0.0,0.0,0.0,0.0,-0.3283,0.0,0.0,0.0,-0.4491,-0.4491,-0.4491,-0.4491,-0.4491,-0.4491,-0.4491,-0.4491,-0.4491,-0.4491,-0.4491,-0.4491,-0.4491,-0.4491,-0.4491,-0.4491,-0.4491,-0.4491,-0.4491,-0.4491,-0.4491,-0.4491,-0.4491,-0.4491,-0.4491,-0.4491,-0.4491,-0.4491,-0.4491,-0.4491,-0.4447,-0.4247,-0.4099,0.0,0.0,0.0,0.0,0.0,0.0,0.0,0.0,0.0,0.0,0.0,0.0,0.0,0.0,0.0,0.0,0.0,0.0,0.0,0.0,0.0,0.0,0.0,0.0,0.0,-0.4491,-0.4491,-0.4491,-0.4491,-0.4491,-0.4576,-0.4701,-0.4853,-0.4968,-0.511,-0.533,-0.5395,-0.5395,-0.5395,-0.5395,-0.5395,-0.5395,-0.5395,-0.5395,0.0,-0.1174,0.0,0.0,-0.4005,0.0,-0.43,-0.4723,-0.5013,-0.5013,-0.5111,-0.5179,-0.5179,-0.532,-0.5344,-0.5189,-0.5324,-0.5296,-0.503,-0.5118,-0.5083,-0.4938,-0.4819,-0.4724,-0.4691,-0.46,-0.4317,0.0,0.0,0.0,0.0,0.0,-0.2438,-0.2262,0.0,0.0,0.0,0.0,-0.4304,-0.4491,-0.4491,-0.4491,-0.4491,-0.4491,-0.4491,-0.4491,-0.4491,-0.4491,-0.4491,-0.4491,-0.4491,-0.4491,-0.4491,-0.4491,-0.4491,-0.4491,-0.4491,-0.4491,-0.4491,-0.4491,-0.4491,-0.4491,-0.4491,-0.4491,-0.4491,-0.4491,-0.4491,-0.4491,-0.4491,-0.4447,-0.4247,-0.4149,0.0,0.0,0.0,0.0,0.0,0.0,0.0,0.0,0.0,0.0,0.0,0.0,0.0,0.0,0.0,0.0,0.0,0.0,0.0,0.0,0.0,-0.4244,-0.4443,0.0,-0.4491,0.0,-0.4491,-0.4491,-0.4491,-0.4491,-0.4556,-0.4682,-0.484,-0.4985,-0.5189,-0.5344,-0.5395,-0.5395,-0.5395,-0.5395,-0.5395,-0.5395,-0.5395,-0.5395,0.0,0.0,0.0,0.0,0.0,0.0,0.0,-0.4113,-0.5354,-0.5354,-0.5365,-0.5375,-0.5375,-0.5385,-0.5388,-0.5375,-0.5385,-0.5382,-0.5354,-0.5365,-0.527,-0.5086,-0.4941,-0.4833,-0.4694,-0.4677,-0.445,0.0,0.0,0.0,0.0,0.0,-0.2788,-0.302,0.0,0.0,0.0,-0.413,-0.4304,-0.4491,-0.4491,-0.4491,-0.4491,-0.4491,-0.4491,-0.4491,-0.4491,-0.4491,-0.4491,-0.4491,-0.4491,-0.4491,-0.4491,-0.4491,-0.4491,-0.4491,-0.4491,-0.4491,-0.4491,-0.4491,-0.4491,-0.4491,-0.4491,-0.4491,-0.4491,-0.4491,-0.4491,-0.4491,-0.4491,-0.4447,-0.4247,-0.4341,-0.4361,0.0,0.0,0.0,0.0,0.0,0.0,0.0,0.0,0.0,0.0,0.0,0.0,0.0,0.0,0.0,0.0,0.0,0.0,-0.3788,0.0,-0.4089,-0.424,-0.4399,0.0,-0.4491,-0.4491,-0.4491,-0.4491,-0.4491,-0.4498,-0.4528,-0.4792,-0.5077,-0.5375,-0.5388,-0.5395,-0.5395,-0.5395,-0.5395,-0.5395,-0.5395,-0.5395,-0.5395,0.0,0.0,0.0,0.0,0.0,0.0,0.0,-0.1622,-0.2147,-0.2147,-0.4051,-0.5395,-0.5395,-0.5395,-0.5395,-0.5395,-0.5395,-0.5395,-0.5395,-0.5395,-0.5365,-0.5274,-0.5125,-0.4985,-0.4955,-0.4779,-0.4558,0.0,0.0,0.0,0.0,0.0,0.0,0.0,0.0,-0.3987,-0.4146,-0.4385,-0.4232,-0.3826,-0.4494,-0.4094,-0.3194,-0.3757,-0.3608,-0.313,-0.3107,-0.3401,-0.3707,-0.3262,-0.3735,-0.4491,-0.4491,-0.4491,-0.4491,-0.4491,-0.4491,-0.4491,-0.4491,-0.4491,-0.4491,-0.4491,-0.4491,-0.4491,-0.4491,-0.4491,-0.4491,-0.4491,-0.4491,-0.447,-0.4389,-0.4355,-0.4324,0.0,0.0,0.0,0.0,0.0,0.0,0.0,0.0,0.0,0.0,0.0,0.0,0.0,0.0,-0.2146,-0.2555,0.0,0.0,-0.3665,0.0,-0.4068,-0.4194,-0.4392,-0.4491,-0.4491,-0.4491,-0.4491,-0.4491,-0.4491,-0.459,-0.4745,-0.4867,-0.5087,-0.5395,-0.5395,-0.5395,-0.5395,-0.5395,-0.5395,-0.5395,-0.5395,-0.5395,-0.5395,0.0,0.0,0.0,0.0,0.0,0.0,0.0,0.0,0.0,0.0,-0.2213,-0.422,-0.5292,-0.5395,-0.5193,-0.4655,-0.509,-0.5292,-0.499,-0.5259,-0.5395,-0.5395,-0.5257,0.0,-0.51,-0.4925,-0.4748,-0.4624,-0.4297,0.0,0.0,-0.3795,0.0,0.0,-0.4131,-0.425,-0.4341,-0.4359,-0.398,-0.3421,-0.3925,-0.3334,-0.2264,-0.2924,-0.2777,-0.219,-0.2211,-0.2547,-0.2899,-0.2382,-0.2937,-0.3812,-0.383,-0.3987,-0.4153,-0.4153,-0.4153,-0.4181,-0.4181,-0.4015,-0.3818,-0.3818,-0.3818,-0.3818,-0.3818,-0.3818,-0.3873,-0.4098,-0.3987,-0.3959,-0.4405,-0.4186,-0.403,-0.4362,0.0,0.0,0.0,0.0,0.0,0.0,0.0,-0.3548,0.0,0.0,0.0,0.0,0.0,-0.2283,-0.2661,0.0,0.0,0.0,0.0,0.0,0.0,-0.4392,-0.4491,-0.4491,-0.4491,-0.4491,-0.4491,-0.4491,-0.4658,-0.4887,-0.4887,-0.5087,-0.5395,-0.5395,-0.5395,-0.5395,-0.5395,-0.5395,-0.5395,-0.5395,-0.5395,-0.5395,0.0,0.0,0.0,0.0,0.0,0.0,0.0,0.0,0.0,0.0,-0.0034,-0.1411,-0.5024,-0.5395,-0.4686,-0.2878,-0.4353,-0.499,-0.4082,-0.4888,-0.5395,0.0,0.0,-0.5287,-0.5103,-0.5096,-0.5026,-0.4884,0.0,0.0,-0.4477,-0.4281,-0.4187,-0.4204,-0.4551,-0.4684,-0.4636,-0.3906,-0.362,-0.3529,-0.2609,-0.2211,-0.2211,-0.2211,-0.2211,-0.221,-0.221,-0.221,-0.221,-0.221,-0.2225,-0.2242,-0.2226,-0.2732,-0.3317,-0.3317,-0.3372,-0.34,-0.34,-0.2843,-0.2232,-0.2232,-0.2232,-0.2232,-0.2232,-0.2232,-0.2426,-0.3176,-0.2732,-0.2704,-0.4208,-0.3846,-0.3501,-0.4111,0.0,0.0,0.0,0.0,0.0,0.0,0.0,-0.3246,-0.357,0.0,0.0,0.0,0.0,0.0,0.0,0.0,0.0,-0.3775,-0.4062,0.0,-0.4197,-0.4392,-0.4491,-0.4491,-0.4491,-0.4491,-0.4491,-0.4491,-0.4658,-0.4887,-0.4887,-0.5087,-0.5395,-0.5395,-0.5395,-0.5395,-0.5395,-0.5395,-0.5395,-0.5395,-0.5395,-0.5395,0.0,0.0,0.0,0.0,0.0,0.0,0.0,0.0,0.0,0.0,0.0,-0.0438,-0.1578,-0.1712,-0.1478,0.0,-0.2146,-0.2813,0.0,-0.3716,-0.4184,-0.358,-0.4115,-0.4132,-0.3467,-0.395,-0.3895,-0.3263,0.0,0.0,0.0,-0.2863,-0.2849,-0.2851,-0.2938,-0.2993,-0.3,-0.2878,-0.2471,-0.1938,-0.2362,-0.1806,-0.0764,-0.1361,-0.1211,-0.071,-0.0694,-0.1034,-0.1385,-0.0862,-0.104,-0.1361,-0.087,-0.1564,-0.2538,-0.2538,-0.2565,-0.2593,-0.2593,-0.2397,-0.2202,-0.2202,-0.2202,-0.2202,-0.2202,-0.2202,-0.2258,-0.2508,-0.276,-0.3121,-0.3652,-0.3959,-0.4168,-0.4372,-0.446,0.0,0.0,0.0,0.0,0.0,0.0,-0.3578,0.0,-0.343,0.0,0.0,0.0,0.0,0.0,0.0,0.0,0.0,-0.4011,0.0,-0.4197,-0.4392,-0.4491,-0.4491,-0.4491,-0.4491,-0.4491,-0.4491,-0.4658,-0.4887,-0.4887,-0.5087,-0.5395,-0.5395,-0.5395,-0.5395,-0.5395,-0.5395,-0.5395,-0.5395,-0.5395,-0.5395,0.0,0.0,0.0,0.0,0.0,0.0,0.0,0.0,0.0,0.0,0.0,0.0,0.0,0.0,0.0,0.0,-0.1309,-0.1977,-0.1642,-0.2811,-0.328,-0.2711,-0.3211,-0.3247,-0.2711,0.0,0.0,-0.2579,-0.2981,-0.2857,-0.2211,-0.2211,-0.2211,-0.2213,-0.227,-0.2313,-0.2287,-0.2128,-0.1699,-0.1211,-0.1532,-0.0997,-0.0066,-0.0601,-0.0461,0.0,0.0,-0.0292,-0.0606,-0.016,-0.0317,-0.0595,-0.0157,-0.0636,-0.1417,-0.1713,-0.1776,-0.1786,-0.1786,-0.1591,-0.1369,-0.1369,-0.1369,-0.1369,-0.1369,-0.1369,-0.1452,-0.173,-0.1924,-0.2232,-0.2843,-0.3093,-0.3317,-0.3594,-0.3624,-0.3665,-0.3761,0.0,0.0,0.0,0.0,0.0,0.0,-0.3347,0.0,0.0,0.0,0.0,0.0,0.0,0.0,-0.3829,-0.4155,0.0,-0.4301,-0.4447,-0.4491,-0.4491,-0.4491,-0.4491,-0.4491,-0.4549,-0.4684,-0.4891,-0.4945,-0.5135,-0.5395,-0.5395,-0.5395,-0.5395,-0.5395,-0.5395,-0.5395,-0.5395,-0.5395,-0.5395,0.0,0.0,0.0,0.0,0.0,0.0,0.0,0.0,0.0,0.0,0.0,0.0,0.0,0.0,0.0,0.0,0.0,0.0,0.0,-0.2076,-0.2577,-0.2511,-0.2577,-0.2577,-0.2511,-0.2577,-0.2611,-0.2611,-0.2416,-0.2226,-0.204,-0.204,-0.204,-0.2043,-0.2229,-0.2322,-0.2262,-0.1525,-0.1207,-0.114,-0.0337,0.0,0.0,0.0,0.0,0.0,0.0,0.0,0.0,0.0,0.0,0.0,0.0,0.0,-0.0123,-0.0831,-0.1034,-0.1037,-0.1035,-0.0532,0.0,0.0,0.0,0.0,0.0,0.0,-0.0196,-0.0895,-0.0532,-0.0504,-0.187,-0.1619,-0.1396,-0.2091,-0.2199,-0.2389,-0.2949,0.0,0.0,0.0,0.0,0.0,0.0,-0.285,-0.3174,0.0,0.0,0.0,0.0,0.0,-0.3881,-0.4187,-0.4389,-0.4491,-0.4491,-0.4491,-0.4491,-0.4491,-0.4491,-0.4491,-0.4494,-0.4648,-0.4775,-0.4894,-0.5036,-0.5216,-0.5395,-0.5395,-0.5395,-0.5395,-0.5395,-0.5395,-0.5395,-0.5395,-0.5395,-0.5395,0.0,0.0,0.0,0.0,0.0,0.0,0.0,0.0,0.0,0.0,0.0,0.0,0.0,0.0,0.0,0.0,-0.0404,-0.0538,-0.0337,-0.1141,-0.1341,-0.0672,-0.1275,-0.1307,-0.0639,-0.1275,-0.1641,-0.1641,-0.0935,-0.0565,-0.0528,-0.0528,-0.0528,-0.0528,-0.0565,-0.06,-0.0567,-0.0403,-0.0303,-0.0303,-0.0067,0.0,0.0,0.0,0.0,0.0,0.0,0.0,0.0,0.0,0.0,0.0,0.0,0.0,-0.0032,-0.0209,-0.0263,-0.026,-0.0254,-0.014,0.0,0.0,0.0,0.0,0.0,0.0,-0.0056,-0.0224,-0.056,-0.095,-0.1284,-0.1675,-0.2009,-0.2174,-0.221,-0.2225,-0.2254,-0.2226,0.0,0.0,-0.2112,-0.2131,-0.2064,-0.2244,-0.2327,0.0,0.0,0.0,0.0,-0.2931,-0.3548,-0.4167,-0.4389,-0.4491,-0.4491,-0.4491,-0.4491,-0.4491,-0.4491,-0.4491,-0.4494,-0.4648,-0.4775,-0.4894,-0.5036,-0.5216,-0.5395,-0.5395,-0.5395,-0.5395,-0.5395,-0.5395,-0.5395,-0.5395,-0.5395,-0.5395,0.0,0.0,0.0,0.0,0.0,0.0,0.0,0.0,0.0,0.0,0.0,0.0,0.0,0.0,0.0,0.0,0.0,0.0,0.0,-0.0437,-0.0504,-0.0034,-0.0437,-0.0471,0.0,-0.0471,-0.0706,-0.0706,-0.0236,0.0,0.0,0.0,0.0,0.0,0.0,0.0,0.0,0.0,0.0,0.0,0.0,0.0,0.0,0.0,0.0,0.0,0.0,0.0,0.0,0.0,0.0,0.0,0.0,0.0,0.0,0.0,0.0,0.0,0.0,0.0,0.0,0.0,0.0,0.0,0.0,0.0,0.0,0.0,-0.0308,-0.0588,-0.0588,-0.0923,-0.1195,-0.1204,-0.1198,-0.1255,-0.1471,-0.1507,0.0,-0.1406,-0.1453,-0.1487,-0.148,-0.1612,-0.1745,-0.1853,0.0,0.0,-0.1982,-0.242,-0.304,-0.3803,-0.4255,-0.4491,-0.4491,-0.4491,-0.4491,-0.4491,-0.4491,-0.4491,-0.4498,-0.4694,-0.484,-0.4901,-0.5145,-0.5284,-0.5395,-0.5395,-0.5395,-0.5395,-0.5395,-0.5395,-0.5395,-0.5395,-0.5395,-0.5395,0.0,0.0,0.0,0.0,0.0,0.0,0.0,0.0,0.0,0.0,0.0,0.0,0.0,0.0,0.0,0.0,0.0,0.0,0.0,0.0,0.0,0.0,0.0,0.0,0.0,0.0,0.0,0.0,0.0,0.0,0.0,0.0,0.0,0.0,0.0,0.0,0.0,0.0,0.0,0.0,0.0,0.0,0.0,0.0,0.0,0.0,0.0,0.0,0.0,0.0,0.0,0.0,0.0,0.0,0.0,0.0,0.0,0.0,0.0,0.0,0.0,0.0,0.0,0.0,0.0,0.0,0.0,0.0,0.0,0.0,0.0,0.0,0.0,0.0,0.0,-0.019,-0.0687,0.0,-0.0772,-0.0772,-0.0776,-0.0814,-0.092,-0.0923,-0.1202,-0.1813,-0.187,-0.187,0.0,-0.1981,-0.2343,-0.3037,-0.3763,-0.4153,-0.4153,-0.4153,-0.4153,-0.4153,-0.4153,-0.4153,-0.4162,-0.4428,-0.4608,-0.4716,-0.5035,-0.5259,-0.5361,-0.5385,-0.5395,-0.5395,-0.5395,-0.5395,-0.5395,-0.5395,-0.5395,-0.5395,0.0,0.0,0.0,0.0,0.0,0.0,0.0,0.0,0.0,0.0,0.0,0.0,0.0,0.0,0.0,0.0,0.0,0.0,0.0,0.0,0.0,0.0,0.0,0.0,0.0,0.0,0.0,0.0,0.0,0.0,0.0,0.0,0.0,0.0,0.0,0.0,0.0,0.0,0.0,0.0,0.0,0.0,0.0,0.0,0.0,0.0,0.0,0.0,0.0,0.0,0.0,0.0,0.0,0.0,0.0,0.0,0.0,0.0,0.0,0.0,0.0,0.0,0.0,0.0,0.0,0.0,0.0,0.0,0.0,0.0,0.0,0.0,0.0,0.0,0.0,-0.0026,-0.0127,0.0,-0.0133,-0.0133,-0.0137,-0.0139,-0.0168,-0.0168,-0.0224,-0.0336,-0.0336,-0.0336,-0.0336,-0.0923,-0.134,-0.1452,-0.2174,-0.2565,-0.2565,-0.2565,-0.2565,-0.2565,-0.2565,-0.2565,-0.2567,-0.2787,-0.3218,-0.3821,-0.4091,-0.4583,-0.5143,-0.5341,-0.5395,-0.5395,-0.5395,-0.5395,-0.5395,-0.5395,-0.5395,-0.5395,0.0,0.0,0.0,0.0,0.0,0.0,0.0,0.0,0.0,0.0,0.0,0.0,0.0,0.0,0.0,0.0,0.0,0.0,0.0,0.0,0.0,0.0,0.0,0.0,0.0,0.0,0.0,0.0,0.0,0.0,0.0,0.0,0.0,0.0,0.0,0.0,0.0,0.0,0.0,0.0,0.0,0.0,0.0,0.0,0.0,0.0,0.0,0.0,0.0,0.0,0.0,0.0,0.0,0.0,0.0,0.0,0.0,0.0,0.0,0.0,0.0,0.0,0.0,0.0,0.0,0.0,0.0,0.0,0.0,0.0,0.0,0.0,0.0,0.0,0.0,0.0,0.0,0.0,0.0,0.0,0.0,0.0,0.0,0.0,0.0,0.0,0.0,0.0,0.0,-0.0336,-0.0504,-0.0504,-0.1619,-0.2202,-0.2202,-0.2202,-0.2202,-0.2202,-0.2202,-0.2202,-0.2206,-0.2396,-0.2696,-0.3026,-0.323,-0.348,-0.3828,-0.3914,-0.4231,-0.4646,-0.4646,-0.4957,-0.5395,-0.5395,-0.5395,-0.5395,0.0,0.0,0.0,0.0,0.0,0.0,0.0,0.0,0.0,0.0,0.0,0.0,0.0,0.0,0.0,0.0,0.0,0.0,0.0,0.0,0.0,0.0,0.0,0.0,0.0,0.0,0.0,0.0,0.0,0.0,0.0,0.0,0.0,0.0,0.0,0.0,0.0,0.0,0.0,0.0,0.0,0.0,0.0,0.0,0.0,0.0,0.0,0.0,0.0,0.0,0.0,0.0,0.0,0.0,0.0,0.0,0.0,0.0,0.0,0.0,0.0,0.0,0.0,0.0,0.0,0.0,0.0,0.0,0.0,0.0,0.0,0.0,0.0,0.0,0.0,0.0,0.0,0.0,0.0,0.0,0.0,0.0,0.0,0.0,0.0,0.0,0.0,0.0,0.0,0.0,0.0,0.0,-0.109,-0.1703,-0.1703,-0.1703,-0.1703,-0.1703,-0.1703,-0.1703,-0.1704,-0.1835,-0.2002,-0.2179,-0.231,-0.2495,-0.2647,-0.2698,-0.3082,-0.3714,-0.3714,-0.4268,-0.5075,-0.5075,-0.5196,-0.5395,0.0,0.0,0.0,0.0,0.0,0.0,0.0,0.0,0.0,0.0,0.0,0.0,0.0,0.0,0.0,0.0,0.0,0.0,0.0,0.0,0.0,0.0,0.0,0.0,0.0,0.0,0.0,0.0,0.0,0.0,0.0,0.0,0.0,0.0,0.0,0.0,0.0,0.0,0.0,0.0,0.0,0.0,0.0,0.0,0.0,0.0,0.0,0.0,0.0,0.0,0.0,0.0,0.0,0.0,0.0,0.0,0.0,0.0,0.0,0.0,0.0,0.0,0.0,0.0,0.0,0.0,0.0,0.0,0.0,0.0,0.0,0.0,0.0,0.0,0.0,0.0,0.0,0.0,0.0,0.0,0.0,0.0,0.0,0.0,0.0,0.0,0.0,0.0,0.0,0.0,0.0,0.0,-0.0112,-0.0168,-0.0168,-0.0168,-0.0168,-0.0168,-0.0168,-0.0168,-0.0168,-0.0168,-0.0562,-0.1208,-0.1336,-0.1825,-0.2536,-0.2643,-0.2739,-0.2807,-0.2807,-0.3326,-0.4115,-0.4115,-0.4646,-0.5395,0.0,0.0,0.0,0.0,0.0,0.0,0.0,0.0,0.0,0.0,0.0,0.0,0.0,0.0,0.0,0.0,0.0,0.0,0.0,0.0,0.0,0.0,0.0,0.0,0.0,0.0,0.0,0.0,0.0,0.0,0.0,0.0,0.0,0.0,0.0,0.0,0.0,0.0,0.0,0.0,0.0,0.0,0.0,0.0,0.0,0.0,0.0,0.0,0.0,0.0,0.0,0.0,0.0,0.0,0.0,0.0,0.0,0.0,0.0,0.0,0.0,0.0,0.0,0.0,0.0,0.0,0.0,0.0,0.0,0.0,0.0,0.0,0.0,0.0,0.0,0.0,0.0,0.0,0.0,0.0,0.0,0.0,0.0,0.0,0.0,0.0,0.0,0.0,0.0,0.0,0.0,0.0,0.0,0.0,0.0,0.0,0.0,0.0,0.0,0.0,0.0,0.0,-0.014,-0.042,-0.0482,-0.0656,-0.0941,-0.1012,-0.1352,-0.1827,-0.1832,-0.2377,-0.3181,-0.3205,-0.3414,-0.3816,0.0,0.0,0.0,0.0,0.0,0.0,0.0,0.0,0.0,0.0,0.0,0.0,0.0,0.0,0.0,0.0,0.0,0.0,0.0,0.0,0.0,0.0,0.0,0.0,0.0,0.0,0.0,0.0,0.0,0.0,0.0,0.0,0.0,0.0,0.0,0.0,0.0,0.0,0.0,0.0,0.0,0.0,0.0,0.0,0.0,0.0,0.0,0.0,0.0,0.0,0.0,0.0,0.0,0.0,0.0,0.0,0.0,0.0,0.0,0.0,0.0,0.0,0.0,0.0,0.0,0.0,0.0,0.0,0.0,0.0,0.0,0.0,0.0,0.0,0.0,0.0,0.0,0.0,0.0,0.0,0.0,0.0,0.0,0.0,0.0,0.0,0.0,0.0,0.0,0.0,0.0,0.0,0.0,0.0,0.0,0.0,0.0,0.0,0.0,0.0,0.0,0.0,0.0,0.0,0.0,0.0,0.0,0.0,-0.0341,-0.0899,-0.089,-0.1461,-0.2253,-0.2268,-0.246,-0.2774,0.0,0.0,0.0,0.0,0.0,0.0,0.0,0.0,0.0,0.0,0.0,0.0,0.0,0.0,0.0,0.0,0.0,0.0,0.0,0.0,0.0,0.0,0.0,0.0,0.0,0.0,0.0,0.0,0.0,0.0,0.0,0.0,0.0,0.0,0.0,0.0,0.0,0.0,0.0,0.0,0.0,0.0,0.0,0.0,0.0,0.0,0.0,0.0,0.0,0.0,0.0,0.0,0.0,0.0,0.0,0.0,0.0,0.0,0.0,0.0,0.0,0.0,0.0,0.0,0.0,0.0,0.0,0.0,0.0,0.0,0.0,0.0,0.0,0.0,0.0,0.0,0.0,0.0,0.0,0.0,0.0,0.0,0.0,0.0,0.0,0.0,0.0,0.0,0.0,0.0,0.0,0.0,0.0,0.0,0.0,0.0,0.0,0.0,0.0,0.0,0.0,0.0,0.0,0.0,0.0,0.0,0.0,0.0,0.0,0.0,0.0,-0.0515,-0.1292,-0.1292,-0.1887,-0.2685,0.0,0.0,0.0,0.0,0.0,0.0,0.0,0.0,0.0,0.0,0.0,0.0,0.0,0.0,0.0,0.0,0.0,0.0,0.0,0.0,0.0,0.0,0.0,0.0,0.0,0.0,0.0,0.0,0.0,0.0,0.0,0.0,0.0,0.0,0.0,0.0,0.0,0.0,0.0,0.0,0.0,0.0,0.0,0.0,0.0,0.0,0.0,0.0,0.0,0.0,0.0,0.0,0.0,0.0,0.0,0.0,0.0,0.0,0.0,0.0,0.0,0.0,0.0,0.0,0.0,0.0,0.0,0.0,0.0,0.0,0.0,0.0,0.0,0.0,0.0,0.0,0.0,0.0,0.0,0.0,0.0,0.0,0.0,0.0,0.0,0.0,0.0,0.0,0.0,0.0,0.0,0.0,0.0,0.0,0.0,0.0,0.0,0.0,0.0,0.0,0.0,0.0,0.0,0.0,0.0,0.0,0.0,0.0,0.0,0.0,0.0,-0.0146,-0.0384,-0.0392,-0.055,-0.0895,0.2387,0.18,0.1214,0.1214,0.1214,0.1214,0.1214,0.1488,0.1643,0.1643,0.1058,0.0628,0.0628,0.0235,0.0,0.0,0.0,0.0,0.0,0.0,0.0,0.0,0.0,0.0,0.0,0.0,0.0,0.0,0.0,0.0,0.0,0.0,0.0,0.0,0.0,0.0,0.0,0.0,0.0,0.0,0.0,0.0,0.0,0.0,0.0,0.0,0.0,0.0,0.0,0.0,0.0,0.0,0.0,0.0,0.0,0.0,0.0,0.0,0.0,0.0,0.0,0.0,0.0,0.0,0.0,0.0,0.0,0.0,0.0,0.0,0.0,0.0,0.0,0.0,0.0,0.0,0.0,0.0,0.0,0.0,0.0,0.0,0.0,0.0,0.0,0.0,0.0,0.0,0.0,0.0,0.0,0.0,0.0,0.0,0.0,0.0,0.0,0.0,0.0,0.0,0.0,0.0,0.0,0.0,0.0,0.0,0.0,0.0,0.0,0.0,0.0,0.0,0.0,0.0,0.0,-0.0089,0.606,0.4727,0.3396,0.3396,0.3396,0.3357,0.3202,0.3785,0.4174,0.4096,0.2737,0.1723,0.1723,0.0863,0.0235,0.0157,0.0039,0.0039,0.0118,0.0157,0.0196,0.0275,0.0275,0.0275,0.0275,0.0079,0.0,0.0,0.0,0.0,0.0,0.0,0.0,0.0,0.0,0.0,0.0,0.0,0.0,0.0,0.0,0.0073,0.0147,0.0037,0.0072,0.0141,0.0035,0.0,0.0,0.0,0.0,0.0,0.0,0.0,0.0,0.0,0.0,0.0,0.0,0.0,0.0,0.0,0.0062,0.0088,0.0028,0.0,0.0,0.0,0.0,0.0,0.0,0.0,0.0,0.0,0.0,0.0,0.0,0.0,0.0,0.0,0.0,0.0,0.0,0.0,0.0,0.0,0.0,0.0,0.0,0.0,0.0,0.0,0.0,0.0,0.0,0.0,0.0,0.0,0.0,0.0,0.0,0.0,0.0,0.0,0.0,0.0,0.0,0.0,0.0,0.0,0.0,0.0,0.0,0.0,0.0,0.0,0.6257,0.5944,0.5589,0.5589,0.5589,0.5234,0.4135,0.4096,0.3979,0.3396,0.3007,0.2773,0.2773,0.2579,0.2112,0.1333,0.0471,0.0353,0.1216,0.1254,0.1605,0.2384,0.2423,0.2423,0.2423,0.0823,0.0,0.0,0.0,0.0,0.0,0.0,0.0,0.0,0.0,0.0,0.0,0.0,0.0,0.0,0.0,0.0502,0.1155,0.0303,0.0523,0.115,0.0291,0.0,0.0,0.0,0.0,0.0,0.0,0.0,0.0,0.0,0.0,0.0,0.0,0.0,0.0,0.0,0.0511,0.0841,0.0148,0.0,0.0,0.0,0.0,0.0,0.0,0.0,0.0,0.0,0.0,0.0,0.0,0.0,0.0,0.0,0.0,0.0,0.0,0.0,0.0,0.0,0.0,0.0,0.0,0.0,0.0,0.0,0.0,0.0,0.0,0.0,0.0,0.0,0.0,0.0,0.0,0.0,0.0,0.0,0.0,0.0,0.0,0.0,0.0,0.0,0.0,0.0,0.0,0.0,0.0,0.0,0.63,0.63,0.63,0.63,0.63,0.606,0.5312,0.5196,0.5076,0.4686,0.4178,0.3865,0.3865,0.3396,0.289,0.2347,0.18,0.1721,0.2268,0.2308,0.254,0.3085,0.3085,0.3085,0.3085,0.2033,0.1254,0.0745,0.0235,0.0,0.0,0.0,0.0,0.0,0.0,0.0275,0.0745,0.0745,0.1058,0.1488,0.1488,0.18,0.2266,0.1697,0.183,0.2223,0.1674,0.1157,0.0732,0.0645,0.0605,0.0605,0.0605,0.0941,0.1276,0.1276,0.1276,0.1276,0.1276,0.1276,0.1305,0.1285,0.1641,0.1616,0.0305,0.0662,0.1131,0.0635,0.0888,0.1054,0.0617,0.0532,0.042,0.0056,0.0,0.0112,0.0476,0.0532,0.0643,0.1006,0.1062,0.0923,0.056,0.0532,0.0392,0.0028,0.0,0.0,0.0,0.0,0.0,0.0,0.0,0.0,0.0,0.0,0.0,0.0,0.0,0.0,0.0,0.0,0.0,0.0,0.0,0.0,0.0,0.0,0.0,0.0,0.0,0.0,0.0,0.0,0.0,0.0,0.63,0.63,0.63,0.63,0.63,0.63,0.63,0.63,0.63,0.63,0.5512,0.496,0.496,0.4021,0.3357,0.3357,0.3202,0.3163,0.3357,0.3357,0.3435,0.3632,0.3632,0.3632,0.3632,0.3474,0.2891,0.1841,0.098,0.0549,0.0549,0.0549,0.0549,0.0549,0.0549,0.1019,0.1841,0.1841,0.2347,0.3085,0.3085,0.3202,0.3357,0.3163,0.3203,0.334,0.315,0.2536,0.1786,0.1635,0.1547,0.1541,0.1541,0.2075,0.2711,0.2711,0.2711,0.2711,0.2711,0.2711,0.2711,0.2711,0.2811,0.248,0.0822,0.1618,0.2456,0.1548,0.1981,0.2287,0.1513,0.1357,0.1127,0.0536,0.0393,0.0588,0.1202,0.1284,0.1507,0.212,0.2202,0.1952,0.1341,0.1284,0.1034,0.042,0.0364,0.0364,0.0364,0.0252,0.0196,0.0196,0.0056,0.0,0.0,0.0,0.0,0.0,0.0,0.0,0.0,0.0,0.0,0.0,0.0,0.0,0.0,0.0,0.0,0.0,0.0,0.0,0.0,0.0,0.0,0.0,0.63,0.63,0.63,0.63,0.63,0.63,0.63,0.63,0.63,0.63,0.618,0.6103,0.6103,0.5118,0.4491,0.4491,0.3632,0.3476,0.4414,0.4491,0.4882,0.5825,0.5867,0.5867,0.5867,0.496,0.3945,0.289,0.2734,0.2695,0.2695,0.2695,0.2695,0.2695,0.2695,0.2773,0.289,0.289,0.2968,0.3085,0.3085,0.3671,0.4373,0.3435,0.3663,0.4353,0.342,0.294,0.2733,0.2697,0.2596,0.2509,0.2509,0.2611,0.2711,0.2711,0.2711,0.2711,0.2711,0.2711,0.2711,0.2711,0.328,0.3573,0.2553,0.2533,0.2656,0.2519,0.2597,0.2624,0.2522,0.2375,0.2272,0.2185,0.2019,0.1924,0.2035,0.2063,0.2091,0.2174,0.2202,0.2174,0.2063,0.2063,0.2009,0.1898,0.1898,0.1898,0.1898,0.1284,0.095,0.095,0.0336,0.0,0.0,0.0,0.0,0.0,0.0,0.0,0.0,0.0,0.0,0.0,0.0,0.0,0.0,0.0,0.0,0.0,0.0,0.0,0.0,0.0,0.0,0.0,0.63,0.63,0.63,0.63,0.63,0.63,0.63,0.63,0.63,0.63,0.63,0.63,0.63,0.5867,0.5589,0.5589,0.5157,0.5079,0.555,0.5589,0.5786,0.6261,0.63,0.63,0.63,0.5828,0.5354,0.4882,0.3671,0.3085,0.3085,0.3085,0.3085,0.3085,0.3085,0.3435,0.3982,0.3982,0.4334,0.4882,0.4882,0.5157,0.555,0.5079,0.5196,0.5491,0.4844,0.4247,0.3748,0.3561,0.3482,0.3411,0.3411,0.3782,0.4217,0.4217,0.4217,0.4217,0.4217,0.4217,0.4217,0.4217,0.4486,0.4686,0.4284,0.421,0.404,0.345,0.3713,0.3882,0.339,0.3253,0.3101,0.2681,0.253,0.2607,0.2932,0.2983,0.3105,0.3436,0.3483,0.3314,0.2871,0.2843,0.2676,0.2232,0.2202,0.2202,0.2202,0.1898,0.1703,0.1703,0.1396,0.1034,0.0615,0.0615,0.042,0.0,0.0,0.0,0.0,0.0,0.0,0.0,0.0,0.0,0.0,0.0,0.0,0.0,0.0,0.0,0.0,0.0,0.0,0.0]}]]